[[{"header":{"parameterUnit":"m.s-1","parameterCategory":1,"la1":30.6,"la2":29.2853,"lo1":-89.7004,"lo2":-87.6739,"dy":0.0162,"dx":0.0183,"nx":112,"ny":82,"refTime":"2023-07-27T06:00:00:Z","depth":0,"parameterNumber":2,"parameterNumberName":"U-component_of_WINDS"},"data":[0.0,0.0,0.0,0.0,0.0,0.0,0.0,0.0,0.0,0.0,0.0,0.0,0.0,0.0,0.0,0.0,0.0,0.0,0.0,0.0,0.0,0.0,0.0,0.0,0.0,0.0,0.0,0.0,0.0,0.0,0.0,0.0,0.0,0.0,0.0,0.0,0.0,0.0,0.0,0.0,0.0,0.0,0.0,0.0,0.0,0.0,0.0,0.0,0.0,0.0,0.0,0.0,0.0,0.0,0.0,0.0,0.0,0.0,0.0,0.0,0.0,0.0,0.0,0.0,0.0,0.0,0.0,0.0,0.0,0.0,0.0,0.0,0.0,0.0,0.0,0.0,0.0,0.0,0.0,0.0,0.0,0.0,0.0,0.0,0.0,0.0,0.0,0.0,0.0,0.0,0.0,-1.5621,-1.4991,-1.4569,-1.4569,-1.4569,-1.4569,-1.4569,0.0,0.0,0.0,0.0,0.0,0.0,0.0,0.0,0.0,0.0,0.0,0.0,0.0,0.0,0.0,0.0,0.0,0.0,0.0,0.0,0.0,0.0,0.0,0.0,0.0,0.0,0.0,0.0,0.0,0.0,0.0,0.0,0.0,0.0,0.0,0.0,0.0,0.0,0.0,0.0,0.0,0.0,0.0,0.0,0.0,0.0,0.0,0.0,0.0,0.0,0.0,0.0,0.0,0.0,0.0,0.0,0.0,0.0,0.0,0.0,0.0,0.0,0.0,0.0,0.0,0.0,0.0,0.0,0.0,0.0,0.0,0.0,0.0,0.0,0.0,0.0,0.0,0.0,0.0,0.0,0.0,0.0,0.0,0.0,0.0,0.0,0.0,0.0,0.0,0.0,0.0,0.0,0.0,0.0,0.0,0.0,0.0,0.0,0.0,0.0,0.0,0.0,0.0,0.0,-1.5551,-1.4848,-1.4633,-1.4569,-1.4569,-1.4569,-1.4569,-1.4569,0.0,0.0,0.0,0.0,0.0,0.0,0.0,0.0,0.0,0.0,0.0,0.0,0.0,0.0,0.0,0.0,0.0,0.0,0.0,0.0,0.0,0.0,0.0,0.0,0.0,0.0,0.0,0.0,0.0,0.0,0.0,0.0,0.0,0.0,0.0,0.0,0.0,0.0,0.0,0.0,0.0,0.0,0.0,0.0,0.0,0.0,0.0,0.0,0.0,0.0,0.0,0.0,0.0,0.0,0.0,0.0,0.0,0.0,0.0,0.0,0.0,0.0,0.0,0.0,0.0,0.0,0.0,0.0,0.0,0.0,0.0,0.0,0.0,0.0,0.0,0.0,0.0,0.0,0.0,0.0,0.0,0.0,0.0,0.0,0.0,0.0,0.0,0.0,0.0,0.0,0.0,0.0,0.0,0.0,0.0,0.0,0.0,0.0,0.0,0.0,0.0,0.0,0.0,-1.5542,-1.4991,-1.4641,-1.4569,-1.4569,-1.4569,-1.4569,-1.4569,-1.4569,-1.4569,0.0,0.0,0.0,0.0,0.0,0.0,0.0,0.0,0.0,0.0,0.0,0.0,0.0,0.0,0.0,0.0,0.0,0.0,0.0,0.0,0.0,0.0,0.0,0.0,0.0,0.0,0.0,0.0,0.0,0.0,0.0,0.0,0.0,0.0,0.0,0.0,0.0,0.0,0.0,0.0,0.0,0.0,0.0,0.0,0.0,0.0,0.0,0.0,0.0,0.0,0.0,0.0,0.0,0.0,0.0,0.0,0.0,0.0,0.0,0.0,0.0,0.0,0.0,0.0,0.0,0.0,0.0,0.0,0.0,0.0,0.0,0.0,0.0,0.0,0.0,0.0,0.0,0.0,0.0,0.0,0.0,0.0,0.0,0.0,0.0,0.0,0.0,0.0,0.0,0.0,0.0,0.0,0.0,0.0,0.0,0.0,0.0,0.0,0.0,0.0,0.0,0.0,-1.4569,-1.4569,-1.4569,-1.4569,-1.4569,-1.4569,-1.4569,-1.4569,-1.4569,-1.4569,0.0,0.0,0.0,0.0,0.0,0.0,0.0,0.0,0.0,0.0,0.0,0.0,0.0,0.0,0.0,0.0,0.0,0.0,0.0,0.0,0.0,0.0,0.0,0.0,0.0,0.0,0.0,0.0,0.0,0.0,0.0,0.0,0.0,0.0,0.0,0.0,0.0,0.0,0.0,0.0,0.0,0.0,0.0,0.0,0.0,0.0,0.0,0.0,0.0,0.0,0.0,0.0,0.0,0.0,0.0,0.0,0.0,0.0,0.0,0.0,0.0,0.0,0.0,0.0,0.0,0.0,0.0,0.0,0.0,0.0,0.0,0.0,0.0,0.0,0.0,0.0,0.0,0.0,0.0,0.0,0.0,0.0,0.0,0.0,0.0,0.0,0.0,0.0,0.0,0.0,0.0,0.0,0.0,0.0,0.0,0.0,0.0,0.0,0.0,0.0,0.0,0.0,-1.4569,-1.4569,-1.4569,-1.4569,-1.4569,-1.4569,-1.4569,-1.4569,-1.4569,-1.4569,0.0,0.0,0.0,0.0,0.0,0.0,0.0,0.0,0.0,0.0,0.0,0.0,0.0,0.0,0.0,0.0,0.0,0.0,0.0,0.0,0.0,0.0,0.0,0.0,0.0,0.0,0.0,0.0,0.0,0.0,0.0,0.0,0.0,0.0,0.0,0.0,0.0,0.0,0.0,0.0,0.0,0.0,0.0,0.0,0.0,0.0,0.0,0.0,0.0,0.0,0.0,0.0,0.0,0.0,0.0,0.0,0.0,0.0,0.0,0.0,0.0,0.0,0.0,0.0,0.0,0.0,0.0,0.0,0.0,0.0,0.0,0.0,0.0,0.0,0.0,0.0,0.0,0.0,0.0,0.0,0.0,0.0,0.0,0.0,0.0,0.0,0.0,0.0,0.0,0.0,0.0,0.0,0.0,0.0,0.0,0.0,0.0,0.0,0.0,0.0,0.0,0.0,-1.4569,-1.4569,0.0,-1.4569,-1.4569,-1.4569,-1.4569,-1.4569,-1.4569,0.0,0.0,0.0,0.0,0.0,0.0,0.0,0.0,0.0,0.0,0.0,0.0,0.0,0.0,0.0,0.0,0.0,0.0,0.0,0.0,0.0,0.0,0.0,0.0,0.0,0.0,0.0,0.0,0.0,0.0,0.0,0.0,0.0,0.0,0.0,0.0,0.0,0.0,0.0,0.0,0.0,0.0,0.0,0.0,0.0,0.0,0.0,0.0,0.0,0.0,0.0,0.0,0.0,0.0,0.0,0.0,0.0,0.0,0.0,0.0,0.0,0.0,0.0,0.0,0.0,0.0,0.0,0.0,0.0,0.0,0.0,0.0,0.0,0.0,0.0,0.0,0.0,0.0,0.0,0.0,0.0,0.0,0.0,0.0,0.0,0.0,0.0,0.0,0.0,0.0,0.0,0.0,0.0,0.0,0.0,0.0,0.0,0.0,0.0,0.0,0.0,0.0,-1.4967,-1.4967,-1.4967,0.0,-1.4967,-1.4967,-1.4967,-1.4871,-1.4816,-1.4816,0.0,0.0,0.0,0.0,0.0,0.0,0.0,0.0,0.0,0.0,0.0,0.0,0.0,0.0,0.0,0.0,0.0,0.0,0.0,0.0,0.0,0.0,0.0,0.0,0.0,0.0,0.0,0.0,0.0,0.0,0.0,0.0,0.0,0.0,0.0,0.0,0.0,0.0,0.0,0.0,0.0,0.0,0.0,0.0,0.0,0.0,0.0,0.0,0.0,0.0,0.0,0.0,0.0,0.0,0.0,0.0,0.0,0.0,0.0,0.0,0.0,0.0,0.0,0.0,0.0,0.0,0.0,0.0,0.0,0.0,0.0,0.0,0.0,0.0,0.0,0.0,0.0,0.0,0.0,0.0,0.0,0.0,0.0,0.0,0.0,0.0,0.0,0.0,0.0,0.0,0.0,0.0,0.0,0.0,0.0,0.0,0.0,0.0,0.0,0.0,0.0,0.0,-1.5674,-1.5674,-1.5674,-1.5674,-1.5674,-1.5674,-1.5674,-1.538,-1.5189,0.0,0.0,0.0,0.0,0.0,0.0,0.0,0.0,0.0,0.0,0.0,0.0,0.0,0.0,0.0,0.0,0.0,0.0,0.0,0.0,0.0,0.0,0.0,0.0,0.0,0.0,0.0,0.0,0.0,0.0,0.0,0.0,0.0,0.0,0.0,0.0,0.0,0.0,0.0,0.0,0.0,0.0,0.0,0.0,0.0,0.0,0.0,0.0,0.0,0.0,0.0,0.0,0.0,0.0,0.0,0.0,0.0,0.0,0.0,0.0,0.0,0.0,0.0,0.0,0.0,0.0,0.0,0.0,0.0,0.0,0.0,0.0,0.0,0.0,0.0,0.0,0.0,0.0,0.0,0.0,0.0,0.0,0.0,0.0,0.0,0.0,0.0,0.0,0.0,0.0,0.0,0.0,0.0,0.0,0.0,0.0,0.0,0.0,0.0,0.0,0.0,0.0,0.0,-1.5674,-1.5674,-1.5674,-1.5674,-1.5674,-1.5674,-1.5674,-1.5586,-1.5531,-1.5531,0.0,0.0,0.0,0.0,0.0,0.0,0.0,0.0,0.0,0.0,0.0,0.0,0.0,0.0,0.0,0.0,0.0,0.0,0.0,0.0,0.0,0.0,0.0,0.0,0.0,0.0,0.0,0.0,0.0,0.0,0.0,0.0,0.0,0.0,0.0,0.0,0.0,0.0,0.0,0.0,0.0,0.0,0.0,0.0,0.0,0.0,0.0,0.0,0.0,0.0,0.0,0.0,0.0,0.0,0.0,0.0,0.0,0.0,0.0,0.0,0.0,0.0,0.0,0.0,0.0,0.0,0.0,0.0,0.0,0.0,0.0,0.0,0.0,0.0,0.0,0.0,0.0,0.0,0.0,0.0,0.0,0.0,0.0,0.0,0.0,0.0,0.0,0.0,0.0,0.0,0.0,0.0,0.0,0.0,0.0,0.0,0.0,0.0,0.0,0.0,0.0,0.0,-1.6103,-1.6103,-1.6103,-1.6103,-1.6103,-1.6103,-1.6103,-1.5968,-1.5888,-1.5888,0.0,0.0,0.0,0.0,0.0,0.0,0.0,0.0,0.0,0.0,0.0,0.0,0.0,0.0,0.0,0.0,0.0,0.0,0.0,0.0,0.0,0.0,0.0,0.0,0.0,0.0,0.0,0.0,0.0,0.0,0.0,0.0,0.0,0.0,0.0,0.0,0.0,0.0,0.0,0.0,0.0,0.0,0.0,0.0,0.0,0.0,0.0,0.0,0.0,0.0,0.0,0.0,0.0,0.0,0.0,0.0,0.0,0.0,0.0,0.0,0.0,0.0,0.0,0.0,0.0,0.0,0.0,0.0,0.0,0.0,0.0,0.0,0.0,0.0,0.0,0.0,0.0,0.0,0.0,0.0,0.0,0.0,0.0,0.0,0.0,0.0,0.0,0.0,0.0,0.0,0.0,0.0,0.0,0.0,0.0,0.0,0.0,0.0,0.0,0.0,0.0,0.0,-1.673,-1.6738,-1.673,-1.673,-1.673,-1.673,-1.673,-1.6436,-1.6254,-1.6254,0.0,0.0,0.0,0.0,0.0,0.0,0.0,0.0,0.0,0.0,0.0,0.0,0.0,0.0,0.0,0.0,0.0,0.0,0.0,0.0,0.0,0.0,0.0,0.0,0.0,0.0,0.0,0.0,0.0,0.0,0.0,0.0,0.0,0.0,0.0,0.0,0.0,0.0,0.0,0.0,0.0,0.0,0.0,0.0,0.0,0.0,0.0,0.0,0.0,0.0,0.0,0.0,0.0,0.0,0.0,0.0,0.0,0.0,0.0,0.0,-1.8253,0.0,0.0,0.0,0.0,0.0,0.0,0.0,0.0,0.0,0.0,0.0,0.0,0.0,0.0,0.0,0.0,0.0,0.0,0.0,0.0,0.0,0.0,0.0,0.0,0.0,0.0,0.0,0.0,0.0,0.0,0.0,0.0,0.0,0.0,0.0,0.0,0.0,0.0,0.0,0.0,0.0,-1.7229,-1.6902,-1.673,-1.673,-1.673,-1.673,-1.673,-1.6667,-1.6619,-1.6619,0.0,0.0,0.0,0.0,0.0,0.0,0.0,0.0,0.0,0.0,0.0,0.0,0.0,0.0,0.0,0.0,0.0,0.0,0.0,0.0,0.0,0.0,0.0,0.0,0.0,0.0,0.0,0.0,0.0,0.0,0.0,0.0,0.0,0.0,0.0,0.0,0.0,0.0,0.0,0.0,0.0,0.0,0.0,0.0,0.0,0.0,0.0,0.0,0.0,0.0,0.0,0.0,0.0,0.0,0.0,0.0,0.0,0.0,0.0,0.0,0.0,-1.8378,0.0,0.0,0.0,0.0,0.0,0.0,0.0,0.0,0.0,0.0,0.0,0.0,0.0,0.0,0.0,0.0,0.0,0.0,0.0,0.0,0.0,0.0,0.0,0.0,0.0,0.0,0.0,0.0,0.0,0.0,0.0,0.0,0.0,0.0,0.0,0.0,0.0,0.0,0.0,0.0,-1.7066,-1.682,-1.673,-1.673,-1.673,-1.673,-1.673,-1.673,-1.673,-1.673,-1.6563,0.0,0.0,0.0,0.0,0.0,0.0,0.0,0.0,0.0,0.0,0.0,0.0,0.0,0.0,0.0,0.0,0.0,0.0,0.0,0.0,0.0,0.0,0.0,0.0,0.0,0.0,0.0,0.0,0.0,0.0,0.0,0.0,0.0,0.0,0.0,0.0,0.0,0.0,0.0,0.0,0.0,0.0,0.0,0.0,0.0,0.0,0.0,0.0,0.0,0.0,0.0,0.0,0.0,-1.8172,-1.8255,-1.8264,-1.8646,-1.847,-1.7811,-1.7733,-1.7462,-1.709,0.0,0.0,0.0,0.0,0.0,0.0,0.0,0.0,0.0,0.0,0.0,0.0,0.0,0.0,0.0,0.0,0.0,0.0,0.0,0.0,0.0,0.0,0.0,0.0,0.0,-1.682,-1.674,0.0,0.0,0.0,0.0,0.0,0.0,0.0,0.0,0.0,0.0,0.0,0.0,-1.6902,-1.6738,-1.673,-1.673,-1.673,-1.673,-1.673,-1.673,-1.673,-1.673,-1.673,-1.673,0.0,0.0,0.0,0.0,0.0,0.0,0.0,0.0,0.0,0.0,0.0,0.0,0.0,0.0,0.0,0.0,0.0,0.0,0.0,0.0,0.0,0.0,0.0,0.0,0.0,0.0,0.0,0.0,0.0,0.0,0.0,0.0,-1.9198,-1.9131,0.0,0.0,0.0,0.0,0.0,0.0,0.0,0.0,0.0,0.0,0.0,0.0,0.0,-1.8847,-1.91,-1.832,-1.8011,-1.8011,-1.7276,-1.6985,-1.6985,-1.7033,-1.6968,-1.6886,-1.6871,0.0,-1.7852,-1.7931,0.0,0.0,0.0,0.0,0.0,0.0,0.0,0.0,0.0,0.0,0.0,0.0,0.0,0.0,0.0,0.0,0.0,0.0,0.0,0.0,0.0,0.0,-1.6756,-1.7221,-1.731,-1.7375,0.0,-1.7188,-1.682,-1.7229,-1.7066,0.0,0.0,0.0,0.0,0.0,0.0,0.0,-1.7351,-1.6984,-1.673,-1.673,-1.673,-1.673,-1.673,-1.673,-1.673,-1.673,-1.673,-1.673,-1.673,-1.6026,0.0,0.0,0.0,0.0,0.0,0.0,0.0,0.0,0.0,0.0,0.0,0.0,0.0,0.0,0.0,0.0,0.0,0.0,0.0,0.0,0.0,0.0,0.0,0.0,0.0,0.0,0.0,0.0,0.0,-1.9458,-1.9551,-1.9799,-2.0006,-2.0131,0.0,0.0,0.0,0.0,0.0,0.0,0.0,0.0,0.0,-1.9008,-1.8547,-1.8153,-1.7836,-1.7448,-1.7286,-1.7294,-1.7103,-1.704,-1.7048,-1.7231,-1.7318,-1.7318,-1.7318,-1.7564,-1.7861,-1.745,-1.7521,-1.7917,0.0,0.0,0.0,0.0,-1.9107,-1.855,-1.855,-1.8238,0.0,-1.7844,0.0,0.0,0.0,0.0,0.0,0.0,0.0,0.0,0.0,0.0,0.0,-1.8322,-1.8406,-1.8489,-1.8656,-1.8397,-1.8087,0.0,-1.8262,-1.8708,-1.9207,0.0,0.0,0.0,0.0,0.0,-1.7681,-1.7488,-1.7318,-1.7318,-1.7151,-1.704,-1.704,-1.6849,-1.673,-1.673,-1.673,-1.673,-1.673,-1.6402,-1.5831,0.0,0.0,0.0,0.0,0.0,0.0,0.0,0.0,0.0,0.0,0.0,0.0,0.0,0.0,0.0,0.0,0.0,0.0,0.0,0.0,0.0,0.0,0.0,0.0,0.0,0.0,0.0,0.0,-1.9934,-2.0058,-2.0379,-2.0309,-2.038,0.0,0.0,0.0,0.0,0.0,0.0,-2.0207,-2.0216,-1.9794,-1.878,-1.8386,-1.7794,-1.7,-1.7242,-1.7242,-1.7008,-1.7278,-1.7405,-1.7413,-1.766,-1.7771,-1.7771,-1.7771,-1.7771,-1.7731,-1.7215,-1.7,-1.7084,-1.7804,-1.8042,-1.8042,-1.8769,-1.8606,-1.796,-1.796,-1.7482,-1.7,-1.7,0.0,-1.7747,-1.8051,0.0,0.0,0.0,0.0,-1.9287,-1.9229,-1.9221,-1.9221,-1.9307,-1.9392,-1.9392,-1.9478,-1.9641,-1.9512,0.0,-1.9295,-1.9786,-2.0063,0.0,0.0,0.0,0.0,-1.8737,-1.8213,-1.8197,-1.811,-1.8032,-1.772,-1.7576,-1.7405,-1.708,-1.6873,-1.6873,-1.6786,-1.673,-1.673,-1.6402,-1.5816,-1.4985,0.0,0.0,0.0,0.0,0.0,0.0,0.0,0.0,0.0,0.0,0.0,0.0,0.0,0.0,0.0,0.0,0.0,0.0,0.0,0.0,0.0,0.0,0.0,0.0,0.0,0.0,0.0,0.0,0.0,-2.042,-2.0146,0.0,0.0,0.0,0.0,-2.1614,-2.169,-2.0991,-1.9413,-1.9335,-1.8726,-1.7407,-1.8221,-1.8381,-1.7715,-1.8657,-1.8657,-1.7715,-1.7739,-1.7747,-1.7747,-1.7763,-1.7771,-1.7771,-1.7771,-1.7771,-1.7763,-1.7731,-1.7715,-1.7802,-1.8226,-1.814,-1.7889,-1.8313,-1.814,-1.7802,-1.7802,-1.7802,-1.7715,-1.7715,-1.8062,-1.8313,-1.8399,-1.8742,0.0,0.0,-1.923,-1.923,-1.9221,-1.9221,-1.9307,-1.975,-1.9835,-2.0005,-2.0343,-2.072,-2.0607,0.0,-1.9213,-1.9514,-2.035,0.0,-2.0421,-2.0421,-2.0412,-2.0096,-1.9273,-1.9136,-1.8965,-1.8473,-1.8456,-1.8275,-1.7834,-1.7445,-1.7254,-1.7254,-1.6921,-1.673,-1.673,-1.5484,-1.5068,-1.565,-1.3795,0.0,0.0,0.0,0.0,0.0,0.0,0.0,0.0,0.0,0.0,0.0,0.0,0.0,0.0,0.0,0.0,0.0,0.0,0.0,0.0,0.0,0.0,0.0,0.0,0.0,0.0,0.0,0.0,-2.128,-2.123,0.0,0.0,-2.0921,-2.0732,-2.1342,-2.144,-2.1243,-2.1024,-2.0962,-2.0784,-2.0283,-1.9437,-1.8914,-1.8707,-1.8448,-1.811,-1.7771,-1.8001,-1.8112,-1.812,-1.8351,-1.8446,-1.8446,-1.8446,-1.8446,-1.8446,-1.8446,-1.8184,-1.7771,-1.7945,-1.7945,-1.7858,-1.7945,-1.7945,-1.7771,-1.7771,-1.7771,-1.7858,-1.8473,-1.881,-1.8965,-1.923,-1.923,-1.9282,-1.9895,-2.0061,-2.0114,-2.0703,-2.0853,-2.0853,-2.1038,-2.1038,-2.1125,-2.1213,-2.141,-2.1377,-2.088,-2.0853,-2.0898,-2.1237,-2.098,-2.0802,-2.0802,-2.0534,-2.0223,-1.9987,-1.9881,-1.9703,-1.9256,-1.896,-1.8643,-1.8201,-1.7795,-1.7596,-1.7596,-1.727,-1.7088,-1.7088,-1.5936,-1.5235,-1.5068,-1.3893,-1.3222,0.0,0.0,0.0,0.0,0.0,0.0,0.0,0.0,0.0,0.0,0.0,0.0,0.0,0.0,0.0,0.0,0.0,0.0,0.0,0.0,0.0,0.0,0.0,0.0,0.0,0.0,-2.1305,-2.1375,-2.147,-2.1716,-2.2035,-2.137,-2.1183,-2.1799,-2.19,-2.1868,-2.1909,-2.1928,-2.1821,-2.1707,-2.0516,-1.9903,-2.0035,-1.9425,-1.9075,-1.9075,-1.9059,-1.9003,-1.9011,-1.8808,-1.8827,-1.8827,-1.8827,-1.8827,-1.8827,-1.8827,-1.8549,-1.8128,-1.8128,-1.8128,-1.8128,-1.8128,-1.8209,-1.8386,-1.8571,-1.8652,-1.8748,-1.9372,-1.9538,-1.9608,-1.9965,-1.9791,-1.9756,-2.0466,-2.0633,-2.0873,-2.1489,-2.1741,-2.1741,-2.1741,-2.1741,-2.1741,-2.1741,-2.1741,-2.1741,-2.1741,-2.1741,-2.1741,-2.1741,-2.1454,-2.1275,-2.1275,-2.1006,-2.0744,-2.0555,-2.0555,-2.0283,-1.9646,-1.934,-1.902,-1.8478,-1.8152,-1.7946,-1.7946,-1.7628,-1.7397,-1.7286,-1.6214,-1.5452,-1.5068,-1.4153,-1.3392,-1.2705,0.0,0.0,0.0,0.0,0.0,0.0,0.0,0.0,0.0,0.0,0.0,0.0,0.0,0.0,0.0,0.0,0.0,0.0,0.0,0.0,0.0,0.0,0.0,-2.0459,-2.1262,-2.1512,-2.0644,-2.0947,-2.162,-2.2433,-2.217,-2.2267,-2.3124,-2.3205,-2.288,-2.205,-2.1967,-2.1726,-2.1349,-2.129,-2.1406,-2.1793,-2.1731,-2.1731,-2.1731,-2.0835,-2.0374,-2.0382,-1.9304,-1.8859,-1.8859,-1.8859,-1.8859,-1.8859,-1.8859,-1.8859,-1.8859,-1.8835,-1.8827,-1.8827,-1.8827,-1.9096,-1.9637,-2.0102,-2.0292,-2.0292,-2.0292,-2.0292,-2.0382,-2.0382,-2.0382,-2.0464,-2.0907,-2.0997,-2.1087,-2.1553,-2.1741,-2.1741,-2.1741,-2.1741,-2.1741,-2.1741,-2.1741,-2.1741,-2.1741,-2.1741,-2.1741,-2.1741,-2.1741,-2.1741,-2.1741,-2.1741,0.0,-2.1087,-2.0997,-2.0637,-1.9729,-1.9637,-1.9463,-1.8827,-1.851,-1.8319,-1.8319,-1.7985,-1.7644,-1.7326,-1.6206,-1.5625,-1.568,-1.4405,-1.3392,-1.2705,0.0,0.0,0.0,0.0,0.0,0.0,0.0,0.0,0.0,0.0,0.0,0.0,0.0,0.0,0.0,0.0,0.0,0.0,0.0,0.0,0.0,0.0,-2.0829,-2.0508,-2.0977,-2.15,-2.1903,-2.238,-2.2746,-2.2998,-2.295,-2.3074,-2.366,-2.3691,-2.3742,-2.3798,-2.3107,-2.2985,-2.3553,-2.2625,-2.2475,-2.3207,-2.2143,-2.1915,-2.2658,-2.1635,-2.1541,-2.2186,-2.1268,-2.0805,-2.071,-1.9957,-1.9774,-2.0172,-2.0172,-2.0458,-2.0582,-1.9305,-1.8827,-1.8827,-1.8827,-1.892,-1.9096,-2.0019,-2.0292,-2.0382,-2.0736,-2.1006,-2.1284,-2.1284,-2.1284,-2.1374,-2.1463,-2.1553,-2.1553,-2.1642,-2.1741,-2.1741,-2.1741,-2.1741,-2.1741,-2.1741,-2.1741,-2.1741,-2.1741,-2.1741,-2.1741,-2.1741,-2.1741,-2.1741,-2.1741,-2.1741,0.0,-2.1553,-2.1553,-2.1275,-2.0727,-2.0637,-2.0275,-1.9455,-1.9281,-1.9042,-1.8684,-1.8351,-1.8112,-1.8025,-1.706,-1.6162,-1.5404,-1.426,-1.3652,0.0,0.0,0.0,0.0,0.0,0.0,0.0,0.0,0.0,0.0,0.0,0.0,0.0,0.0,0.0,0.0,0.0,0.0,0.0,0.0,0.0,0.0,-2.114,-2.0482,-2.1043,-2.0966,-2.1211,-2.212,-2.2594,-2.3032,-2.3474,-2.365,-2.3867,-2.4136,-2.4157,-2.4353,-2.4809,-2.4287,-2.4358,-2.5099,-2.3896,-2.3751,-2.4656,-2.3428,-2.3271,-2.42,-2.3261,-2.2793,-2.2887,-2.1951,-2.1292,0.0,-2.0152,-2.0063,-2.0362,-2.0564,-2.0757,0.0,0.0,0.0,0.0,0.0,-1.9729,-1.982,-2.0645,-2.0925,-2.0925,-2.1186,-2.1463,-2.1741,-2.1741,-2.1741,-2.1741,-2.1741,-2.1741,-2.1741,-2.1741,-2.1741,-2.1741,-2.1741,-2.1741,-2.1741,-2.1741,-2.1741,-2.1741,-2.1741,-2.1741,0.0,-2.1741,-2.1741,-2.1741,-2.1741,-2.1741,-2.1642,-2.1454,-2.1374,-2.1275,-2.0736,-2.0546,-2.0184,-1.9646,-1.9371,0.0,0.0,0.0,-1.8336,-1.8055,-1.7227,0.0,0.0,0.0,-1.3848,-1.3737,0.0,0.0,0.0,-1.2378,-1.2281,0.0,0.0,0.0,0.0,0.0,0.0,0.0,0.0,0.0,0.0,0.0,0.0,0.0,0.0,0.0,0.0,-2.0398,-1.9906,-2.164,-2.1044,-2.0857,-2.2007,-2.2443,-2.2964,-2.3866,-2.4353,-2.4623,-2.4623,-2.4664,-2.4871,-2.5285,0.0,0.0,0.0,0.0,-2.5025,-2.6048,-2.5167,-2.5095,-2.603,-2.5105,-2.4159,-2.3392,-2.2265,-2.1227,-2.0362,-2.0175,-2.0175,-2.0273,-2.0776,-2.0751,-2.037,-2.0771,-2.0908,-2.0959,-2.1072,-2.113,-2.113,-2.1689,0.0,0.0,-2.1788,-2.1841,-2.1805,-2.1805,-2.1777,-2.1741,-2.1741,-2.1741,-2.1741,-2.1741,-2.1741,-2.1741,-2.1741,-2.1741,-2.1741,-2.1741,-2.1741,-2.1741,-2.1741,-2.1741,-2.1741,-2.1741,-2.1741,-2.1741,-2.1741,-2.1741,-2.1553,-2.1087,-2.1087,-2.0916,-2.0473,0.0,0.0,-1.9637,-1.9188,-1.8827,-1.8827,-1.8827,-1.8542,-1.7878,-1.7274,-1.6588,-1.5796,-1.4865,-1.4143,-1.3698,-1.3095,-1.2735,-1.2705,-1.2705,-1.2443,0.0,0.0,0.0,0.0,0.0,0.0,0.0,0.0,0.0,0.0,0.0,0.0,0.0,0.0,0.0,-2.1258,-2.0884,-2.0916,-2.1586,-2.1553,-2.1957,-2.3357,-2.3873,-2.4139,-2.433,-2.483,-2.5099,-2.5099,-2.542,-2.5658,-2.5751,-2.5018,0.0,-2.6166,-2.5675,-2.5765,-2.6823,-2.6118,-2.6205,-2.6993,0.0,0.0,-2.6405,-2.4444,-2.3466,-2.3269,-2.1904,-2.1611,-2.2012,-2.2611,-2.2823,-2.2699,-2.1272,-2.1033,-2.1397,-2.1784,-2.1758,-2.1492,-2.2339,-2.2432,-2.2142,-2.2526,-2.2492,-2.2208,-2.2208,-2.1988,0.0,-2.1741,-2.1741,-2.1741,-2.1741,-2.1741,-2.1741,-2.1741,-2.1741,-2.1741,-2.1741,-2.1741,-2.1741,-2.1741,-2.1741,-2.1741,-2.1741,-2.1741,-2.1741,-2.1741,-2.1741,-2.1642,-2.1553,-2.1553,-2.1553,-2.1463,-2.1006,-2.0546,-2.0201,-1.9737,-1.9279,-1.8827,-1.8827,-1.8735,-1.8542,-1.8242,-1.7655,-1.695,-1.5899,-1.4886,-1.3989,-1.3386,-1.2928,-1.2705,-1.2705,-1.2619,0.0,0.0,0.0,0.0,0.0,0.0,0.0,0.0,0.0,0.0,0.0,-2.2553,0.0,0.0,-2.1749,-2.2044,-2.1295,-2.0926,-2.1578,-2.1869,-2.2387,-2.3368,-2.3881,-2.4338,-2.4794,-2.5295,-2.5643,-2.5743,-2.5951,-2.626,-2.6561,-2.6196,-2.6218,-2.6938,-2.6692,-2.6711,-2.7118,-2.6843,-2.686,-2.7262,-2.6774,-2.6572,-2.6658,-2.5567,-2.4865,-2.4454,-2.3574,-2.3375,-2.3683,-2.3502,-2.361,-2.3724,-2.2449,-2.2047,-2.2194,-2.247,-2.2375,-2.2289,-2.2762,-2.2762,-2.2564,-2.2857,-2.272,-2.2639,-2.2639,-2.2769,-2.2884,-2.2884,-2.3148,-2.3509,-2.3509,-2.3509,-2.3451,-2.314,-2.2824,-2.2509,-2.2311,-2.2008,-2.1741,-2.1741,-2.1741,-2.1741,-2.1741,-2.1741,-2.1741,-2.1741,-2.1741,-2.1741,-2.1741,-2.1741,-2.1741,-2.1741,-2.1096,-2.0555,-2.0292,-1.9646,-1.9104,-1.8827,-1.8827,-1.8827,-1.8827,-1.8653,-1.8115,-1.7228,-1.6328,-1.5369,-1.4281,-1.3447,-1.3055,-1.291,-1.2771,-1.2705,0.0,0.0,0.0,0.0,0.0,0.0,0.0,0.0,-2.3205,-2.2869,-2.2739,-2.2829,-2.3372,-2.2621,-2.2138,-2.2746,-2.1587,-2.0907,-2.1715,-2.2189,-2.2662,-2.3113,-2.3751,-2.4337,-2.4992,-2.5661,-2.61,-2.6483,-2.6567,-2.6858,-2.7402,-2.7423,-2.7418,-2.7715,-2.7631,-2.7536,-2.7441,-2.7441,-2.7441,-2.7441,-2.7441,-2.7136,-2.6436,-2.6244,-2.5741,-2.513,-2.5032,-2.5032,-2.5032,-2.4464,-2.4402,-2.4637,-2.4125,-2.3828,-2.355,-2.3275,-2.3189,-2.3189,-2.3189,-2.3189,-2.3189,-2.3189,-2.3229,-2.325,-2.307,-2.3476,-2.4063,-2.3877,-2.4331,-2.4884,-2.5077,-2.5077,-2.4977,-2.4516,-2.3977,-2.3438,-2.2933,-2.2264,-2.1851,-2.1851,-2.1786,-2.1741,-2.1741,-2.1741,-2.1741,-2.1741,-2.1741,-2.1741,-2.1741,-2.1741,-2.1741,-2.1741,-2.0916,-2.0374,-2.0201,-1.9379,-1.8827,-1.8827,-1.8827,-1.8827,-1.8827,-1.8827,-1.8325,-1.7325,-1.6663,-1.5677,-1.4572,-1.3733,-1.3254,-1.3194,-1.2916,-1.2753,-2.2467,-2.2628,-2.2724,-2.3154,-2.315,-2.2898,0.0,0.0,-2.3114,-2.1722,-2.2621,-2.3382,-2.2183,-2.2454,-2.2658,-2.1961,-2.1695,-2.1733,-2.2281,-2.2646,-2.307,-2.3585,-2.4408,-2.4886,-2.4764,-2.5635,-2.6475,-2.7119,-2.7604,-2.7859,-2.7913,-2.7735,-2.7673,-2.7998,-2.7726,-2.7726,-2.7904,-2.7904,-2.7904,-2.7904,-2.7904,-2.7893,-2.7799,-2.6819,-2.633,-2.6224,-2.5741,-2.5848,-2.635,-2.6254,-2.6254,-2.6264,-2.6167,-2.6098,-2.5922,-2.4594,-2.4015,-2.4015,-2.4015,-2.4015,-2.4015,-2.4015,-2.4253,-2.4326,-2.3666,-2.3796,-2.397,-2.3233,-2.3139,-2.3327,-2.4063,-2.4239,-2.4229,-2.4181,-2.4079,-2.3792,-2.301,-2.252,-2.2263,-2.2263,-2.1979,-2.1741,-2.1741,-2.1741,-2.1741,-2.1741,-2.1741,-2.1741,-2.1741,-2.1741,-2.1741,-2.1741,-2.1275,-2.0546,-1.9729,-1.9096,-1.8827,-1.8827,-1.8827,-1.8827,-1.8827,-1.8827,-1.8434,-1.7639,-1.6901,-1.5999,-1.4963,-1.4198,-1.3701,-1.3465,-1.32,-1.2946,-2.2478,-2.2756,0.0,0.0,-2.3451,-2.3664,-2.3423,-2.3764,-2.3928,-2.3488,-2.3529,-2.3675,-2.376,-2.3444,-2.2999,0.0,-2.2424,-2.237,-2.0916,-2.2526,-2.3627,-2.3026,-2.4517,-2.5625,-2.5531,-2.6579,-2.742,-2.7689,-2.8079,-2.8196,-2.8196,-2.829,-2.829,-2.8196,-2.8113,-2.8147,-2.8402,-2.8402,-2.8551,-2.8838,-2.8838,-2.8786,-2.8614,-2.8211,-2.7957,-2.7788,-2.7589,-2.74,-2.7115,-2.7115,-2.6924,-2.6456,-2.6456,-2.6456,-2.6456,-2.5781,-2.5206,-2.4815,-2.4815,-2.4529,-2.4152,-2.4152,-2.4328,-2.4472,-2.456,-2.5006,-2.5441,-2.5061,-2.5336,-2.562,-2.5535,-2.5809,-2.5936,-2.5218,-2.5438,-2.5358,-2.3916,-2.3447,-2.3241,-2.2787,-2.2355,-2.208,-2.208,-2.1887,-2.1741,-2.1741,-2.1741,-2.1741,-2.1741,-2.1741,-2.1642,-2.1365,-2.0916,-2.0283,-1.9637,-1.9104,-1.8827,-1.8827,-1.8827,-1.8827,-1.8827,-1.8357,-1.7978,-1.7692,-1.6473,-1.5664,-1.5256,-1.4353,-1.3851,-1.3737,-1.3471,-1.329,-2.2917,0.0,0.0,-2.3624,-2.41,-2.4479,-2.4534,-2.4724,-2.4786,-2.4605,-2.4231,-2.4049,-2.4573,-2.3963,0.0,-2.2746,-2.3102,-2.2866,-2.1258,-2.3061,-2.4297,-2.3532,-2.5286,-2.6526,-2.6578,-2.7411,-2.7987,-2.8186,-2.8384,-2.8488,-2.8488,-2.8794,-2.8777,-2.8599,-2.8634,-2.8764,-2.8988,-2.8988,-2.9278,-2.973,-2.973,-2.9547,-2.9407,-2.9407,-2.9308,-2.915,-2.9019,-2.8661,-2.8063,-2.7935,-2.76,-2.7125,-2.7125,-2.7125,-2.7125,-2.7125,-2.6542,-2.5586,-2.5586,-2.5304,-2.4833,-2.4529,-2.4627,-2.4824,-2.4913,-2.5586,-2.6167,-2.6167,-2.6542,-2.6914,-2.6552,-2.6935,-2.7032,-2.5864,-2.6067,-2.6164,-2.4636,-2.4116,-2.3862,-2.3485,-2.287,-2.2465,-2.2346,-2.2089,-2.186,-2.175,-2.1741,-2.1741,-2.1741,-2.1741,-2.1553,-2.1266,-2.0645,-2.0201,-1.9828,-1.9188,-1.8827,-1.8827,-1.8827,-1.8827,-1.8827,-1.8257,-1.7878,-1.7692,-1.6379,-1.5629,-1.5432,-1.4477,-1.4014,-1.4008,-1.3749,-1.3622,0.0,0.0,-2.4574,-2.5022,-2.5153,-2.5213,-2.5525,-2.5549,-2.5211,-2.4059,-2.4498,-2.484,-2.3694,-2.3434,-2.3617,-2.4272,-2.3447,-2.3224,-2.4693,-2.5036,-2.5281,-2.5925,-2.6924,-2.7589,0.0,-2.7579,-2.7977,-2.8757,-2.8757,-2.8757,-2.8757,-2.9026,-2.9095,-2.9095,-2.9353,-2.9588,-2.9764,-2.9774,-2.9883,-3.022,-3.022,-3.0199,-3.0199,-3.0199,-3.0177,-3.0144,-2.9674,-2.9456,-2.9423,-2.8953,-2.8757,-2.8746,-2.8746,-2.8746,-2.8746,-2.8746,-2.7799,-2.6456,-2.6456,-2.6456,-2.6264,-2.5489,-2.5771,-2.6167,-2.4637,-2.4726,-2.5294,-2.5294,-2.5392,-2.5586,-2.6254,-2.6552,-2.635,-2.547,-2.5373,-2.5363,-2.5256,-2.4369,-2.3712,-2.4469,-2.3673,-2.2711,-2.2392,-2.2318,-2.2171,-2.1796,-2.1741,-2.1741,-2.1741,-2.1741,-2.1731,-2.1651,-2.0835,-2.0292,-2.0292,-1.9371,-1.8827,-1.8827,-1.8827,-1.8827,-1.8827,-1.8735,-1.845,-1.7684,-1.6951,-1.6204,-1.5432,-1.4669,-1.4286,-1.428,-1.4014,-1.3894,0.0,0.0,-2.4978,-2.5131,-2.5333,-2.5449,-2.5611,-2.5464,-2.5285,-2.5031,-2.5211,-2.5476,-2.5518,-2.5146,-2.4964,-2.5217,-2.5255,-2.5128,-2.4623,-2.565,-2.6476,-2.6607,-2.72,0.0,0.0,0.0,0.0,-2.8488,-2.8969,-2.9143,-2.8964,-2.9515,-2.9872,-2.9872,-2.9938,-3.0166,-3.0558,-3.0558,-3.0721,-3.1149,-3.0821,-3.0657,-3.0657,-3.0351,-3.0209,-3.0209,-3.0035,-2.9969,-2.9958,-2.9784,-2.9532,-2.9237,-2.9237,-2.9041,-2.8757,-2.8757,-2.8466,-2.7987,-2.741,-2.6924,-2.6456,-2.6157,-2.6264,-2.636,-2.5877,-2.5877,-2.6071,-2.6071,-2.6071,-2.6071,-2.5771,-2.6061,-2.6167,-2.4922,-2.5401,-2.5781,-2.4824,-2.4613,-2.4607,-2.4422,-2.3814,-2.3299,-2.3153,-2.2914,-2.2602,-2.219,-2.1906,-2.1741,-2.1741,-2.1741,-2.1553,-2.1275,-2.0645,-2.0192,-1.9828,-1.9196,-1.8827,-1.8827,-1.8827,-1.8827,-1.8827,-1.835,-1.7971,-1.7692,-1.6473,-1.5629,-1.5432,-1.4675,-1.4298,-1.4292,-1.4208,-1.4165,0.0,-2.5207,-2.5426,-2.5426,-2.5583,-2.5738,-2.5738,-2.5559,-2.5464,-2.5644,-2.5869,-2.6086,-2.64,-2.598,-2.5717,-2.5951,-2.6281,-2.6206,-2.5233,-2.6627,-2.76,-2.7179,-2.7673,0.0,0.0,0.0,0.0,-2.882,-2.9219,-2.9469,-2.9451,-3.0101,-3.0461,-3.0461,-3.0624,-3.0865,-3.1149,-3.1149,-3.1313,-3.1618,-3.1302,-3.1149,-3.1149,-3.0854,-3.0712,-3.0712,-3.0526,-3.0461,-3.045,-3.0286,-3.0024,-2.974,-2.974,-2.9554,-2.9248,-2.9074,-2.9019,-2.8986,-2.8228,-2.7694,-2.7315,-2.703,-2.6924,-2.6829,-2.6552,-2.6264,-2.6167,-2.6456,-2.6456,-2.636,-2.5868,-2.635,-2.6542,-2.4922,-2.5401,-2.5781,-2.4824,-2.4726,-2.4815,-2.4627,-2.4128,-2.3712,-2.3574,-2.3217,-2.2765,-2.2593,-2.2208,-2.1896,-2.175,-2.1553,-2.1365,-2.0997,-2.0456,-1.992,-1.9646,-1.9104,-1.8827,-1.8827,-1.8827,-1.8827,-1.8827,-1.8357,-1.7971,-1.7692,-1.6473,-1.5724,-1.5432,-1.4675,-1.4298,-1.4298,-1.4298,-1.4298,-2.5775,-2.5895,-2.5895,-2.5895,-2.5895,-2.5895,-2.5895,-2.5895,-2.5906,-2.5928,-2.631,-2.6563,0.0,0.0,-2.5965,-2.67,-2.6574,-2.6455,-2.6692,-2.7907,-2.856,0.0,0.0,0.0,0.0,0.0,0.0,-2.9489,0.0,-2.974,-3.022,-3.0679,-3.093,-3.093,-3.1389,-3.1618,-3.1618,-3.1618,-3.1618,-3.1618,-3.1618,-3.1618,-3.1618,-3.1618,-3.1618,-3.1597,-3.1138,-3.093,-3.0898,-3.0461,-3.0275,-3.0253,-3.0253,-3.0231,-3.0155,-2.9685,-2.9521,-2.9456,-2.8997,-2.879,-2.8653,-2.7882,-2.7683,-2.7494,-2.6733,-2.6071,-2.5586,-2.6264,-2.6456,-2.6456,-2.6456,-2.702,-2.7105,-2.5577,-2.5294,-2.5294,-2.5294,-2.4726,-2.444,-2.5099,-2.4726,-2.4033,-2.3639,-2.3244,-2.2893,-2.2893,-2.2621,-2.2217,-2.1814,-2.1284,-2.0997,-2.0997,-2.0184,-1.9637,-1.9546,-1.9096,-1.8827,-1.8827,-1.8827,-1.8827,-1.8827,-1.8827,-1.845,-1.7684,-1.6951,-1.6197,-1.5432,-1.4675,-1.4298,-1.4298,-1.4298,-1.4298,-2.5874,-2.5895,-2.5895,-2.5895,-2.5895,-2.5895,-2.5895,-2.5895,-2.6005,-2.6376,-2.654,-2.6759,0.0,0.0,0.0,-2.8093,-2.7915,0.0,-2.8147,-2.8588,0.0,0.0,0.0,-2.8757,-2.8757,-2.9085,0.0,0.0,-3.0024,-3.0231,-3.0701,-3.1181,-3.1433,-3.1433,-3.1564,-3.1618,-3.1618,-3.1618,-3.1618,-3.1618,-3.1618,-3.1618,-3.1618,-3.1618,-3.1618,-3.1618,-3.1487,-3.1433,-3.1433,-3.1313,-3.105,-3.0723,-3.0723,-3.0515,-3.0199,-3.0078,-3.0024,-3.0002,-2.9882,-2.9368,-2.8757,-2.856,-2.8466,-2.8362,-2.76,-2.721,-2.6914,-2.6648,-2.6456,-2.636,-2.5781,-2.6157,-2.636,-2.4824,-2.4913,-2.5099,-2.4637,-2.435,-2.4251,-2.444,-2.435,-2.4115,-2.4015,-2.3666,-2.3391,-2.3391,-2.2957,-2.2648,-2.2226,-2.1825,-2.1275,-2.0555,-2.0292,-1.9828,-1.9104,-1.892,-1.8827,-1.8827,-1.8827,-1.8827,-1.8827,-1.8827,-1.845,-1.7684,-1.6951,-1.6197,-1.5432,-1.4675,-1.4298,-1.4298,-1.4298,-1.4298,-2.5895,-2.5895,-2.5895,-2.5895,-2.5895,-2.5895,-2.5895,-2.5895,-2.6037,-2.6529,-2.6791,0.0,0.0,0.0,0.0,0.0,0.0,0.0,-2.8724,-2.8757,-2.8757,0.0,-2.8757,0.0,-2.8757,-2.9194,-2.9685,0.0,-3.0395,-3.0712,-3.1192,-3.1476,-3.1618,-3.1618,-3.1618,-3.1618,-3.1618,-3.1618,-3.1618,-3.1618,-3.1618,-3.1618,-3.1618,-3.1618,-3.1618,-3.1618,0.0,-3.1618,-3.1618,-3.1618,-3.1465,-3.1214,-3.1214,-3.1061,-3.081,-3.0592,-3.0515,-3.0482,-3.0286,-2.986,-2.9358,-2.9139,-2.9074,-2.8936,-2.8333,-2.7882,-2.7494,-2.7115,-2.6733,-2.636,-2.5964,-2.6167,-2.6264,-2.5401,-2.5304,-2.5197,-2.4726,-2.444,-2.4152,-2.4152,-2.4152,-2.4152,-2.4152,-2.396,-2.3813,-2.3813,-2.3474,-2.3125,-2.2896,-2.2171,-2.1301,-2.04,-2.011,-1.9646,-1.8827,-1.8827,-1.8827,-1.8827,-1.8827,-1.8827,-1.8827,-1.8827,-1.8635,-1.8164,-1.7419,-1.6669,-1.5913,-1.5153,-1.458,-1.4298,-1.4298,-1.4298,-2.5895,-2.5895,-2.5895,-2.5895,-2.5895,-2.5895,-2.5895,-2.5895,-2.6059,-2.6605,0.0,0.0,-2.8036,0.0,-2.8757,-2.8757,0.0,-2.8757,-2.8757,-2.8757,-2.8757,-2.8757,-2.8757,-2.8757,-2.8757,-2.9259,-2.9751,-3.0177,-3.069,-3.1181,-3.1607,-3.1618,-3.1618,-3.1618,-3.1618,-3.1618,-3.1618,-3.1618,-3.1618,-3.1618,-3.1618,-3.1618,-3.1618,-3.1618,-3.1618,-3.1618,0.0,0.0,-3.1618,-3.1618,-3.1618,-3.1618,-3.1618,-3.1618,-3.1575,-3.1149,-3.0996,-3.093,-3.0537,-3.0406,-3.0308,-2.9762,-2.9576,-2.9489,-2.8997,-2.8365,-2.7862,-2.761,-2.702,-2.6456,-2.636,-2.636,-2.636,-2.6264,-2.5781,-2.5294,-2.5197,-2.4627,-2.4152,-2.4152,-2.4152,-2.4152,-2.4152,-2.4152,-2.4152,-2.4152,-2.3849,-2.3602,-2.3547,-2.2407,-2.1344,-2.0494,-1.9987,-1.942,-1.8835,-1.8827,-1.8827,-1.8827,-1.8827,-1.8827,-1.8827,-1.8827,-1.8827,-1.8827,-1.7978,-1.7232,-1.6588,-1.5724,-1.4962,-1.4298,-1.4298,-1.4298,-2.5895,-2.5895,-2.5895,-2.5895,-2.5895,-2.5895,-2.5895,-2.5895,0.0,0.0,0.0,-2.7577,-2.8473,-2.8702,0.0,-2.8757,0.0,0.0,0.0,0.0,-2.8757,0.0,0.0,0.0,0.0,0.0,0.0,0.0,0.0,-3.1531,-3.1618,-3.1618,-3.1618,-3.1618,-3.1618,-3.1618,-3.1618,-3.1618,-3.1618,-3.1618,-3.1618,-3.1618,-3.1618,-3.1618,-3.1618,-3.1618,-3.1618,0.0,-3.1618,-3.1618,-3.1618,-3.1618,-3.1618,-3.1618,-3.1607,-3.1531,-3.1498,-3.1487,-3.1411,-3.1378,-3.1236,-3.0373,-3.0089,-2.9991,-2.95,-2.9263,-2.8975,-2.7894,-2.702,-2.636,-2.5684,-2.5489,-2.5392,-2.4726,-2.4913,-2.5099,-2.4529,-2.4251,-2.4152,-2.4152,-2.4152,-2.4152,-2.4152,-2.4152,-2.4152,-2.4152,-2.4088,-2.3923,-2.3584,-2.264,-2.1722,-2.0881,-2.0374,-1.9698,-1.8851,-1.8827,-1.8827,-1.8827,-1.8827,-1.8827,-1.8827,-1.8827,-1.8827,-1.8827,-1.752,-1.677,-1.6588,-1.5153,-1.4388,-1.4298,-1.4298,-1.4298,-2.5895,-2.5895,-2.5895,-2.5895,-2.5895,-2.5895,-2.5895,0.0,0.0,0.0,0.0,-2.761,-2.8571,0.0,0.0,0.0,0.0,0.0,0.0,0.0,0.0,0.0,0.0,0.0,0.0,0.0,0.0,0.0,0.0,-3.1356,-3.1607,-3.1618,-3.1618,-3.1618,-3.1618,-3.1618,-3.1618,-3.1618,-3.1618,-3.1618,-3.1618,-3.1618,-3.1618,-3.1618,-3.1618,-3.1618,-3.1618,0.0,-3.1618,-3.1618,-3.1618,-3.1618,-3.1618,-3.1618,-3.1618,-3.1618,-3.1618,-3.1618,-3.1618,-3.1618,-3.1553,-3.1094,-3.0777,-3.0482,-3.0013,-2.9685,-2.9339,-2.8804,-2.7883,-2.6924,-2.6157,-2.5586,-2.5197,-2.4815,-2.5001,-2.5109,-2.4341,-2.4152,-2.4152,-2.4152,-2.4152,-2.4152,-2.4152,-2.4152,-2.4152,-2.4152,-2.4152,-2.4079,-2.3886,-2.3188,-2.2347,-2.1294,-2.0665,-2.0123,-1.9478,-1.9209,-1.9105,-1.9105,-1.8931,-1.8827,-1.8827,-1.845,-1.8257,-1.8257,-1.7145,-1.6393,-1.6008,-1.5248,-1.4675,-1.4298,-1.4298,-1.4298,-2.5895,-2.5895,-2.5895,-2.5895,-2.5895,-2.5895,-2.5895,-2.5983,0.0,0.0,-2.7403,-2.773,-2.8593,0.0,0.0,0.0,0.0,0.0,0.0,0.0,0.0,0.0,0.0,0.0,0.0,0.0,0.0,0.0,0.0,0.0,-3.1607,-3.1618,-3.1618,-3.1618,-3.1618,-3.1618,-3.1618,-3.1618,-3.1618,-3.1618,-3.1618,-3.1618,-3.1618,-3.1618,-3.1618,-3.1618,-3.1618,0.0,0.0,-3.1618,-3.1618,-3.1618,-3.1618,-3.1618,-3.1618,-3.1618,-3.1618,-3.1618,-3.1618,-3.1618,-3.1618,-3.1618,-3.1367,-3.0963,-3.0493,-3.0089,-2.9751,-2.9543,-2.8614,-2.762,-2.6955,-2.6061,-2.5294,-2.5109,-2.5099,-2.4913,-2.435,-2.4152,-2.4152,-2.4152,-2.4152,-2.4152,-2.4152,-2.4152,-2.4152,-2.4152,-2.4152,-2.4152,-2.4044,-2.3538,-2.2693,-2.1616,-2.0995,-2.0532,-1.9973,-1.963,-1.9479,-1.9479,-1.9209,-1.905,-1.905,-1.8403,-1.7991,-1.7796,-1.6986,-1.6197,-1.5432,-1.5248,-1.4867,-1.4298,-1.4298,-1.4298,-2.5895,-2.5895,-2.5895,-2.5895,-2.5895,-2.5895,-2.5895,0.0,0.0,0.0,-2.7665,-2.8134,-2.8659,-2.8757,0.0,0.0,0.0,0.0,0.0,0.0,0.0,0.0,0.0,0.0,0.0,0.0,0.0,0.0,0.0,0.0,-3.1618,-3.1618,-3.1618,-3.1618,-3.1618,-3.1618,-3.1618,-3.1618,-3.1618,-3.1618,-3.1618,-3.1618,-3.1618,-3.1618,-3.1618,-3.1618,-3.1618,0.0,0.0,-3.1618,-3.1618,-3.1618,-3.1618,-3.1618,-3.1618,-3.1618,-3.1618,-3.1618,-3.1618,-3.1618,-3.1618,-3.1618,-3.1586,-3.1465,-3.0985,-3.0799,-3.0581,-2.9729,-2.886,-2.8124,-2.761,-2.6446,-2.5099,-2.444,-2.435,-2.4251,-2.4251,-2.4152,-2.4152,-2.4152,-2.4152,-2.4152,-2.4152,-2.4152,-2.4152,-2.4152,-2.4152,-2.4044,-2.3429,-2.2929,-2.2299,-2.1736,-2.1329,-2.0802,-1.9989,-1.9836,-1.982,-1.982,-1.9789,-1.9773,-1.9773,-1.9479,-1.8925,-1.814,-1.7101,-1.6197,-1.5432,-1.4771,-1.4394,-1.4298,-1.4298,-1.4298,-2.5895,-2.5895,-2.5895,-2.5895,-2.5895,-2.5895,-2.5895,0.0,0.0,-2.7151,-2.7468,-2.7839,-2.8615,-2.8757,-2.8757,0.0,0.0,0.0,0.0,0.0,0.0,0.0,0.0,0.0,0.0,0.0,0.0,0.0,0.0,0.0,-3.1618,-3.1618,-3.1618,-3.1618,-3.1618,-3.1618,-3.1618,-3.1618,-3.1618,-3.1618,-3.1618,-3.1618,-3.1618,-3.1618,-3.1618,-3.1618,-3.1618,0.0,0.0,-3.1618,-3.1618,-3.1618,-3.1618,-3.1618,-3.1618,-3.1618,-3.1618,-3.1618,-3.1618,-3.1618,-3.1618,-3.1618,-3.1618,-3.1586,-3.1389,-3.1127,-3.0756,-3.01,-2.9515,-2.8775,-2.781,-2.6446,-2.5099,-2.4341,-2.4152,-2.4152,-2.4152,-2.4152,-2.4152,-2.4152,-2.4152,-2.4152,-2.4152,-2.4152,-2.4152,-2.4152,-2.4152,-2.3945,-2.3329,-2.3129,-2.2627,-2.1827,-2.1298,-2.0857,-2.0512,-2.0305,-2.0178,-2.0178,-1.9979,-1.9868,-1.9868,-1.9346,-1.8783,-1.8484,-1.719,-1.6353,-1.596,-1.5177,-1.4781,-1.4781,-1.4781,-1.4781,-2.5895,-2.5895,-2.5895,-2.5895,-2.5895,-2.5895,0.0,0.0,0.0,-2.7151,-2.7424,-2.7774,-2.8604,-2.8757,-2.8757,-2.8757,0.0,0.0,0.0,0.0,0.0,0.0,0.0,0.0,0.0,0.0,0.0,0.0,0.0,0.0,0.0,-3.1618,-3.1618,-3.1618,-3.1618,-3.1618,-3.1618,-3.1618,-3.1618,-3.1618,-3.1618,-3.1618,-3.1618,-3.1618,-3.1618,-3.1618,0.0,0.0,0.0,-3.1618,-3.1618,-3.1618,-3.1618,-3.1618,-3.1618,-3.1618,-3.1618,-3.1618,-3.1618,-3.1618,-3.1618,-3.1618,-3.1618,-3.1618,-3.1618,-3.1389,-3.0985,-3.0384,-2.9751,-2.8994,-2.7589,-2.6446,-2.5392,-2.444,-2.4152,-2.4152,-2.4152,-2.4152,-2.4152,-2.4152,-2.4152,-2.4152,-2.4152,-2.4152,-2.4152,-2.4152,-2.4152,-2.3945,-2.3129,-2.3029,-2.2627,-2.1623,-2.1121,-2.0925,-2.0925,-2.0694,-2.0551,-2.0551,-2.0313,-2.0178,-2.0178,-1.9582,-1.9125,-1.8835,-1.764,-1.69,-1.64,-1.5809,-1.5303,-1.5107,-1.5107,-1.5107,-2.5895,-2.5895,-2.5895,-2.5895,-2.5895,-2.5895,0.0,0.0,-2.6758,-2.7217,-2.7697,-2.8189,-2.8659,-2.8757,-2.8757,-2.8757,-2.8757,0.0,0.0,0.0,0.0,0.0,0.0,0.0,0.0,0.0,0.0,0.0,0.0,0.0,0.0,-3.1618,-3.1618,-3.1618,-3.1618,-3.1618,-3.1618,-3.1618,-3.1618,-3.1618,-3.1618,-3.1618,-3.1618,-3.1618,-3.1618,0.0,0.0,0.0,0.0,-3.1618,-3.1618,-3.1618,-3.1618,-3.1618,-3.1618,-3.1618,-3.1618,-3.1618,-3.1618,-3.1618,-3.1618,-3.1618,-3.1618,-3.1618,-3.1618,-3.1618,-3.1422,-3.0472,-2.951,-2.8466,-2.6935,-2.6456,-2.6071,-2.4538,-2.4152,-2.4152,-2.4152,-2.4152,-2.4152,-2.4152,-2.4152,-2.4152,-2.4152,-2.4152,-2.4152,-2.4152,-2.4152,-2.3746,-2.2627,-2.2526,-2.2123,-2.1019,-2.0925,-2.0925,-2.0925,-2.0917,-2.0917,-2.0917,-2.0909,-2.0909,-2.0909,-2.0575,-2.0092,-1.9295,-1.8858,-1.7888,-1.64,-1.64,-1.5903,-1.5107,-1.5107,-1.5107,-2.5895,-2.5895,-2.5895,-2.5895,-2.5895,-2.5895,-2.5895,0.0,-2.6354,-2.7151,-2.7435,-2.7796,-2.8604,-2.8757,-2.8757,-2.8757,-2.8757,0.0,0.0,0.0,0.0,0.0,0.0,0.0,0.0,0.0,0.0,0.0,0.0,0.0,0.0,-3.1618,-3.1618,-3.1618,-3.1618,-3.1618,-3.1618,-3.1618,-3.1618,-3.1618,-3.1618,-3.1618,-3.1618,-3.1618,0.0,0.0,0.0,0.0,0.0,-3.1618,-3.1618,-3.1618,-3.1618,-3.1618,-3.1618,-3.1618,-3.1618,-3.1618,-3.1618,-3.1618,-3.1618,-3.1618,-3.1618,-3.1618,-3.1618,-3.1618,-3.1422,-3.0482,-2.9751,-2.8877,-2.7017,-2.6456,-2.6071,-2.4538,-2.4152,-2.4152,-2.4152,-2.4152,-2.4152,-2.4152,-2.4152,-2.4152,-2.4152,-2.4152,-2.4152,-2.4152,-2.4152,-2.3746,-2.2627,-2.2526,-2.2131,-2.1019,-2.0925,-2.0925,-2.0925,-2.0925,-2.0925,-2.0925,-2.0925,-2.0925,-2.0925,-2.0813,-2.0656,-2.035,-1.9725,-1.9154,-1.8642,-1.8025,-1.7301,-1.6567,-1.5953,-1.5644,0.0,-2.5895,-2.5895,-2.5895,-2.5895,0.0,0.0,0.0,-2.6168,-2.7119,-2.7315,-2.761,-2.8571,-2.8757,-2.8757,-2.8757,-2.8757,0.0,0.0,0.0,0.0,0.0,0.0,0.0,0.0,0.0,0.0,0.0,0.0,0.0,0.0,-3.152,-3.1618,-3.1618,-3.1618,-3.1618,-3.1618,-3.1618,-3.1618,-3.1618,-3.1618,-3.1618,-3.1618,-3.1618,0.0,0.0,0.0,0.0,0.0,-3.1618,-3.1618,-3.1618,-3.1618,-3.1618,-3.1618,-3.1618,-3.1618,-3.1618,-3.1618,-3.1618,-3.1618,-3.1618,-3.1618,-3.1618,-3.1618,-3.1498,-3.1192,-3.0428,-2.986,-2.9083,-2.7047,-2.6456,-2.6071,-2.4538,-2.4152,-2.4152,-2.4152,-2.4152,-2.4152,-2.4152,-2.4152,-2.4152,-2.4152,-2.4152,-2.4152,-2.4152,-2.4053,-2.3538,-2.2627,-2.2325,-2.1827,-2.1019,-2.0925,-2.0925,-2.0925,-2.0925,-2.0925,-2.0925,-2.0925,-2.0925,-2.0925,-2.0925,-2.0925,-2.0925,-2.0403,-1.999,-1.968,-1.884,-1.7996,-1.7147,-1.6624,-1.6205,0.0,0.0,0.0,0.0,0.0,0.0,0.0,0.0,0.0,-2.7119,-2.7315,-2.761,-2.8571,-2.8757,-2.8757,-2.8757,0.0,0.0,0.0,0.0,0.0,0.0,0.0,0.0,0.0,0.0,0.0,0.0,0.0,0.0,0.0,-3.1313,-3.1575,-3.1575,-3.1607,-3.1618,-3.1618,-3.1618,-3.1618,-3.1618,-3.1618,-3.1618,-3.1618,-3.1618,0.0,0.0,0.0,0.0,0.0,-3.1618,-3.1618,-3.1618,-3.1618,-3.1618,-3.1618,-3.1618,-3.1618,-3.1618,-3.1618,-3.1618,-3.1618,-3.1618,-3.1618,-3.1618,-3.1618,-3.1313,-3.0843,-3.0351,-2.9893,-2.9115,-2.7058,-2.6456,-2.6071,-2.4538,-2.4152,-2.4152,-2.4152,-2.4152,-2.4152,-2.4152,-2.4152,-2.4152,-2.4152,-2.4152,-2.4152,-2.4152,-2.3637,-2.3129,-2.2526,-2.2021,-2.1522,-2.0917,-2.0925,-2.0925,-2.0925,-2.0925,-2.0925,-2.0925,-2.0925,-2.0925,-2.0925,-2.0925,-2.0925,-2.0925,-2.0925,-2.0506,-1.9783,-1.8945,-1.8101,-1.7358,-1.7358,-1.6836,-2.5797,0.0,-2.5895,-2.5895,0.0,0.0,0.0,0.0,0.0,-2.7119,0.0,0.0,-2.8571,0.0,0.0,0.0,0.0,0.0,0.0,0.0,0.0,0.0,0.0,0.0,0.0,0.0,0.0,0.0,0.0,0.0,0.0,-3.0821,-3.1061,-3.1061,-3.1433,-3.1618,-3.1618,-3.1618,-3.1618,-3.1618,-3.1618,-3.1618,-3.1618,-3.1618,0.0,0.0,0.0,0.0,-3.1618,-3.1618,-3.1618,-3.1618,-3.1618,-3.1618,-3.1618,-3.1618,-3.1618,-3.1618,-3.1618,-3.1618,-3.1618,-3.1618,-3.1618,-3.1618,-3.1618,-3.1542,-3.128,-3.045,-3.0133,-2.9451,-2.714,-2.6456,-2.6071,-2.4538,-2.4152,-2.4152,-2.4152,-2.4152,-2.4152,-2.4152,-2.4152,-2.4152,-2.4152,-2.4152,-2.4152,-2.4152,-2.3637,-2.3129,-2.2526,-2.2021,-2.1522,-2.0917,-2.0925,-2.0925,-2.0925,-2.0925,-2.0925,-2.0925,-2.0925,-2.0925,-2.0925,-2.0925,-2.0925,-2.0925,-2.0925,-2.0822,-2.0609,-1.9776,-1.9257,-1.9153,-1.8415,-1.8003,-2.5764,-2.5895,-2.5895,-2.5895,-2.5895,-2.5895,0.0,0.0,0.0,0.0,0.0,0.0,0.0,0.0,0.0,0.0,0.0,0.0,0.0,0.0,0.0,0.0,0.0,0.0,0.0,0.0,0.0,0.0,0.0,0.0,0.0,-3.0319,-3.0581,-3.0581,-3.0843,-3.1181,-3.1618,-3.1618,-3.1618,-3.1618,-3.1618,-3.1618,-3.1618,-3.1618,-3.1618,0.0,0.0,0.0,-3.1618,-3.1618,-3.1618,-3.1618,-3.1618,-3.1618,-3.1618,-3.1618,-3.1618,-3.1618,-3.1618,-3.1618,-3.1618,-3.1618,-3.1618,-3.1618,-3.1618,-3.1465,-3.1138,-3.0417,-3.0209,-2.9591,-2.717,-2.6456,-2.6071,-2.4538,-2.4152,-2.4152,-2.4152,-2.4152,-2.4152,-2.4152,-2.4152,-2.4152,-2.4152,-2.4152,-2.4152,-2.4152,-2.3637,-2.3129,-2.2526,-2.2021,-2.1522,-2.0917,-2.0925,-2.0925,-2.0925,-2.0925,-2.0925,-2.0925,-2.0925,-2.0925,-2.0925,-2.0925,-2.0925,-2.0925,-2.0925,-2.0925,-2.0925,-2.0506,-2.0094,-1.968,-1.9264,-1.8736,-2.5655,-2.5841,-2.5895,-2.5895,-2.5895,-2.5895,-2.5895,0.0,0.0,0.0,0.0,0.0,0.0,0.0,0.0,0.0,0.0,0.0,0.0,0.0,0.0,0.0,0.0,0.0,0.0,0.0,0.0,0.0,0.0,0.0,0.0,-2.9838,-3.01,-3.01,-3.0177,-3.0592,-3.14,-3.1411,-3.1444,-3.1509,-3.1509,-3.1553,-3.1618,-3.1618,-3.1618,0.0,0.0,0.0,-3.1618,-3.1618,-3.1618,-3.1618,-3.1618,-3.1618,-3.1618,-3.1618,-3.1618,-3.1618,-3.1618,-3.1618,-3.1618,-3.1618,-3.1618,-3.1618,-3.1618,-3.128,-3.0799,-3.0341,-3.0155,-2.9494,-2.715,-2.6456,-2.6071,-2.4538,-2.4152,-2.4152,-2.4152,-2.4152,-2.4152,-2.4152,-2.4152,-2.4152,-2.4152,-2.4152,-2.4152,-2.4152,-2.3637,-2.3129,-2.2728,-2.2123,-2.1623,-2.1224,-2.1121,-2.1019,-2.1019,-2.0925,-2.0925,-2.0925,-2.0925,-2.0925,-2.0925,-2.0925,-2.0925,-2.0925,-2.0925,-2.0925,-2.0925,-2.0925,-2.0506,-1.9887,-1.9887,-1.9472,-2.5153,-2.559,-2.5895,-2.5895,-2.5895,-2.5895,-2.5895,0.0,0.0,0.0,0.0,0.0,0.0,0.0,0.0,0.0,0.0,0.0,0.0,0.0,0.0,0.0,0.0,0.0,0.0,0.0,0.0,0.0,0.0,0.0,0.0,-2.9325,-2.9598,-2.9598,-2.9991,-3.0286,-3.0428,-3.0428,-3.0624,-3.1007,-3.1007,-3.1225,-3.1618,-3.1618,-3.1618,0.0,0.0,-3.1618,-3.1618,-3.1618,-3.1618,-3.1618,-3.1618,-3.1618,-3.1618,-3.1618,-3.1618,-3.1618,-3.1618,-3.1618,-3.1618,-3.1618,-3.1618,-3.1618,-3.1618,-3.128,-3.0799,-3.0341,-2.9915,-2.9169,-2.7068,-2.6456,-2.6071,-2.4538,-2.4152,-2.4152,-2.4152,-2.4152,-2.4152,-2.4152,-2.4152,-2.4152,-2.4152,-2.4152,-2.4152,-2.4152,-2.3637,-2.3229,-2.3229,-2.2728,-2.2325,-2.2224,-2.1827,-2.1623,-2.1623,-2.1121,-2.0925,-2.0925,-2.0925,-2.0925,-2.0925,-2.0925,-2.0925,-2.0925,-2.0925,-2.0925,-2.0925,-2.0925,-2.0822,-2.0719,-2.0719,-2.0609,-2.5043,-2.5524,-2.5895,-2.5895,-2.5895,-2.5895,-2.5895,0.0,0.0,0.0,0.0,0.0,0.0,0.0,0.0,0.0,0.0,0.0,0.0,0.0,0.0,0.0,0.0,0.0,0.0,0.0,0.0,0.0,0.0,0.0,0.0,0.0,-2.9095,-2.9095,-2.9303,-2.9423,-2.9423,-2.9423,-2.9794,-3.0526,-3.0526,-3.0646,-3.0865,-3.1116,-3.1236,-3.1247,0.0,-3.1618,-3.1618,-3.1618,-3.1618,-3.1618,-3.1618,-3.1618,-3.1618,-3.1618,-3.1618,-3.1618,-3.1618,-3.1618,-3.1618,-3.1618,-3.1618,-3.1575,-3.1313,-3.0898,-3.0428,-2.9947,-2.9353,-2.8487,-2.6951,-2.6167,-2.5586,-2.444,-2.4152,-2.4152,-2.4152,-2.4152,-2.4152,-2.4152,-2.4152,-2.4152,-2.4152,-2.4152,-2.4152,-2.4152,-2.3945,-2.3637,-2.3329,-2.3129,-2.2828,-2.2526,-2.2325,-2.2123,-2.2123,-2.1623,-2.1224,-2.0925,-2.0925,-2.0925,-2.0925,-2.0925,-2.0925,-2.0925,-2.0925,-2.0925,-2.0925,-2.0925,-2.0925,-2.0925,-2.0925,-2.0925,-2.4923,-2.5448,-2.5895,-2.5895,0.0,-2.5895,-2.5895,0.0,0.0,0.0,0.0,0.0,0.0,0.0,0.0,0.0,0.0,0.0,0.0,0.0,0.0,0.0,0.0,0.0,0.0,0.0,0.0,0.0,0.0,0.0,0.0,0.0,-2.8757,-2.8757,-2.8757,-2.8757,-2.8757,-2.8757,-2.9183,-3.0046,-3.0046,-3.01,-3.022,-3.057,-3.0799,-3.0919,-3.1291,-3.152,-3.1618,-3.1618,-3.1618,-3.1618,-3.1618,-3.1618,-3.1618,-3.1618,-3.1618,-3.1618,-3.1618,-3.1618,-3.1618,-3.1618,-3.1542,-3.1389,-3.1007,-3.0493,-2.9958,-2.9587,-2.8807,-2.7848,-2.6825,-2.6071,-2.5392,-2.444,-2.4152,-2.4152,-2.4152,-2.4152,-2.4152,-2.4152,-2.4152,-2.4152,-2.4152,-2.4152,-2.4152,-2.4152,-2.4152,-2.4044,-2.3538,-2.3538,-2.3329,-2.2929,-2.2728,-2.2627,-2.2325,-2.1928,-2.142,-2.0917,-2.0925,-2.0925,-2.0925,-2.0925,-2.0925,-2.0925,-2.0925,-2.0925,-2.0925,-2.0925,-2.0925,-2.0925,-2.0925,-2.0925,-2.453,-2.5207,-2.5895,-2.5895,-2.5895,0.0,-2.5895,-2.6256,0.0,0.0,0.0,0.0,0.0,0.0,0.0,0.0,0.0,0.0,0.0,0.0,0.0,0.0,0.0,0.0,0.0,0.0,0.0,0.0,0.0,0.0,0.0,0.0,0.0,-2.8757,-2.8757,-2.8757,-2.8757,-2.8757,-2.9019,-2.9532,-2.9532,-2.9773,-3.0209,-3.0242,-3.0493,-3.0898,-3.093,-3.1203,-3.1618,-3.1618,-3.1618,-3.1618,-3.1618,-3.1618,-3.1618,-3.1618,-3.1618,-3.1618,-3.1618,-3.1618,-3.1618,-3.1618,-3.1323,-3.0941,-3.0908,-3.0253,-2.9532,-2.9489,-2.8571,-2.7441,-2.6744,-2.6456,-2.6071,-2.4538,-2.4152,-2.4152,-2.4152,-2.4152,-2.4152,-2.4152,-2.4152,-2.4152,-2.4152,-2.4152,-2.4152,-2.4152,-2.4152,-2.4152,-2.4152,-2.4152,-2.4152,-2.4053,-2.3538,-2.2828,-2.1827,-2.1725,-2.142,-2.0917,-2.0925,-2.0925,-2.0925,-2.0925,-2.0925,-2.0925,-2.0925,-2.0925,-2.0925,-2.0925,-2.0925,-2.0925,-2.0925,-2.0925,-2.4836,-2.5404,-2.5895,-2.5895,-2.5895,0.0,0.0,-2.6048,0.0,0.0,0.0,0.0,0.0,0.0,0.0,0.0,0.0,0.0,0.0,0.0,0.0,0.0,0.0,0.0,0.0,0.0,0.0,0.0,0.0,0.0,0.0,0.0,0.0,-2.8757,-2.8757,-2.8757,-2.8757,-2.8757,-2.8844,-2.903,-2.903,-2.9128,-2.9314,-2.962,-2.9849,-3.0035,-3.0341,-3.0734,-3.1171,-3.1171,-3.1356,-3.1618,-3.1618,-3.1618,-3.1618,-3.1618,-3.1618,-3.1618,-3.1618,-3.1618,-3.1575,-3.1269,-3.105,-3.0788,-3.0199,-2.9762,-2.9423,-2.9117,-2.8408,-2.74,-2.6648,-2.6167,-2.5489,-2.444,-2.4152,-2.4152,-2.4152,-2.4152,-2.4152,-2.4152,-2.4152,-2.4152,-2.4152,-2.4152,-2.4152,-2.4152,-2.4152,-2.4152,-2.4152,-2.4152,-2.4152,-2.4152,-2.4044,-2.3538,-2.2728,-2.2728,-2.2325,-2.142,-2.1121,-2.0925,-2.0925,-2.0925,-2.0925,-2.0925,-2.0925,-2.0925,-2.0925,-2.0925,-2.0925,-2.0925,-2.0925,-2.0925,-2.5043,-2.5524,-2.5895,0.0,0.0,0.0,-2.5895,-2.5895,0.0,0.0,0.0,0.0,0.0,0.0,0.0,0.0,0.0,0.0,0.0,0.0,0.0,0.0,0.0,0.0,0.0,0.0,0.0,0.0,0.0,0.0,0.0,0.0,0.0,0.0,-2.8757,-2.8757,-2.8757,-2.8757,-2.8757,-2.8757,-2.8757,-2.8757,-2.8768,-2.9095,-2.9336,-2.95,-2.9838,-3.0253,-3.0679,-3.0679,-3.0963,-3.1411,-3.1564,-3.1618,-3.1618,-3.1618,-3.1618,-3.1618,-3.1618,-3.152,-3.1334,-3.0996,-3.069,-3.033,-2.9674,-2.9379,-2.9183,-2.8844,-2.8269,-2.74,-2.6648,-2.5877,-2.5099,-2.4341,-2.4152,-2.4152,-2.4152,-2.4152,-2.4152,-2.4152,-2.4152,-2.4152,-2.4152,-2.4152,-2.4152,-2.4152,-2.4152,-2.4152,-2.4152,-2.4152,-2.4152,-2.4152,-2.4152,-2.3945,-2.3329,-2.3329,-2.2929,-2.203,-2.1623,-2.1224,-2.0917,-2.0925,-2.0925,-2.0925,-2.0925,-2.1019,-2.1121,-2.1019,-2.1027,-2.1121,-2.1019,-2.0925,-2.5054,-2.5535,0.0,0.0,0.0,0.0,0.0,0.0,0.0,0.0,0.0,0.0,0.0,0.0,0.0,0.0,0.0,0.0,0.0,0.0,0.0,0.0,0.0,0.0,0.0,0.0,0.0,0.0,0.0,0.0,0.0,0.0,0.0,0.0,-2.8757,-2.8757,-2.8757,-2.8757,-2.8757,-2.8757,-2.8757,-2.8757,-2.8757,-2.8757,-2.9019,-2.9478,-2.9478,-2.9751,-3.0209,-3.0209,-3.0482,-3.093,-3.1422,-3.1607,-3.1607,-3.1607,-3.1607,-3.1607,-3.1607,-3.1291,-3.0887,-3.0887,-3.0253,-2.9489,-2.9478,-2.9139,-2.8757,-2.8757,-2.8269,-2.74,-2.6648,-2.5877,-2.5099,-2.4341,-2.4152,-2.4152,-2.4152,-2.4152,-2.4152,-2.4152,-2.4152,-2.4152,-2.4152,-2.4152,-2.4152,-2.4152,-2.4152,-2.4152,-2.4152,-2.4152,-2.4152,-2.4152,-2.4152,-2.3945,-2.3329,-2.3329,-2.3129,-2.2526,-2.2526,-2.203,-2.0917,-2.0925,-2.0925,-2.0925,-2.0925,-2.1224,-2.1725,-2.1121,-2.1224,-2.1725,-2.1121,-2.0917,-2.5469,-2.5786,0.0,0.0,0.0,0.0,0.0,0.0,0.0,0.0,0.0,0.0,0.0,0.0,0.0,0.0,0.0,0.0,0.0,0.0,0.0,0.0,0.0,0.0,0.0,0.0,0.0,0.0,0.0,0.0,0.0,0.0,0.0,0.0,-2.8757,-2.8757,-2.8757,-2.8757,-2.8757,-2.8757,-2.8757,-2.8757,-2.8757,-2.8757,-2.8833,-2.8975,-2.8975,-2.9248,-2.9729,-3.0067,-3.0297,-3.0428,-3.057,-3.0635,-3.0635,-3.0635,-3.0635,-3.0635,-3.0635,-3.0537,-3.0351,-3.0013,-2.9718,-2.9423,-2.9074,-2.8866,-2.8757,-2.8757,-2.7893,-2.6733,-2.6552,-2.5489,-2.444,-2.4251,-2.4152,-2.4152,-2.4152,-2.4152,-2.4152,-2.4152,-2.4152,-2.4152,-2.4152,-2.4152,-2.4152,-2.4152,-2.4152,-2.4152,-2.4152,-2.4152,-2.4152,-2.4152,-2.4152,-2.4152,-2.3945,-2.3945,-2.3637,-2.3129,-2.3029,-2.2728,-2.2021,-2.203,-2.203,-2.203,-2.203,-2.2123,-2.2224,-2.2123,-2.2131,-2.2224,-2.2123,-2.1827,-2.5644,0.0,0.0,0.0,0.0,0.0,0.0,0.0,0.0,0.0,0.0,0.0,0.0,0.0,0.0,0.0,0.0,0.0,0.0,0.0,0.0,0.0,0.0,0.0,0.0,0.0,0.0,0.0,0.0,0.0,0.0,0.0,0.0,0.0,-2.8757,-2.8757,-2.8757,-2.8757,-2.8757,-2.8757,-2.8757,-2.8757,-2.8757,-2.8757,-2.8757,-2.8757,-2.8757,-2.8921,-2.9237,-2.9718,-2.9925,-2.9936,-3.0144,-3.0209,-3.0209,-3.0209,-3.0209,-3.0209,-3.0209,-3.0089,-2.9871,-2.9576,-2.9347,-2.9139,-2.8937,-2.8757,-2.8757,-2.8757,-2.7704,-2.6456,-2.6456,-2.5401,-2.4152,-2.4152,-2.4152,-2.4152,-2.4152,-2.4152,-2.4152,-2.4152,-2.4152,-2.4152,-2.4152,-2.4152,-2.4152,-2.4152,-2.4152,-2.4152,-2.4152,-2.4152,-2.4152,-2.4152,-2.4152,-2.4152,-2.4152,-2.4152,-2.4044,-2.3637,-2.3637,-2.3538,-2.3238,-2.2728,-2.2526,-2.2526,-2.2526,-2.2627,-2.2828,-2.2627,-2.2627,-2.2828,-2.2627,-2.2325,0.0,0.0,0.0,0.0,0.0,0.0,0.0,0.0,0.0,0.0,0.0,0.0,0.0,0.0,0.0,0.0,0.0,0.0,0.0,0.0,0.0,0.0,0.0,0.0,0.0,0.0,0.0,0.0,0.0,0.0,0.0,0.0,0.0,-2.8757,-2.8757,-2.8757,-2.8757,-2.8757,-2.8757,0.0,-2.8757,-2.8757,-2.8757,-2.8757,-2.8757,-2.8757,-2.8757,-2.8757,-2.879,-2.9237,-2.9423,-2.9467,-2.9904,-3.0078,-3.0078,-3.0078,-3.0078,-3.0078,-3.0078,-2.9784,-2.9423,-2.9423,-2.9117,-2.8757,-2.8757,-2.8757,-2.8757,-2.8757,-2.7704,-2.6456,-2.6456,-2.5401,-2.4152,-2.4152,-2.4152,-2.4152,-2.4152,-2.4152,-2.4152,-2.4152,-2.4152,-2.4152,-2.4152,-2.4152,-2.4152,-2.4152,-2.4152,-2.4152,-2.4152,-2.4152,-2.4152,-2.4152,-2.4152,-2.4152,-2.4152,-2.4152,-2.4152,-2.4152,-2.4152,-2.4152,-2.4152,-2.3238,-2.2627,-2.2627,-2.2627,-2.2929,-2.3429,-2.2929,-2.2929,-2.3329,-2.2929,-2.2627,0.0,0.0,0.0,0.0,0.0,0.0,0.0,0.0,0.0,0.0,0.0,0.0,0.0,0.0,0.0,0.0,0.0,0.0,0.0,0.0,0.0,0.0,0.0,0.0,0.0,0.0,0.0,0.0,0.0,0.0,0.0,0.0,0.0,-2.8757,-2.8757,-2.8757,-2.8757,-2.8757,-2.8757,0.0,-2.8757,-2.8757,-2.8757,-2.8757,-2.8757,-2.8757,-2.8757,-2.8757,-2.8861,-2.8866,-2.891,-2.8921,-2.903,-2.9063,-2.9063,-2.9063,-2.9063,-2.9063,-2.9063,-2.8997,-2.891,-2.891,-2.8844,-2.8757,-2.8757,-2.8757,-2.8757,-2.8757,-2.7704,-2.6456,-2.6456,-2.5401,-2.4152,-2.4152,-2.4152,-2.4152,-2.4152,-2.4152,-2.4152,-2.4152,-2.4152,-2.4152,-2.4152,-2.4152,-2.4152,-2.4152,-2.4152,-2.4152,-2.4152,-2.4152,-2.4152,-2.4152,-2.4152,-2.4152,-2.4152,-2.4152,-2.4152,-2.4152,-2.4152,-2.4152,-2.4152,-2.3945,-2.3845,-2.3845,-2.3845,-2.3845,-2.4053,-2.3845,-2.3845,-2.4044,-2.3845,-2.3538,0.0,0.0,0.0,0.0,0.0,0.0,0.0,0.0,0.0,0.0,0.0,0.0,0.0,0.0,0.0,0.0,0.0,0.0,0.0,0.0,0.0,0.0,0.0,0.0,0.0,0.0,0.0,0.0,0.0,0.0,0.0,-2.8757,-2.8757,-2.8757,-2.8757,-2.8757,-2.8757,-2.8757,-2.8757,-2.8757,-2.8757,-2.8757,-2.8757,-2.8757,-2.8757,-2.8757,-2.8757,-2.8757,-2.8757,-2.8757,-2.8757,-2.8757,-2.8757,-2.8757,-2.8757,-2.8757,-2.8757,-2.8757,-2.8757,-2.8757,-2.8757,-2.8757,-2.8757,-2.8757,-2.8757,-2.8757,-2.8757,-2.8757,-2.7977,-2.6935,-2.6552,-2.5586,-2.4627,-2.4251,-2.4152,-2.4152,-2.4152,-2.4152,-2.4152,-2.4152,-2.4152,-2.4152,-2.4152,-2.4152,-2.4152,-2.4152,-2.4152,-2.4152,-2.4152,-2.4152,-2.4152,-2.4152,-2.4152,-2.4152,-2.4152,-2.4152,-2.4152,-2.4152,-2.4152,-2.4152,-2.4152,-2.4152,-2.4152,-2.4152,-2.4152,-2.4152,-2.4152,-2.4152,-2.4152,-2.4152,-2.4152,-2.4044,0.0,0.0,0.0,0.0,0.0,0.0,0.0,0.0,0.0,0.0,0.0,0.0,0.0,0.0,0.0,0.0,0.0,0.0,0.0,0.0,0.0,0.0,0.0,0.0,0.0,0.0,0.0,0.0,0.0,0.0,-2.8757,-2.8757,-2.8757,-2.8757,-2.8757,-2.8757,-2.8757,-2.8757,-2.8757,-2.8757,-2.8757,-2.8757,-2.8757,-2.8757,-2.8757,-2.8757,-2.8757,-2.8757,-2.8757,-2.8757,-2.8757,-2.8757,-2.8757,-2.8757,-2.8757,-2.8757,-2.8757,-2.8757,-2.8757,-2.8757,-2.8757,-2.8757,-2.8757,-2.8757,-2.8757,-2.8757,-2.8757,-2.8757,-2.8269,-2.74,-2.6648,-2.5877,-2.5099,-2.4341,-2.4152,-2.4152,-2.4152,-2.4152,-2.4152,-2.4152,-2.4152,-2.4152,-2.4152,-2.4152,-2.4152,-2.4152,-2.4152,-2.4152,-2.4152,-2.4152,-2.4152,-2.4152,-2.4152,-2.4152,-2.4152,-2.4152,-2.4152,-2.4152,-2.4152,-2.4152,-2.4152,-2.4152,-2.4152,-2.4152,-2.4152,-2.4152,-2.4152,-2.4152,-2.4152,-2.4152,-2.4152,-2.4152,0.0,0.0,0.0,0.0,0.0,0.0,0.0,0.0,0.0,0.0,0.0,0.0,0.0,0.0,0.0,0.0,0.0,0.0,0.0,0.0,0.0,0.0,0.0,0.0,0.0,0.0,0.0,0.0,0.0,0.0,-2.8757,-2.8757,-2.8757,-2.8757,-2.8757,-2.8757,-2.8757,-2.8757,-2.8757,-2.8757,-2.8757,-2.8757,-2.8757,-2.8757,-2.8757,-2.8757,-2.8757,-2.8757,-2.8757,-2.8757,-2.8757,-2.8757,-2.8757,-2.8757,-2.8757,-2.8757,-2.8757,-2.8757,-2.8757,-2.8757,-2.8757,-2.8757,-2.8757,-2.8757,-2.8757,-2.8757,-2.8757,-2.8757,-2.8269,-2.74,-2.6648,-2.5877,-2.5099,-2.4341,-2.4152,-2.4152,-2.4152,-2.4152,-2.4152,-2.4152,-2.4152,-2.4152,-2.4152,-2.4152,-2.4152,-2.4152,-2.4152,-2.4152,-2.4152,-2.4152,-2.4152,-2.4152,-2.4152,-2.4152,-2.4152,-2.4152,-2.4152,-2.4152,-2.4152,-2.4152,-2.4152,-2.4152,-2.4152,-2.4152,-2.4152,-2.4152,-2.4152,-2.4152,-2.4152,-2.4152,-2.4152,-2.4152,0.0,0.0,0.0,0.0,0.0,0.0,0.0,0.0,0.0,0.0,0.0,0.0,0.0,0.0,0.0,0.0,0.0,0.0,0.0,0.0,0.0,0.0,0.0,0.0,0.0,0.0,0.0,0.0,0.0,-2.8757,-2.8757,-2.8757,-2.8757,-2.8757,-2.8757,-2.8757,-2.8757,-2.8757,-2.8757,-2.8757,-2.8757,-2.8757,-2.8757,-2.8757,-2.8757,-2.8757,-2.8757,-2.8757,-2.8757,-2.8757,-2.8757,-2.8757,-2.8757,-2.8757,-2.8757,-2.8757,-2.8757,-2.8757,-2.8757,-2.8757,-2.8757,-2.8757,-2.8757,-2.8757,-2.8757,-2.8757,-2.8757,-2.8757,-2.856,-2.7987,-2.6839,-2.6264,-2.5684,-2.444,-2.4152,-2.4152,-2.4152,-2.4152,-2.4152,-2.4152,-2.4152,-2.4152,-2.4152,-2.4152,-2.4152,-2.4152,-2.4152,-2.4152,-2.4152,-2.4152,-2.4152,-2.4152,-2.4152,-2.4152,-2.4152,-2.4152,-2.4152,-2.4152,-2.4152,-2.4152,-2.4152,-2.4152,-2.4152,-2.4152,-2.4152,-2.4152,-2.4152,-2.4152,-2.4152,-2.4152,-2.4152,-2.4152,0.0,0.0,0.0,0.0,0.0,0.0,0.0,0.0,0.0,0.0,0.0,0.0,0.0,0.0,0.0,0.0,0.0,0.0,0.0,0.0,0.0,0.0,0.0,0.0,0.0,0.0,0.0,0.0,0.0,-2.8517,-2.8396,-2.8386,-2.8386,-2.8386,-2.8386,-2.8386,-2.8386,-2.8506,-2.8637,-2.8757,-2.8757,-2.8757,-2.8757,-2.8757,-2.8757,-2.8757,-2.8757,-2.8757,-2.8757,-2.8757,-2.8757,-2.8757,-2.8757,-2.8757,-2.8757,-2.8757,-2.8757,-2.8757,-2.8757,-2.8757,-2.8757,-2.8757,-2.8757,-2.8757,-2.8757,-2.8757,-2.8757,-2.8757,-2.8757,-2.8466,-2.7125,-2.6733,-2.6456,-2.5109,-2.4824,-2.4637,-2.4251,-2.4152,-2.4152,-2.4152,-2.4152,-2.4152,-2.4152,-2.4152,-2.4152,-2.4152,-2.4152,-2.4152,-2.4152,-2.4152,-2.4152,-2.4152,-2.4152,-2.4152,-2.4152,-2.4152,-2.4152,-2.4152,-2.4152,-2.4152,-2.4152,-2.4152,-2.4152,-2.4152,-2.4152,-2.4152,-2.4152,-2.4152,-2.4152,-2.4152,-2.4152,-2.4152,0.0,0.0,0.0,0.0,0.0,0.0,0.0,0.0,0.0,0.0,0.0,0.0,0.0,0.0,0.0,0.0,0.0,0.0,0.0,0.0,0.0,0.0,0.0,0.0,0.0,0.0,0.0,0.0,0.0,-2.7883,-2.7413,-2.7392,-2.7392,-2.7392,-2.7392,-2.7392,-2.7392,-2.785,-2.8309,-2.8757,-2.8757,-2.8757,-2.8757,-2.8757,-2.8757,-2.8757,-2.8757,-2.8757,-2.8757,-2.8757,-2.8757,-2.8757,-2.8757,-2.8757,-2.8757,-2.8757,-2.8757,-2.8757,-2.8757,-2.8757,-2.8757,-2.8757,-2.8757,-2.8757,-2.8757,-2.8757,-2.8757,-2.8757,-2.8757,-2.8653,-2.7788,-2.7494,-2.7305,-2.6552,-2.636,-2.5974,-2.4538,-2.4152,-2.4152,-2.4152,-2.4152,-2.4152,-2.4152,-2.4152,-2.4152,-2.4152,-2.4152,-2.4152,-2.4152,-2.4152,-2.4152,-2.4152,-2.4152,-2.4152,-2.4152,-2.4152,-2.4152,-2.4152,-2.4152,-2.4152,-2.4152,-2.4152,-2.4152,-2.4152,-2.4152,-2.4152,-2.4152,-2.4152,-2.4152,-2.4152,-2.4152,-2.4152,0.0,0.0,0.0,0.0,0.0,0.0,0.0,0.0,0.0,0.0,0.0,0.0,0.0,0.0,0.0,0.0,0.0,0.0,0.0,0.0,0.0,0.0,0.0,0.0,0.0,0.0,0.0,0.0,0.0,0.0,-2.7315,-2.7315,-2.7315,-2.7315,-2.7315,-2.7315,-2.7315,-2.749,-2.7818,-2.8298,-2.8298,-2.8462,-2.8757,-2.8757,-2.8757,-2.8757,-2.8757,-2.8757,-2.8757,-2.8757,-2.8757,-2.8757,-2.8757,-2.8757,-2.8757,-2.8757,-2.8757,-2.8757,-2.8757,-2.8757,-2.8757,-2.8757,-2.8757,-2.8757,-2.8757,-2.8757,-2.8757,-2.8757,-2.8757,-2.8653,-2.7788,-2.7589,-2.74,-2.6648,-2.6456,-2.6167,-2.5109,-2.4538,-2.4152,-2.4152,-2.4152,-2.4152,-2.4152,-2.4152,-2.4152,-2.4152,-2.4152,-2.4152,-2.4152,-2.4152,-2.4152,-2.4152,-2.4152,-2.4152,-2.4152,-2.4152,-2.4152,-2.4152,-2.4152,-2.4152,-2.4152,-2.4152,-2.4152,-2.4152,-2.4152,-2.4152,-2.4152,-2.4152,-2.4152,-2.4152,-2.4152,-2.4152,0.0,0.0,0.0,0.0,0.0,0.0,0.0,0.0,0.0,0.0,0.0,0.0,0.0,0.0,0.0,0.0,0.0,0.0,0.0,0.0,0.0,0.0,0.0,0.0,0.0,0.0,0.0,0.0,0.0,0.0,-2.6846,-2.6846,-2.6846,-2.6846,-2.6846,-2.6922,-2.7075,-2.7086,-2.7326,-2.7796,-2.7796,-2.8047,-2.8517,-2.8517,-2.8604,-2.8757,-2.8757,-2.8757,-2.8757,-2.8757,-2.8757,-2.8757,-2.8757,-2.8757,-2.8757,-2.8757,-2.8757,-2.8757,-2.8757,-2.8757,-2.8757,-2.8757,-2.8757,-2.8757,-2.8757,-2.8757,-2.8757,-2.8757,-2.8757,-2.8653,-2.8164,-2.7977,-2.7882,-2.741,-2.703,-2.6638,-2.5868,-2.5109,-2.4538,-2.4251,-2.4152,-2.4152,-2.4152,-2.4152,-2.4152,-2.4152,-2.4152,-2.4152,-2.4152,-2.4152,-2.4152,-2.4152,-2.4152,-2.4152,-2.4152,-2.4152,-2.4152,-2.4152,-2.4152,-2.4152,-2.4152,-2.4152,-2.4152,-2.4152,-2.4152,-2.4152,-2.4152,-2.4152,-2.4152,-2.4152,-2.4152,-2.4152,0.0,0.0,0.0,0.0,0.0,0.0,0.0,0.0,0.0,0.0,0.0,0.0,0.0,0.0,0.0,0.0,0.0,0.0,0.0,0.0,0.0,0.0,0.0,0.0,0.0,0.0,0.0,0.0,0.0,-2.6398,-2.5928,-2.5895,-2.5895,-2.5895,-2.5895,-2.6125,-2.6605,-2.6605,-2.6835,-2.7293,-2.7293,-2.7555,-2.8025,-2.8036,-2.8298,-2.8735,-2.8746,-2.8757,-2.8757,-2.8757,-2.8757,-2.8757,-2.8757,-2.8757,-2.8757,-2.885,-2.885,-2.8757,-2.885,-2.885,-2.8757,-2.8757,-2.8757,-2.8757,-2.8757,-2.8757,-2.8757,-2.8757,-2.8757,-2.8757,-2.8757,-2.8757,-2.8757,-2.8757,-2.8175,-2.74,-2.6648,-2.5877,-2.5099,-2.435,-2.4152,-2.4152,-2.4152,-2.4152,-2.4152,-2.4152,-2.4152,-2.4152,-2.4152,-2.4152,-2.4152,-2.4152,-2.4152,-2.4152,-2.4152,-2.4152,-2.4152,-2.4152,-2.4152,-2.4152,-2.4152,-2.4152,-2.4152,-2.4152,-2.4152,-2.4152,-2.4152,-2.4152,-2.4152,-2.4152,-2.4152,-2.4152,-2.6063,0.0,0.0,0.0,0.0,0.0,0.0,0.0,0.0,0.0,0.0,0.0,0.0,0.0,0.0,0.0,0.0,0.0,0.0,0.0,0.0,0.0,0.0,0.0,0.0,0.0,0.0,0.0,-2.6103,-2.6048,-2.5906,-2.5895,-2.5895,-2.5895,-2.5895,-2.5961,-2.6103,-2.6103,-2.6343,-2.6824,-2.6824,-2.7064,-2.7523,-2.7883,-2.8112,-2.8254,-2.8604,-2.8757,-2.8757,-2.8757,-2.8757,-2.8757,-2.8757,-2.8757,-2.885,-2.9209,-2.9117,-2.885,-2.9209,-2.9117,-2.8757,-2.8757,-2.8757,-2.8757,-2.8757,-2.8757,-2.8757,-2.8757,-2.8757,-2.8757,-2.8757,-2.8757,-2.8757,-2.8757,-2.8653,-2.8081,-2.6744,-2.636,-2.5781,-2.444,-2.4152,-2.4152,-2.4152,-2.4152,-2.4152,-2.4152,-2.4152,-2.4152,-2.4152,-2.4152,-2.4152,-2.4152,-2.4152,-2.4152,-2.4152,-2.4152,-2.4152,-2.4152,-2.4152,-2.4152,-2.4152,-2.4152,-2.4152,-2.4152,-2.4152,-2.4152,-2.4152,-2.4152,-2.4152,-2.4152,-2.4152,-2.4152,0.0,0.0,0.0,0.0,0.0,0.0,0.0,-2.6539,0.0,0.0,0.0,0.0,0.0,0.0,0.0,0.0,0.0,0.0,0.0,0.0,0.0,0.0,0.0,0.0,0.0,0.0,0.0,-2.5895,-2.5895,-2.5895,-2.5895,-2.5895,-2.5895,-2.5895,-2.5895,-2.5895,-2.5895,-2.5895,-2.6048,-2.6321,-2.6321,-2.6573,-2.7042,-2.7326,-2.7555,-2.7763,-2.8244,-2.8462,-2.8473,-2.8947,-2.9117,-2.9035,-2.885,-2.8932,-2.9117,-2.9209,-2.9024,-2.885,-2.9117,-2.9035,-2.8757,-2.8757,-2.8757,-2.8757,-2.8757,-2.8757,-2.8757,-2.8757,-2.8757,-2.8757,-2.8757,-2.8757,-2.8757,-2.8757,-2.8757,-2.8466,-2.722,-2.6924,-2.6446,-2.4538,-2.4152,-2.4152,-2.4152,-2.4152,-2.4152,-2.4152,-2.4152,-2.4152,-2.4152,-2.4152,-2.4152,-2.4152,-2.4152,-2.4152,-2.4152,-2.4152,-2.4152,-2.4152,-2.4152,-2.4152,-2.4152,-2.4152,-2.4152,-2.4152,-2.4152,-2.4152,-2.4152,-2.4152,-2.4152,-2.4152,-2.4152,-2.4152,0.0,0.0,0.0,0.0,0.0,0.0,-2.7255,-2.6704,-2.6135,0.0,0.0,0.0,0.0,0.0,0.0,0.0,0.0,0.0,0.0,0.0,0.0,0.0,0.0,0.0,0.0,-2.5895,-2.5895,-2.5895,-2.5895,-2.5895,-2.5895,-2.5895,-2.5895,-2.5895,-2.5895,-2.5895,-2.5895,-2.5895,-2.5895,-2.5895,-2.5895,-2.6125,-2.6551,-2.6605,-2.6846,-2.7349,-2.7842,-2.8083,-2.825,-2.9137,-2.9532,-2.9485,-2.9128,-2.9209,-2.9485,-2.9209,-2.8943,-2.885,-2.8943,-2.885,-2.8757,-2.8757,-2.8757,-2.8757,-2.8757,-2.8757,-2.8757,-2.8757,-2.8757,-2.8757,-2.8757,-2.8757,-2.8757,-2.8757,-2.8757,-2.856,-2.7778,-2.7589,-2.702,-2.4824,-2.444,-2.444,-2.444,-2.444,-2.444,-2.444,-2.4341,-2.4341,-2.4341,-2.4251,-2.4152,-2.4152,-2.4152,-2.4152,-2.4152,-2.4152,-2.4152,-2.4152,-2.4152,-2.4152,-2.4152,-2.4152,-2.4152,-2.4152,-2.4152,-2.4152,-2.4152,-2.4152,-2.4152,-2.4152,-2.4152,-2.4152,0.0,0.0,0.0,0.0,0.0,0.0,-2.7718,-2.7718,-2.7718,0.0,0.0,0.0,0.0,0.0,0.0,0.0,0.0,0.0,0.0,0.0,0.0,0.0,0.0,0.0,0.0,-2.5895,-2.5895,-2.5895,-2.5895,-2.5895,-2.5895,-2.5895,-2.5895,-2.5895,-2.5895,-2.5895,-2.5895,-2.5895,-2.5895,-2.5895,-2.5895,-2.595,-2.6059,-2.6452,-2.6843,-2.7297,-2.7776,-2.8476,-2.9114,-2.9306,-2.9489,-2.9485,-2.9852,-2.9943,-3.0125,-3.0397,-3.0034,-2.9393,-2.976,-2.9393,-2.8757,-2.8757,-2.8757,-2.8757,-2.8757,-2.8757,-2.8757,-2.8757,-2.8757,-2.8757,-2.8757,-2.8757,-2.8757,-2.8757,-2.8757,-2.856,-2.7778,-2.7589,-2.7305,-2.6264,-2.6071,-2.6071,-2.6071,-2.6071,-2.6071,-2.6071,-2.5489,-2.5109,-2.5109,-2.4538,-2.4152,-2.4152,-2.4152,-2.4152,-2.4152,-2.4152,-2.4152,-2.4152,-2.4152,-2.4152,-2.4152,-2.4152,-2.4152,-2.4152,-2.4152,-2.4152,-2.4152,-2.4152,-2.4152,-2.4152,-2.4152,-2.4152,0.0,0.0,0.0,-3.0304,0.0,0.0,0.0,-2.8652,0.0,0.0,0.0,0.0,0.0,0.0,0.0,0.0,0.0,0.0,0.0,0.0,0.0,0.0,0.0,0.0,0.0,-2.5895,-2.5895,-2.5895,-2.5895,-2.5895,-2.5895,-2.5895,-2.5895,-2.5895,-2.5895,-2.5895,-2.5895,-2.5895,-2.5895,-2.5895,-2.6135,-2.6218,-2.6229,-2.6724,-2.7004,-2.7277,-2.7776,-2.8214,-2.8723,-2.915,-2.9565,-2.9883,-2.9852,-3.0034,-3.0216,-2.9943,-2.9577,-2.9209,-2.9393,-2.9209,-2.8757,-2.8757,-2.8757,-2.8757,-2.8757,-2.8757,-2.8757,-2.8757,-2.8757,-2.8757,-2.8757,-2.8757,-2.8757,-2.8757,-2.8757,-2.8653,-2.8269,-2.8175,-2.8081,-2.7704,-2.76,-2.741,-2.6648,-2.6456,-2.6456,-2.6456,-2.5781,-2.5294,-2.5294,-2.4627,-2.4152,-2.4152,-2.4152,-2.4152,-2.4152,-2.4152,-2.4152,-2.4152,-2.4152,-2.4152,-2.4152,-2.4152,-2.4152,-2.4152,-2.4152,-2.4152,-2.4152,-2.4152,-2.4152,-2.4152,-2.4152,-2.4152,0.0,0.0,0.0,0.0,0.0,-3.0406,0.0,0.0,0.0,0.0,0.0,0.0,0.0,0.0,0.0,0.0,0.0,0.0,0.0,0.0,0.0,0.0,0.0,0.0,0.0,-2.5895,-2.5895,-2.5895,-2.5895,-2.5895,-2.5895,-2.5895,-2.5895,-2.5895,-2.5895,-2.5895,-2.5895,-2.5895,-2.5895,-2.5895,-2.629,-2.6528,-2.6528,-2.7021,-2.7267,-2.7383,-2.7716,-2.8029,-2.8229,-2.9068,-2.9744,-3.019,-2.9883,-3.0033,-3.0397,-2.9485,-2.9117,-2.9035,-2.8943,-2.885,-2.8757,-2.8757,-2.8757,-2.8757,-2.8757,-2.8757,-2.8757,-2.8757,-2.8757,-2.8757,-2.8757,-2.8757,-2.8757,-2.8757,-2.8757,-2.8757,-2.8757,-2.8757,-2.8757,-2.8757,-2.8757,-2.8373,-2.7125,-2.6935,-2.6935,-2.6935,-2.6254,-2.5674,-2.5577,-2.4913,-2.4341,-2.4251,-2.4152,-2.4152,-2.4152,-2.4152,-2.4152,-2.4152,-2.4152,-2.4152,-2.4152,-2.4152,-2.4152,-2.4152,-2.4152,-2.4152,-2.4152,-2.4152,-2.4152,-2.4152,-2.4152,-2.4152,0.0,0.0,0.0,0.0,-3.1495,0.0,0.0,0.0,0.0,0.0,0.0,0.0,0.0,0.0,0.0,0.0,0.0,0.0,0.0,0.0,0.0,0.0,0.0,0.0,0.0,0.0,-2.5895,-2.5895,-2.5895,-2.5895,-2.5895,-2.5895,-2.5895,-2.5895,-2.5895,-2.5895,-2.5895,-2.5895,-2.5895,-2.5895,-2.629,-2.6528,-2.6528,-2.7021,-2.7441,-2.78,-2.7859,-2.8385,-2.914,-2.927,-2.9618,-3.0145,-3.0587,-3.1077,-3.1484,-3.0859,-3.0397,-2.9943,-2.9577,-2.9117,-2.8757,-2.8757,-2.8757,-2.8757,-2.8757,-2.8757,-2.8757,-2.8757,-2.8757,-2.8757,-2.8757,-2.8757,-2.8757,-2.8757,-2.8757,-2.8757,-2.8757,-2.8757,-2.8757,-2.8757,-2.8757,-2.8746,-2.856,-2.856,-2.856,-2.856,-2.7882,-2.7115,-2.6456,-2.5684,-2.4913,-2.4251,-2.4152,-2.4152,-2.4152,-2.4152,-2.4152,-2.4152,-2.4152,-2.4152,-2.4152,-2.4152,-2.4152,-2.4152,-2.4152,-2.4152,-2.4152,-2.4152,-2.4152,-2.4152,-2.4152,-2.4152,0.0,0.0,0.0,0.0,0.0,0.0,0.0,0.0,-3.0646,0.0,0.0,0.0,0.0,0.0,0.0,0.0,0.0,0.0,0.0,0.0,0.0,0.0,0.0,0.0,0.0,0.0,0.0,0.0,0.0,-2.5895,-2.5895,-2.5895,-2.5895,-2.5895,-2.5895,-2.5895,-2.5895,-2.5895,-2.5895,-2.5895,-2.661,-2.694,-2.694,-2.7592,-2.8018,-2.8283,-2.8283,-2.8482,-2.8847,-2.8847,-2.9148,-2.9653,-2.9869,-3.0312,-3.0814,-3.0563,-3.0397,-3.0125,-2.9669,-2.9393,-2.9117,-2.885,-2.8757,-2.8757,-2.8757,-2.8757,-2.885,-2.9117,-2.9209,-2.9301,-2.9577,-2.9393,-2.9301,-2.9577,-2.9393,-2.9301,-2.9577,-2.9393,-2.9209,-2.9209,-2.9035,-2.8757,-2.8757,-2.8757,-2.8757,-2.8757,-2.7788,-2.6839,-2.6552,-2.5401,-2.4529,-2.4251,-2.4152,-2.4152,-2.4152,-2.4152,-2.4152,-2.4152,-2.4152,-2.4152,-2.4152,-2.4152,-2.4152,-2.4152,-2.4152,-2.4152,-2.4152,-2.4152,-2.4152,-2.4152,-2.4152,-2.4152,-3.2023,0.0,0.0,0.0,0.0,0.0,0.0,0.0,0.0,0.0,0.0,0.0,0.0,0.0,0.0,0.0,0.0,0.0,0.0,0.0,0.0,0.0,0.0,0.0,0.0,0.0,0.0,-2.5895,-2.5895,-2.5895,-2.5895,-2.5895,-2.5895,-2.5895,-2.5895,-2.5895,-2.5895,-2.5895,-2.5895,-2.5895,-2.6787,-2.7185,-2.7267,-2.8099,-2.851,-2.851,-2.851,-2.851,-2.851,-2.851,-2.8739,-2.91,-2.9244,-2.9606,-2.9942,-3.0148,-3.0281,-3.0306,-2.9669,-2.9393,-2.9301,-2.9209,-2.9128,-2.9035,-2.9117,-2.9209,-2.9209,-2.9577,-2.9669,-2.976,-3.0125,-2.9943,-2.976,-3.0125,-2.9943,-2.976,-3.0125,-2.9943,-2.9669,-2.9485,-2.9209,-2.8932,-2.885,-2.8757,-2.8757,-2.8757,-2.7694,-2.6733,-2.6552,-2.5304,-2.444,-2.4251,-2.4152,-2.4152,-2.4152,-2.4152,-2.4152,-2.4152,-2.4152,-2.4152,-2.4152,-2.4152,-2.4152,-2.4152,-2.4152,-2.4152,-2.4152,-2.4152,-2.4152,-2.4152,-2.4152,-2.4152,0.0,0.0,0.0,-3.1963,0.0,0.0,0.0,0.0,-3.1609,0.0,0.0,0.0,0.0,0.0,0.0,-3.0533,0.0,0.0,0.0,0.0,0.0,0.0,0.0,0.0,0.0,0.0,0.0,-2.5895,-2.5895,-2.5895,-2.5895,-2.5895,-2.5895,-2.5895,-2.5895,-2.5895,-2.5895,-2.5895,-2.5895,-2.5895,-2.6787,-2.7185,-2.7267,-2.8099,-2.851,-2.851,-2.851,-2.851,-2.851,-2.851,-2.8522,-2.8595,-2.91,-2.9316,-2.939,-3.0016,-3.0449,-3.0769,-2.9852,-2.9209,-2.8943,-2.9852,-2.9852,-2.9577,-3.0034,-3.0125,-3.0125,-3.0216,-3.0216,-3.0216,-3.0216,-3.0216,-3.0216,-3.0216,-3.0216,-3.0216,-3.0216,-3.0216,-3.0034,-2.9577,-2.9485,-2.9301,-2.885,-2.8757,-2.8757,-2.8757,-2.807,-2.7305,-2.6552,-2.5781,-2.5011,-2.4251,-2.4152,-2.4152,-2.4152,-2.4152,-2.4152,-2.4152,-2.4152,-2.4152,-2.4152,-2.4152,-2.4152,-2.4152,-2.4152,-2.4152,-2.4152,-2.4152,-2.4152,-2.4152,-2.4152,-2.4152,0.0,0.0,-3.2182,-3.1963,0.0,0.0,0.0,0.0,0.0,0.0,0.0,0.0,0.0,0.0,-3.1676,-3.1476,-3.1053,0.0,0.0,0.0,0.0,0.0,0.0,0.0,0.0,0.0,0.0,-2.5895,-2.5895,-2.5895,-2.5895,-2.5895,-2.5895,-2.5895,-2.5895,-2.5895,-2.5895,-2.5895,-2.6063,-2.629,-2.694,-2.736,-2.7708,-2.8271,-2.851,-2.851,-2.851,-2.851,-2.851,-2.851,-2.851,-2.8522,-2.8703,-2.8991,-2.9388,-2.9929,-3.0441,-3.0842,-3.0551,-3.0125,-2.976,-3.0125,-3.0125,-3.0034,-3.0125,-3.0216,-3.0306,-3.0578,-3.0668,-3.0758,-3.1116,-3.0937,-3.0758,-3.1128,-3.0949,-3.0769,-3.1128,-3.0937,-3.0578,-3.0487,-3.0216,-2.9852,-2.9301,-2.9301,-2.9117,-2.885,-2.7694,-2.6733,-2.6552,-2.5401,-2.444,-2.4251,-2.4627,-2.4726,-2.4251,-2.4152,-2.444,-2.4913,-2.4913,-2.5206,-2.5693,-2.5206,-2.5206,-2.5684,-2.5206,-2.5206,-2.5684,-2.5684,-2.5684,-2.5684,-2.5684,-2.5401,-3.2182,-3.2182,0.0,-3.2036,-3.2036,0.0,-3.2036,0.0,0.0,0.0,0.0,0.0,0.0,0.0,0.0,-3.189,-3.1656,-3.1508,0.0,-3.136,0.0,0.0,0.0,0.0,0.0,0.0,-2.6539,-2.5895,-2.5895,-2.5895,0.0,0.0,-2.5895,-2.5895,-2.5895,-2.5895,-2.5895,-2.5895,-2.6135,-2.6528,-2.7021,-2.7452,-2.7893,-2.8351,-2.851,-2.851,-2.851,-2.851,-2.851,-2.851,-2.851,-2.851,-2.851,-2.8715,-2.9088,-2.9617,-3.0181,-3.0668,-3.0826,-3.0606,-3.0216,-3.0578,-3.0578,-3.0487,-3.0668,-3.0758,-3.0758,-3.1128,-3.1217,-3.1306,-3.1572,-3.1484,-3.1306,-3.1661,-3.1395,-3.1306,-3.1661,-3.1395,-3.1128,-3.0949,-3.0487,-3.0034,-2.9577,-2.9393,-2.9117,-2.885,-2.7694,-2.6924,-2.6924,-2.5781,-2.502,-2.502,-2.5392,-2.5489,-2.502,-2.502,-2.5206,-2.5684,-2.5781,-2.5974,-2.6456,-2.5974,-2.5974,-2.6456,-2.5974,-2.5964,-2.6456,-2.6456,-2.6456,-2.6456,-2.6456,-2.635]},{"header":{"parameterUnit":"m.s-1","parameterCategory":1,"la1":30.6,"la2":29.2853,"lo1":-89.7004,"lo2":-87.6739,"dy":0.0162,"dx":0.0183,"nx":112,"ny":82,"refTime":"2023-07-27T06:00:00:Z","depth":0,"parameterNumber":3,"parameterNumberName":"V-component_of_WINDS"},"data":[0.0,0.0,0.0,0.0,0.0,0.0,0.0,0.0,0.0,0.0,0.0,0.0,0.0,0.0,0.0,0.0,0.0,0.0,0.0,0.0,0.0,0.0,0.0,0.0,0.0,0.0,0.0,0.0,0.0,0.0,0.0,0.0,0.0,0.0,0.0,0.0,0.0,0.0,0.0,0.0,0.0,0.0,0.0,0.0,0.0,0.0,0.0,0.0,0.0,0.0,0.0,0.0,0.0,0.0,0.0,0.0,0.0,0.0,0.0,0.0,0.0,0.0,0.0,0.0,0.0,0.0,0.0,0.0,0.0,0.0,0.0,0.0,0.0,0.0,0.0,0.0,0.0,0.0,0.0,0.0,0.0,0.0,0.0,0.0,0.0,0.0,0.0,0.0,0.0,0.0,0.0,-3.2386,-3.2705,-3.2916,-3.2916,-3.2916,-3.2916,-3.2916,0.0,0.0,0.0,0.0,0.0,0.0,0.0,0.0,0.0,0.0,0.0,0.0,0.0,0.0,0.0,0.0,0.0,0.0,0.0,0.0,0.0,0.0,0.0,0.0,0.0,0.0,0.0,0.0,0.0,0.0,0.0,0.0,0.0,0.0,0.0,0.0,0.0,0.0,0.0,0.0,0.0,0.0,0.0,0.0,0.0,0.0,0.0,0.0,0.0,0.0,0.0,0.0,0.0,0.0,0.0,0.0,0.0,0.0,0.0,0.0,0.0,0.0,0.0,0.0,0.0,0.0,0.0,0.0,0.0,0.0,0.0,0.0,0.0,0.0,0.0,0.0,0.0,0.0,0.0,0.0,0.0,0.0,0.0,0.0,0.0,0.0,0.0,0.0,0.0,0.0,0.0,0.0,0.0,0.0,0.0,0.0,0.0,0.0,0.0,0.0,0.0,0.0,0.0,0.0,-3.242,-3.277,-3.2866,-3.2916,-3.2916,-3.2916,-3.2916,-3.2916,0.0,0.0,0.0,0.0,0.0,0.0,0.0,0.0,0.0,0.0,0.0,0.0,0.0,0.0,0.0,0.0,0.0,0.0,0.0,0.0,0.0,0.0,0.0,0.0,0.0,0.0,0.0,0.0,0.0,0.0,0.0,0.0,0.0,0.0,0.0,0.0,0.0,0.0,0.0,0.0,0.0,0.0,0.0,0.0,0.0,0.0,0.0,0.0,0.0,0.0,0.0,0.0,0.0,0.0,0.0,0.0,0.0,0.0,0.0,0.0,0.0,0.0,0.0,0.0,0.0,0.0,0.0,0.0,0.0,0.0,0.0,0.0,0.0,0.0,0.0,0.0,0.0,0.0,0.0,0.0,0.0,0.0,0.0,0.0,0.0,0.0,0.0,0.0,0.0,0.0,0.0,0.0,0.0,0.0,0.0,0.0,0.0,0.0,0.0,0.0,0.0,0.0,0.0,-3.2403,-3.2705,-3.2884,-3.2916,-3.2916,-3.2916,-3.2916,-3.2916,-3.2916,-3.2916,0.0,0.0,0.0,0.0,0.0,0.0,0.0,0.0,0.0,0.0,0.0,0.0,0.0,0.0,0.0,0.0,0.0,0.0,0.0,0.0,0.0,0.0,0.0,0.0,0.0,0.0,0.0,0.0,0.0,0.0,0.0,0.0,0.0,0.0,0.0,0.0,0.0,0.0,0.0,0.0,0.0,0.0,0.0,0.0,0.0,0.0,0.0,0.0,0.0,0.0,0.0,0.0,0.0,0.0,0.0,0.0,0.0,0.0,0.0,0.0,0.0,0.0,0.0,0.0,0.0,0.0,0.0,0.0,0.0,0.0,0.0,0.0,0.0,0.0,0.0,0.0,0.0,0.0,0.0,0.0,0.0,0.0,0.0,0.0,0.0,0.0,0.0,0.0,0.0,0.0,0.0,0.0,0.0,0.0,0.0,0.0,0.0,0.0,0.0,0.0,0.0,0.0,-3.2916,-3.2916,-3.2916,-3.2916,-3.2916,-3.2916,-3.2916,-3.2916,-3.2916,-3.2916,0.0,0.0,0.0,0.0,0.0,0.0,0.0,0.0,0.0,0.0,0.0,0.0,0.0,0.0,0.0,0.0,0.0,0.0,0.0,0.0,0.0,0.0,0.0,0.0,0.0,0.0,0.0,0.0,0.0,0.0,0.0,0.0,0.0,0.0,0.0,0.0,0.0,0.0,0.0,0.0,0.0,0.0,0.0,0.0,0.0,0.0,0.0,0.0,0.0,0.0,0.0,0.0,0.0,0.0,0.0,0.0,0.0,0.0,0.0,0.0,0.0,0.0,0.0,0.0,0.0,0.0,0.0,0.0,0.0,0.0,0.0,0.0,0.0,0.0,0.0,0.0,0.0,0.0,0.0,0.0,0.0,0.0,0.0,0.0,0.0,0.0,0.0,0.0,0.0,0.0,0.0,0.0,0.0,0.0,0.0,0.0,0.0,0.0,0.0,0.0,0.0,0.0,-3.2916,-3.2916,-3.2916,-3.2916,-3.2916,-3.2916,-3.2916,-3.2916,-3.2916,-3.2916,0.0,0.0,0.0,0.0,0.0,0.0,0.0,0.0,0.0,0.0,0.0,0.0,0.0,0.0,0.0,0.0,0.0,0.0,0.0,0.0,0.0,0.0,0.0,0.0,0.0,0.0,0.0,0.0,0.0,0.0,0.0,0.0,0.0,0.0,0.0,0.0,0.0,0.0,0.0,0.0,0.0,0.0,0.0,0.0,0.0,0.0,0.0,0.0,0.0,0.0,0.0,0.0,0.0,0.0,0.0,0.0,0.0,0.0,0.0,0.0,0.0,0.0,0.0,0.0,0.0,0.0,0.0,0.0,0.0,0.0,0.0,0.0,0.0,0.0,0.0,0.0,0.0,0.0,0.0,0.0,0.0,0.0,0.0,0.0,0.0,0.0,0.0,0.0,0.0,0.0,0.0,0.0,0.0,0.0,0.0,0.0,0.0,0.0,0.0,0.0,0.0,0.0,-3.2916,-3.2916,0.0,-3.2916,-3.2916,-3.2916,-3.2916,-3.2916,-3.2916,0.0,0.0,0.0,0.0,0.0,0.0,0.0,0.0,0.0,0.0,0.0,0.0,0.0,0.0,0.0,0.0,0.0,0.0,0.0,0.0,0.0,0.0,0.0,0.0,0.0,0.0,0.0,0.0,0.0,0.0,0.0,0.0,0.0,0.0,0.0,0.0,0.0,0.0,0.0,0.0,0.0,0.0,0.0,0.0,0.0,0.0,0.0,0.0,0.0,0.0,0.0,0.0,0.0,0.0,0.0,0.0,0.0,0.0,0.0,0.0,0.0,0.0,0.0,0.0,0.0,0.0,0.0,0.0,0.0,0.0,0.0,0.0,0.0,0.0,0.0,0.0,0.0,0.0,0.0,0.0,0.0,0.0,0.0,0.0,0.0,0.0,0.0,0.0,0.0,0.0,0.0,0.0,0.0,0.0,0.0,0.0,0.0,0.0,0.0,0.0,0.0,0.0,-3.3616,-3.3616,-3.3616,0.0,-3.3616,-3.3616,-3.3616,-3.3401,-3.3277,-3.3277,0.0,0.0,0.0,0.0,0.0,0.0,0.0,0.0,0.0,0.0,0.0,0.0,0.0,0.0,0.0,0.0,0.0,0.0,0.0,0.0,0.0,0.0,0.0,0.0,0.0,0.0,0.0,0.0,0.0,0.0,0.0,0.0,0.0,0.0,0.0,0.0,0.0,0.0,0.0,0.0,0.0,0.0,0.0,0.0,0.0,0.0,0.0,0.0,0.0,0.0,0.0,0.0,0.0,0.0,0.0,0.0,0.0,0.0,0.0,0.0,0.0,0.0,0.0,0.0,0.0,0.0,0.0,0.0,0.0,0.0,0.0,0.0,0.0,0.0,0.0,0.0,0.0,0.0,0.0,0.0,0.0,0.0,0.0,0.0,0.0,0.0,0.0,0.0,0.0,0.0,0.0,0.0,0.0,0.0,0.0,0.0,0.0,0.0,0.0,0.0,0.0,0.0,-3.5204,-3.5204,-3.5204,-3.5204,-3.5204,-3.5204,-3.5204,-3.4543,-3.4115,0.0,0.0,0.0,0.0,0.0,0.0,0.0,0.0,0.0,0.0,0.0,0.0,0.0,0.0,0.0,0.0,0.0,0.0,0.0,0.0,0.0,0.0,0.0,0.0,0.0,0.0,0.0,0.0,0.0,0.0,0.0,0.0,0.0,0.0,0.0,0.0,0.0,0.0,0.0,0.0,0.0,0.0,0.0,0.0,0.0,0.0,0.0,0.0,0.0,0.0,0.0,0.0,0.0,0.0,0.0,0.0,0.0,0.0,0.0,0.0,0.0,0.0,0.0,0.0,0.0,0.0,0.0,0.0,0.0,0.0,0.0,0.0,0.0,0.0,0.0,0.0,0.0,0.0,0.0,0.0,0.0,0.0,0.0,0.0,0.0,0.0,0.0,0.0,0.0,0.0,0.0,0.0,0.0,0.0,0.0,0.0,0.0,0.0,0.0,0.0,0.0,0.0,0.0,-3.5204,-3.5204,-3.5204,-3.5204,-3.5204,-3.5204,-3.5204,-3.5007,-3.4882,-3.4882,0.0,0.0,0.0,0.0,0.0,0.0,0.0,0.0,0.0,0.0,0.0,0.0,0.0,0.0,0.0,0.0,0.0,0.0,0.0,0.0,0.0,0.0,0.0,0.0,0.0,0.0,0.0,0.0,0.0,0.0,0.0,0.0,0.0,0.0,0.0,0.0,0.0,0.0,0.0,0.0,0.0,0.0,0.0,0.0,0.0,0.0,0.0,0.0,0.0,0.0,0.0,0.0,0.0,0.0,0.0,0.0,0.0,0.0,0.0,0.0,0.0,0.0,0.0,0.0,0.0,0.0,0.0,0.0,0.0,0.0,0.0,0.0,0.0,0.0,0.0,0.0,0.0,0.0,0.0,0.0,0.0,0.0,0.0,0.0,0.0,0.0,0.0,0.0,0.0,0.0,0.0,0.0,0.0,0.0,0.0,0.0,0.0,0.0,0.0,0.0,0.0,0.0,-3.6167,-3.6167,-3.6167,-3.6167,-3.6167,-3.6167,-3.6167,-3.5864,-3.5685,-3.5685,0.0,0.0,0.0,0.0,0.0,0.0,0.0,0.0,0.0,0.0,0.0,0.0,0.0,0.0,0.0,0.0,0.0,0.0,0.0,0.0,0.0,0.0,0.0,0.0,0.0,0.0,0.0,0.0,0.0,0.0,0.0,0.0,0.0,0.0,0.0,0.0,0.0,0.0,0.0,0.0,0.0,0.0,0.0,0.0,0.0,0.0,0.0,0.0,0.0,0.0,0.0,0.0,0.0,0.0,0.0,0.0,0.0,0.0,0.0,0.0,0.0,0.0,0.0,0.0,0.0,0.0,0.0,0.0,0.0,0.0,0.0,0.0,0.0,0.0,0.0,0.0,0.0,0.0,0.0,0.0,0.0,0.0,0.0,0.0,0.0,0.0,0.0,0.0,0.0,0.0,0.0,0.0,0.0,0.0,0.0,0.0,0.0,0.0,0.0,0.0,0.0,0.0,-3.7577,-3.7594,-3.7577,-3.7577,-3.7577,-3.7577,-3.7577,-3.6916,-3.6506,-3.6506,0.0,0.0,0.0,0.0,0.0,0.0,0.0,0.0,0.0,0.0,0.0,0.0,0.0,0.0,0.0,0.0,0.0,0.0,0.0,0.0,0.0,0.0,0.0,0.0,0.0,0.0,0.0,0.0,0.0,0.0,0.0,0.0,0.0,0.0,0.0,0.0,0.0,0.0,0.0,0.0,0.0,0.0,0.0,0.0,0.0,0.0,0.0,0.0,0.0,0.0,0.0,0.0,0.0,0.0,0.0,0.0,0.0,0.0,0.0,0.0,-3.3271,0.0,0.0,0.0,0.0,0.0,0.0,0.0,0.0,0.0,0.0,0.0,0.0,0.0,0.0,0.0,0.0,0.0,0.0,0.0,0.0,0.0,0.0,0.0,0.0,0.0,0.0,0.0,0.0,0.0,0.0,0.0,0.0,0.0,0.0,0.0,0.0,0.0,0.0,0.0,0.0,0.0,-3.7372,-3.7521,-3.7577,-3.7577,-3.7577,-3.7577,-3.7577,-3.7434,-3.7327,-3.7327,0.0,0.0,0.0,0.0,0.0,0.0,0.0,0.0,0.0,0.0,0.0,0.0,0.0,0.0,0.0,0.0,0.0,0.0,0.0,0.0,0.0,0.0,0.0,0.0,0.0,0.0,0.0,0.0,0.0,0.0,0.0,0.0,0.0,0.0,0.0,0.0,0.0,0.0,0.0,0.0,0.0,0.0,0.0,0.0,0.0,0.0,0.0,0.0,0.0,0.0,0.0,0.0,0.0,0.0,0.0,0.0,0.0,0.0,0.0,0.0,0.0,-3.3848,0.0,0.0,0.0,0.0,0.0,0.0,0.0,0.0,0.0,0.0,0.0,0.0,0.0,0.0,0.0,0.0,0.0,0.0,0.0,0.0,0.0,0.0,0.0,0.0,0.0,0.0,0.0,0.0,0.0,0.0,0.0,0.0,0.0,0.0,0.0,0.0,0.0,0.0,0.0,0.0,-3.7447,-3.7558,-3.7577,-3.7577,-3.7577,-3.7577,-3.7577,-3.7577,-3.7577,-3.7577,-3.7202,0.0,0.0,0.0,0.0,0.0,0.0,0.0,0.0,0.0,0.0,0.0,0.0,0.0,0.0,0.0,0.0,0.0,0.0,0.0,0.0,0.0,0.0,0.0,0.0,0.0,0.0,0.0,0.0,0.0,0.0,0.0,0.0,0.0,0.0,0.0,0.0,0.0,0.0,0.0,0.0,0.0,0.0,0.0,0.0,0.0,0.0,0.0,0.0,0.0,0.0,0.0,0.0,0.0,-3.5283,-3.5635,-3.5653,-3.6203,-3.6643,-3.6925,-3.5374,-3.4833,-3.5039,0.0,0.0,0.0,0.0,0.0,0.0,0.0,0.0,0.0,0.0,0.0,0.0,0.0,0.0,0.0,0.0,0.0,0.0,0.0,0.0,0.0,0.0,0.0,0.0,0.0,-3.7558,-3.738,0.0,0.0,0.0,0.0,0.0,0.0,0.0,0.0,0.0,0.0,0.0,0.0,-3.7521,-3.7594,-3.7577,-3.7577,-3.7577,-3.7577,-3.7577,-3.7577,-3.7577,-3.7577,-3.7577,-3.7577,0.0,0.0,0.0,0.0,0.0,0.0,0.0,0.0,0.0,0.0,0.0,0.0,0.0,0.0,0.0,0.0,0.0,0.0,0.0,0.0,0.0,0.0,0.0,0.0,0.0,0.0,0.0,0.0,0.0,0.0,0.0,0.0,-3.0426,-3.0468,0.0,0.0,0.0,0.0,0.0,0.0,0.0,0.0,0.0,0.0,0.0,0.0,0.0,-3.526,-3.5921,-3.6347,-3.6523,-3.6523,-3.7049,-3.7269,-3.7269,-3.7376,-3.7449,-3.7485,-3.7235,0.0,-3.6601,-3.6562,0.0,0.0,0.0,0.0,0.0,0.0,0.0,0.0,0.0,0.0,0.0,0.0,0.0,0.0,0.0,0.0,0.0,0.0,0.0,0.0,0.0,0.0,-3.7415,-3.7354,-3.7334,-3.7261,0.0,-3.7283,-3.7558,-3.7372,-3.7447,0.0,0.0,0.0,0.0,0.0,0.0,0.0,-3.7423,-3.7484,-3.7577,-3.7577,-3.7577,-3.7577,-3.7577,-3.7577,-3.7577,-3.7577,-3.7577,-3.7577,-3.7577,-3.7755,0.0,0.0,0.0,0.0,0.0,0.0,0.0,0.0,0.0,0.0,0.0,0.0,0.0,0.0,0.0,0.0,0.0,0.0,0.0,0.0,0.0,0.0,0.0,0.0,0.0,0.0,0.0,0.0,0.0,-3.1139,-3.1288,-3.1686,-3.2017,-3.2216,0.0,0.0,0.0,0.0,0.0,0.0,0.0,0.0,0.0,-3.5749,-3.6012,-3.6409,-3.6978,-3.7206,-3.7281,-3.7299,-3.7966,-3.8272,-3.829,-3.8701,-3.8897,-3.8897,-3.8897,-3.8765,-3.8522,-3.7636,-3.715,-3.6939,0.0,0.0,0.0,0.0,-3.6316,-3.6603,-3.6603,-3.6781,0.0,-3.6995,0.0,0.0,0.0,0.0,0.0,0.0,0.0,0.0,0.0,0.0,0.0,-3.8413,-3.8373,-3.8332,-3.8251,-3.8355,-3.8351,0.0,-3.8073,-3.8357,-3.8524,0.0,0.0,0.0,0.0,0.0,-3.8798,-3.8821,-3.8897,-3.8897,-3.8522,-3.8272,-3.8272,-3.7844,-3.7577,-3.7577,-3.7577,-3.7577,-3.7577,-3.7721,-3.7753,0.0,0.0,0.0,0.0,0.0,0.0,0.0,0.0,0.0,0.0,0.0,0.0,0.0,0.0,0.0,0.0,0.0,0.0,0.0,0.0,0.0,0.0,0.0,0.0,0.0,0.0,0.0,0.0,-3.1901,-3.21,-3.2613,-3.2979,-3.3095,0.0,0.0,0.0,0.0,0.0,0.0,-3.5715,-3.5732,-3.6079,-3.6858,-3.7079,-3.7517,-3.8183,-3.8053,-3.8053,-3.8201,-3.8808,-3.9093,-3.9111,-3.9664,-3.9914,-3.9914,-3.9914,-3.9914,-3.9825,-3.8665,-3.8183,-3.8146,-3.775,-3.7615,-3.7615,-3.7236,-3.7318,-3.7655,-3.7655,-3.7922,-3.8183,-3.8183,0.0,-3.7842,-3.7633,0.0,0.0,0.0,0.0,-3.8265,-3.8993,-3.9193,-3.9193,-3.9151,-3.9108,-3.9108,-3.9066,-3.918,-3.9136,0.0,-3.8699,-3.9042,-3.9164,0.0,0.0,0.0,0.0,-3.9729,-3.9736,-3.97,-3.974,-3.9797,-3.9337,-3.9017,-3.9093,-3.8362,-3.7898,-3.7898,-3.7702,-3.7577,-3.7577,-3.7721,-3.7949,-3.8285,0.0,0.0,0.0,0.0,0.0,0.0,0.0,0.0,0.0,0.0,0.0,0.0,0.0,0.0,0.0,0.0,0.0,0.0,0.0,0.0,0.0,0.0,0.0,0.0,0.0,0.0,0.0,0.0,0.0,-3.268,-3.3694,0.0,0.0,0.0,0.0,-3.4927,-3.488,-3.5283,-3.613,-3.6172,-3.6951,-3.8643,-3.8201,-3.8536,-3.9789,-3.9335,-3.9335,-3.9789,-3.9843,-3.986,-3.986,-3.9896,-3.9914,-3.9914,-3.9914,-3.9914,-3.9896,-3.9825,-3.9789,-3.975,-3.9536,-3.9576,-3.9711,-3.9496,-3.9576,-3.975,-3.975,-3.975,-3.9789,-3.9789,-3.9633,-3.9496,-3.9456,-3.9294,0.0,0.0,-3.921,-3.921,-3.9193,-3.9193,-3.9151,-3.8972,-3.8929,-3.8842,-3.8666,-3.9174,-3.9586,0.0,-3.9175,-3.9353,-3.9939,0.0,-4.0078,-4.0078,-4.006,-3.987,-3.9298,-3.9234,-3.9317,-3.9615,-3.958,-3.9642,-3.9822,-3.9182,-3.8754,-3.8754,-3.8005,-3.7577,-3.7577,-3.8086,-3.8252,-3.8018,-3.8688,0.0,0.0,0.0,0.0,0.0,0.0,0.0,0.0,0.0,0.0,0.0,0.0,0.0,0.0,0.0,0.0,0.0,0.0,0.0,0.0,0.0,0.0,0.0,0.0,0.0,0.0,0.0,0.0,-3.4054,-3.4476,0.0,0.0,-3.5165,-3.5729,-3.6051,-3.6038,-3.6426,-3.716,-3.724,-3.7496,-3.8146,-3.8562,-3.8995,-3.9441,-3.9562,-3.974,-3.9914,-4.0431,-4.0681,-4.0699,-4.1217,-4.1431,-4.1431,-4.1431,-4.1431,-4.1431,-4.1431,-4.0842,-3.9914,-3.9836,-3.9836,-3.9875,-3.9836,-3.9836,-3.9914,-3.9914,-3.9914,-3.9875,-3.9615,-3.9435,-3.9317,-3.921,-3.921,-3.9315,-3.9687,-3.98,-3.9905,-4.0197,-4.0273,-4.0273,-4.0199,-4.0199,-4.0153,-4.0107,-4.0267,-4.0417,-4.0325,-4.0273,-4.036,-4.0579,-4.0735,-4.0826,-4.0826,-4.0961,-4.1007,-4.0753,-4.0762,-4.0848,-4.106,-4.066,-4.0441,-4.0642,-3.9968,-3.9521,-3.9521,-3.879,-3.838,-3.838,-3.8238,-3.8186,-3.8252,-3.8695,-3.895,0.0,0.0,0.0,0.0,0.0,0.0,0.0,0.0,0.0,0.0,0.0,0.0,0.0,0.0,0.0,0.0,0.0,0.0,0.0,0.0,0.0,0.0,0.0,0.0,0.0,0.0,-3.4429,-3.5052,-3.5382,-3.5438,-3.5263,-3.592,-3.6506,-3.6824,-3.681,-3.7124,-3.7756,-3.779,-3.7987,-3.8367,-3.8995,-3.9486,-3.9748,-4.0049,-4.0217,-4.0217,-4.0872,-4.1221,-4.1239,-4.1996,-4.2287,-4.2287,-4.2287,-4.2287,-4.2287,-4.2287,-4.1663,-4.0717,-4.0717,-4.0717,-4.0717,-4.0717,-4.0659,-4.058,-4.0517,-4.0458,-4.0435,-4.0162,-4.0059,-3.9982,-3.9826,-3.9913,-4.0061,-4.0384,-4.0495,-4.0527,-4.0844,-4.0888,-4.0888,-4.0888,-4.0888,-4.0888,-4.0888,-4.0888,-4.0888,-4.0888,-4.0888,-4.0888,-4.0888,-4.0995,-4.1088,-4.1088,-4.1226,-4.138,-4.1453,-4.1453,-4.1587,-4.1892,-4.1474,-4.1257,-4.1502,-4.077,-4.0307,-4.0307,-3.9593,-3.9075,-3.8826,-3.8905,-3.8731,-3.8252,-3.8621,-3.8892,-3.9101,0.0,0.0,0.0,0.0,0.0,0.0,0.0,0.0,0.0,0.0,0.0,0.0,0.0,0.0,0.0,0.0,0.0,0.0,0.0,0.0,0.0,0.0,0.0,-3.5616,-3.5211,-3.5105,-3.5577,-3.6282,-3.6522,-3.6074,-3.7081,-3.7614,-3.7186,-3.7135,-3.7336,-3.781,-3.7858,-3.8401,-3.9525,-3.9623,-4.0048,-4.0772,-4.0871,-4.0871,-4.0871,-4.1335,-4.1542,-4.156,-4.2115,-4.2358,-4.2358,-4.2358,-4.2358,-4.2358,-4.2358,-4.2358,-4.2358,-4.2305,-4.2287,-4.2287,-4.2287,-4.2145,-4.1874,-4.1675,-4.1604,-4.1604,-4.1604,-4.1604,-4.156,-4.156,-4.156,-4.1498,-4.1255,-4.1209,-4.1163,-4.0965,-4.0888,-4.0888,-4.0888,-4.0888,-4.0888,-4.0888,-4.0888,-4.0888,-4.0888,-4.0888,-4.0888,-4.0888,-4.0888,-4.0888,-4.0888,-4.0888,0.0,-4.1163,-4.1209,-4.1391,-4.1831,-4.1874,-4.1977,-4.2287,-4.1573,-4.1145,-4.1145,-4.0396,-3.9629,-3.8915,-4.0111,-3.9922,-3.809,-3.8528,-3.8892,-3.9101,0.0,0.0,0.0,0.0,0.0,0.0,0.0,0.0,0.0,0.0,0.0,0.0,0.0,0.0,0.0,0.0,0.0,0.0,0.0,0.0,0.0,0.0,-3.626,-3.5701,-3.5971,-3.6139,-3.5919,-3.652,-3.6937,-3.6804,-3.7087,-3.7469,-3.7864,-3.7914,-3.8181,-3.8835,-3.9228,-3.9412,-3.9394,-4.0607,-4.118,-4.1019,-4.231,-4.278,-4.2391,-4.2922,-4.2969,-4.2618,-4.3127,-4.3374,-4.3419,-4.3792,-4.3896,-4.3757,-4.3757,-4.3625,-4.3394,-4.2608,-4.2287,-4.2287,-4.2287,-4.2246,-4.2145,-4.1736,-4.1604,-4.156,-4.1363,-4.1226,-4.1105,-4.1105,-4.1105,-4.1059,-4.1012,-4.0965,-4.0965,-4.0918,-4.0888,-4.0888,-4.0888,-4.0888,-4.0888,-4.0888,-4.0888,-4.0888,-4.0888,-4.0888,-4.0888,-4.0888,-4.0888,-4.0888,-4.0888,-4.0888,0.0,-4.0965,-4.0965,-4.1088,-4.1346,-4.1391,-4.1569,-4.1959,-4.1824,-4.1783,-4.1966,-4.1217,-4.0681,-4.0485,-4.0435,-4.0003,-3.9107,-3.8915,-3.8822,0.0,0.0,0.0,0.0,0.0,0.0,0.0,0.0,0.0,0.0,0.0,0.0,0.0,0.0,0.0,0.0,0.0,0.0,0.0,0.0,0.0,0.0,-3.7364,-3.7528,-3.6632,-3.7058,-3.7301,-3.6815,-3.7418,-3.777,-3.7566,-3.7847,-3.8195,-3.8626,-3.8659,-3.8974,-3.9702,-4.0024,-4.0141,-4.0166,-4.139,-4.1766,-4.1238,-4.2484,-4.2859,-4.2342,-4.2842,-4.3093,-4.3044,-4.355,-4.3898,0.0,-4.4476,-4.4537,-4.4423,-4.4351,-4.4261,0.0,0.0,0.0,0.0,0.0,-4.1831,-4.1788,-4.1408,-4.129,-4.129,-4.1134,-4.1012,-4.0888,-4.0888,-4.0888,-4.0888,-4.0888,-4.0888,-4.0888,-4.0888,-4.0888,-4.0888,-4.0888,-4.0888,-4.0888,-4.0888,-4.0888,-4.0888,-4.0888,-4.0888,0.0,-4.0888,-4.0888,-4.0888,-4.0888,-4.0888,-4.0918,-4.0995,-4.1059,-4.1088,-4.1363,-4.1436,-4.1613,-4.1892,-4.2019,0.0,0.0,0.0,-4.1672,-4.1773,-4.0831,0.0,0.0,0.0,-3.9105,-3.8792,0.0,0.0,0.0,-3.896,-3.895,0.0,0.0,0.0,0.0,0.0,0.0,0.0,0.0,0.0,0.0,0.0,0.0,0.0,0.0,0.0,0.0,-3.877,-3.9068,-3.8248,-3.8557,-3.8614,-3.7925,-3.8484,-3.8791,-3.838,-3.8974,-3.9404,-3.9404,-3.9471,-3.9802,-4.0464,0.0,0.0,0.0,0.0,-4.2064,-4.1484,-4.2093,-4.2181,-4.1657,-4.2198,-4.2702,-4.3083,-4.3698,-4.4254,-4.468,-4.4787,-4.4787,-4.4743,-4.4554,-4.4501,-4.4441,-4.3303,-4.2868,-4.2735,-4.1806,-4.147,-4.147,-4.1224,0.0,0.0,-4.1194,-4.1078,-4.1009,-4.1009,-4.0957,-4.0888,-4.0888,-4.0888,-4.0888,-4.0888,-4.0888,-4.0888,-4.0888,-4.0888,-4.0888,-4.0888,-4.0888,-4.0888,-4.0888,-4.0888,-4.0888,-4.0888,-4.0888,-4.0888,-4.0888,-4.0888,-4.0965,-4.1163,-4.1163,-4.1272,-4.1515,0.0,0.0,-4.1874,-4.2103,-4.2287,-4.2287,-4.2287,-4.2391,-4.2634,-4.1193,-4.0547,-4.0883,-4.0294,-3.9663,-3.8951,-3.9137,-3.9194,-3.9101,-3.9101,-3.9165,0.0,0.0,0.0,0.0,0.0,0.0,0.0,0.0,0.0,0.0,0.0,0.0,0.0,0.0,0.0,-3.9152,-3.9485,-3.9755,-4.0173,-4.0324,-3.9816,-3.8303,-3.8766,-3.9199,-3.9126,-3.9736,-4.0166,-4.0166,-4.068,-4.1061,-4.121,-4.1636,0.0,-4.1271,-4.2311,-4.2668,-4.2104,-4.3253,-4.3612,-4.3197,0.0,0.0,-4.3514,-4.4555,-4.5078,-4.518,-4.5922,-4.6083,-4.5892,-4.56,-4.5035,-4.4309,-4.4102,-4.3849,-4.3629,-4.3219,-4.3166,-4.3343,-4.2913,-4.2864,-4.2992,-4.2815,-4.2302,-4.1767,-4.1767,-4.1354,0.0,-4.0888,-4.0888,-4.0888,-4.0888,-4.0888,-4.0888,-4.0888,-4.0888,-4.0888,-4.0888,-4.0888,-4.0888,-4.0888,-4.0888,-4.0888,-4.0888,-4.0888,-4.0888,-4.0888,-4.0888,-4.0918,-4.0965,-4.0965,-4.0965,-4.1012,-4.1226,-4.1436,-4.1648,-4.1849,-4.2061,-4.2287,-4.2287,-4.2328,-4.2391,-4.1457,-4.1094,-4.1432,-4.0884,-4.0349,-3.978,-4.0007,-3.9788,-3.9101,-3.9101,-3.9129,0.0,0.0,0.0,0.0,0.0,0.0,0.0,0.0,0.0,0.0,0.0,-3.7534,0.0,0.0,-3.944,-3.9768,-4.0262,-4.0631,-4.0797,-4.1129,-4.0805,-3.9277,-3.9744,-4.0107,-3.9873,-4.0481,-4.0839,-4.08,-4.113,-4.142,-4.1692,-4.1922,-4.2161,-4.2285,-4.2924,-4.3165,-4.298,-4.3589,-4.3831,-4.3628,-4.3906,-4.4006,-4.3931,-4.4507,-4.4858,-4.5039,-4.5528,-4.563,-4.5494,-4.5631,-4.5355,-4.4854,-4.5026,-4.4463,-4.3558,-4.3395,-4.3444,-4.351,-4.3264,-4.3264,-4.3346,-4.3214,-4.2955,-4.2578,-4.2578,-4.2154,-4.1713,-4.1713,-4.1545,-4.1342,-4.1342,-4.1342,-4.124,-4.09,-4.0965,-4.1028,-4.0668,-4.0745,-4.0888,-4.0888,-4.0888,-4.0888,-4.0888,-4.0888,-4.0888,-4.0888,-4.0888,-4.0888,-4.0888,-4.0888,-4.0888,-4.0888,-4.118,-4.1453,-4.1604,-4.1892,-4.2163,-4.2287,-4.2287,-4.2287,-4.2287,-4.1895,-4.1662,-4.1593,-4.1451,-4.1107,-4.0609,-4.0481,-4.0178,-3.9733,-3.9305,-3.9101,0.0,0.0,0.0,0.0,0.0,0.0,0.0,0.0,-3.7135,-3.7503,-3.822,-3.8756,-3.8706,-3.978,-4.0563,-4.0203,-4.0814,-4.1255,-4.1056,-4.1512,-4.1523,-4.0646,-4.0932,-4.111,-4.0783,-4.1266,-4.1567,-4.1371,-4.1502,-4.1756,-4.2196,-4.2228,-4.2627,-4.3295,-4.3372,-4.3432,-4.3492,-4.3492,-4.3492,-4.3492,-4.3492,-4.3638,-4.3997,-4.4112,-4.4361,-4.4644,-4.4698,-4.4698,-4.4698,-4.5056,-4.5178,-4.514,-4.5372,-4.4578,-4.3374,-4.3545,-4.3613,-4.3613,-4.3613,-4.3613,-4.3613,-4.3613,-4.3459,-4.327,-4.3388,-4.3014,-4.2532,-4.2636,-4.2356,-4.2034,-4.1942,-4.1942,-4.1774,-4.1208,-4.1321,-4.1427,-4.0949,-4.1006,-4.1095,-4.1095,-4.0974,-4.0888,-4.0888,-4.0888,-4.0888,-4.0888,-4.0888,-4.0888,-4.0888,-4.0888,-4.0888,-4.0888,-4.1272,-4.1542,-4.1648,-4.2037,-4.2287,-4.2287,-4.2287,-4.2287,-4.2287,-4.2287,-4.2145,-4.1827,-4.2032,-4.1931,-4.1438,-4.1045,-4.0791,-4.0606,-3.9751,-3.925,-3.4431,-3.4349,-3.4496,-3.5149,-3.5478,-3.5943,0.0,0.0,-3.7352,-3.8986,-3.8788,-3.8722,-4.0226,-4.03,-4.0252,-4.0659,-4.0802,-4.1091,-4.1684,-4.1709,-4.1834,-4.233,-4.2064,-4.1829,-4.1833,-4.2245,-4.2369,-4.196,-4.2507,-4.29,-4.2982,-4.312,-4.3229,-4.3113,-4.3312,-4.3312,-4.3174,-4.3174,-4.3174,-4.3174,-4.3174,-4.3157,-4.3218,-4.3764,-4.4037,-4.4078,-4.4361,-4.4322,-4.4071,-4.4128,-4.4128,-4.4145,-4.4202,-4.4085,-4.4007,-4.4829,-4.5165,-4.5165,-4.5165,-4.5165,-4.5165,-4.5165,-4.4437,-4.3661,-4.4044,-4.3374,-4.2584,-4.3013,-4.3064,-4.2962,-4.2532,-4.2409,-4.2392,-4.2308,-4.2343,-4.2483,-4.2823,-4.2354,-4.1871,-4.1871,-4.1336,-4.0888,-4.0888,-4.0888,-4.0888,-4.0888,-4.0888,-4.0888,-4.0888,-4.0888,-4.0888,-4.0888,-4.1088,-4.1436,-4.1831,-4.2145,-4.2287,-4.2287,-4.2287,-4.2287,-4.2287,-4.2287,-4.2396,-4.2585,-4.2905,-4.279,-4.2253,-4.2434,-4.2166,-4.1441,-4.0624,-3.9844,-3.4448,-3.4709,0.0,0.0,-3.6284,-3.7145,-3.7667,-3.803,-3.8479,-3.9091,-3.9158,-3.9207,-3.9543,-3.98,-4.0036,0.0,-4.0874,-4.1415,-4.2647,-4.2815,-4.3066,-4.3765,-4.3554,-4.3071,-4.249,-4.2742,-4.2835,-4.2638,-4.2827,-4.3007,-4.3007,-4.2945,-4.2945,-4.3007,-4.3084,-4.3342,-4.3735,-4.3735,-4.3965,-4.4407,-4.4407,-4.4115,-4.3644,-4.3859,-4.3673,-4.3202,-4.3306,-4.3426,-4.3604,-4.3604,-4.3722,-4.403,-4.403,-4.403,-4.403,-4.4429,-4.478,-4.4998,-4.4998,-4.5177,-4.5423,-4.5423,-4.5041,-4.4607,-4.4536,-4.3973,-4.3406,-4.3627,-4.3445,-4.3278,-4.3351,-4.3166,-4.2952,-4.2812,-4.2546,-4.2411,-4.2704,-4.2518,-4.2364,-4.2632,-4.2043,-4.1526,-4.1526,-4.1164,-4.0888,-4.0888,-4.0888,-4.0888,-4.0888,-4.0888,-4.0918,-4.1041,-4.1272,-4.1587,-4.1874,-4.2163,-4.2287,-4.2287,-4.2287,-4.2287,-4.2287,-4.2472,-4.2613,-4.2711,-4.3196,-4.333,-4.3082,-4.2897,-4.263,-4.2277,-4.146,-4.0903,-3.4954,0.0,0.0,-3.6032,-3.6934,-3.7875,-3.8142,-3.8623,-3.9094,-3.9185,-3.9348,-3.9437,-3.9135,-3.9489,0.0,-4.0203,-4.0832,-4.1679,-4.287,-4.3371,-4.3833,-4.4492,-4.4241,-4.3714,-4.2949,-4.3026,-4.3096,-4.299,-4.2883,-4.2837,-4.2837,-4.2891,-4.3067,-4.3209,-4.3467,-4.3872,-4.4426,-4.4426,-4.4656,-4.5131,-4.5131,-4.4853,-4.422,-4.422,-4.3863,-4.3217,-4.3022,-4.3098,-4.342,-4.3223,-4.3323,-4.3621,-4.3621,-4.3621,-4.3621,-4.3621,-4.3956,-4.4541,-4.4541,-4.4725,-4.5032,-4.5177,-4.5123,-4.5015,-4.4944,-4.4541,-4.4202,-4.4202,-4.3956,-4.3706,-4.3972,-4.3739,-4.3472,-4.3474,-4.317,-4.2906,-4.3105,-4.3062,-4.3048,-4.3254,-4.2787,-4.225,-4.2026,-4.1543,-4.1112,-4.0905,-4.0888,-4.0888,-4.0888,-4.0888,-4.0965,-4.1071,-4.1408,-4.1648,-4.1805,-4.2103,-4.2287,-4.2287,-4.2287,-4.2287,-4.2287,-4.2494,-4.2634,-4.2711,-4.3232,-4.3529,-4.3579,-4.3267,-4.3132,-4.3113,-4.2314,-4.1924,0.0,0.0,-3.6432,-3.7096,-3.729,-3.7556,-3.8381,-3.86,-3.8821,-3.9454,-3.9206,-3.899,-3.9629,-3.9783,-3.9697,-3.9415,-4.0612,-4.1682,-4.192,-4.2715,-4.3567,-4.4232,-4.3722,-4.3306,0.0,-4.329,-4.308,-4.2634,-4.2634,-4.2634,-4.2634,-4.3441,-4.3958,-4.3958,-4.4771,-4.513,-4.4968,-4.4984,-4.4935,-4.4804,-4.4804,-4.4771,-4.4771,-4.4771,-4.4739,-4.469,-4.3994,-4.367,-4.3622,-4.2925,-4.2634,-4.2618,-4.2618,-4.2618,-4.2618,-4.2618,-4.3218,-4.403,-4.403,-4.403,-4.4145,-4.4597,-4.4412,-4.4202,-4.514,-4.5069,-4.4708,-4.4708,-4.4652,-4.4541,-4.4128,-4.3972,-4.4071,-4.4563,-4.4618,-4.4601,-4.464,-4.4418,-4.413,-4.3693,-4.3374,-4.2938,-4.2112,-4.1974,-4.1698,-4.0991,-4.0888,-4.0888,-4.0888,-4.0888,-4.0871,-4.0935,-4.1335,-4.1604,-4.1604,-4.2019,-4.2287,-4.2287,-4.2287,-4.2287,-4.2287,-4.2328,-4.2432,-4.2693,-4.3032,-4.3339,-4.3579,-4.3841,-4.3968,-4.3949,-4.3132,-4.276,0.0,0.0,-3.7031,-3.7258,-3.7734,-3.8267,-3.8511,-3.8655,-3.875,-3.8914,-3.8821,-3.8858,-3.9483,-3.9281,-3.9374,-4.0553,-4.1012,-4.1615,-4.2864,-4.3328,-4.363,-4.3848,-4.3529,0.0,0.0,0.0,0.0,-4.2837,-4.315,-4.341,-4.3553,-4.4172,-4.4496,-4.4496,-4.4805,-4.5146,-4.5518,-4.5518,-4.5761,-4.618,-4.5694,-4.5451,-4.5451,-4.4998,-4.4787,-4.4787,-4.4528,-4.4431,-4.4415,-4.4156,-4.3783,-4.3346,-4.3346,-4.3055,-4.2634,-4.2634,-4.2805,-4.3096,-4.3443,-4.3722,-4.403,-4.4186,-4.4145,-4.4088,-4.4373,-4.4373,-4.4259,-4.4259,-4.4259,-4.4259,-4.4412,-4.4243,-4.4202,-4.4961,-4.4669,-4.4429,-4.5015,-4.4864,-4.4622,-4.4746,-4.432,-4.382,-4.3544,-4.3095,-4.2509,-4.1733,-4.1198,-4.0888,-4.0888,-4.0888,-4.0965,-4.1088,-4.1408,-4.1631,-4.1805,-4.2121,-4.2287,-4.2287,-4.2287,-4.2287,-4.2287,-4.2454,-4.2595,-4.2711,-4.3196,-4.3529,-4.3579,-4.386,-4.4005,-4.3986,-4.3726,-4.3596,0.0,-3.7371,-3.7695,-3.7695,-3.8107,-3.852,-3.852,-3.8616,-3.8655,-3.856,-3.8715,-3.904,-3.9511,-3.9625,-3.9982,-4.113,-4.1453,-4.1939,-4.3052,-4.324,-4.3323,-4.3495,-4.3229,0.0,0.0,0.0,0.0,-4.3132,-4.3523,-4.3896,-4.4285,-4.4837,-4.516,-4.516,-4.5403,-4.5759,-4.618,-4.618,-4.6423,-4.6876,-4.6407,-4.618,-4.618,-4.5743,-4.5532,-4.5532,-4.5257,-4.516,-4.5144,-4.4901,-4.4512,-4.4091,-4.4091,-4.3816,-4.3362,-4.3103,-4.3022,-4.2974,-4.3056,-4.3262,-4.3502,-4.368,-4.3722,-4.3781,-4.3972,-4.4145,-4.4202,-4.403,-4.403,-4.4088,-4.4356,-4.4071,-4.3956,-4.4961,-4.4669,-4.4429,-4.5015,-4.5069,-4.4998,-4.5123,-4.4905,-4.4596,-4.4337,-4.3664,-4.3042,-4.2492,-4.1767,-4.1181,-4.0905,-4.0965,-4.1041,-4.1209,-4.148,-4.1762,-4.1892,-4.2163,-4.2287,-4.2287,-4.2287,-4.2287,-4.2287,-4.2472,-4.2595,-4.2711,-4.3196,-4.3495,-4.3579,-4.386,-4.4005,-4.4005,-4.4005,-4.4005,-3.8213,-3.8391,-3.8391,-3.8391,-3.8391,-3.8391,-3.8391,-3.8391,-3.8408,-3.844,-3.9007,-3.9567,0.0,0.0,-4.1352,-4.1114,-4.1915,-4.2543,-4.251,-4.2566,-4.2743,0.0,0.0,0.0,0.0,0.0,0.0,-4.3719,0.0,-4.4091,-4.4804,-4.5484,-4.5856,-4.5856,-4.6536,-4.6876,-4.6876,-4.6876,-4.6876,-4.6876,-4.6876,-4.6876,-4.6876,-4.6876,-4.6876,-4.6844,-4.6164,-4.5856,-4.5807,-4.516,-4.4885,-4.4852,-4.4852,-4.482,-4.4706,-4.401,-4.3767,-4.367,-4.299,-4.2682,-4.268,-4.3141,-4.3246,-4.3366,-4.3839,-4.4259,-4.4541,-4.4145,-4.403,-4.403,-4.403,-4.3663,-4.3588,-4.4524,-4.4708,-4.4708,-4.4708,-4.5069,-4.5247,-4.4818,-4.5069,-4.5199,-4.4458,-4.3716,-4.3283,-4.3283,-4.2543,-4.1785,-4.1026,-4.1105,-4.1209,-4.1209,-4.1613,-4.1874,-4.1917,-4.2145,-4.2287,-4.2287,-4.2287,-4.2287,-4.2287,-4.2287,-4.2432,-4.2693,-4.3032,-4.3321,-4.3579,-4.386,-4.4005,-4.4005,-4.4005,-4.4005,-3.8359,-3.8391,-3.8391,-3.8391,-3.8391,-3.8391,-3.8391,-3.8391,-3.8553,-3.9104,-3.9347,-3.9859,0.0,0.0,0.0,-4.2044,-4.1975,0.0,-4.2525,-4.2583,0.0,0.0,0.0,-4.2634,-4.2634,-4.312,0.0,0.0,-4.4512,-4.482,-4.5516,-4.6228,-4.6601,-4.6601,-4.6795,-4.6876,-4.6876,-4.6876,-4.6876,-4.6876,-4.6876,-4.6876,-4.6876,-4.6876,-4.6876,-4.6876,-4.6682,-4.6601,-4.6601,-4.6423,-4.6034,-4.5548,-4.5548,-4.5241,-4.4771,-4.4593,-4.4512,-4.448,-4.4302,-4.3541,-4.2634,-4.2743,-4.2805,-4.2851,-4.3323,-4.3545,-4.3706,-4.3914,-4.403,-4.4088,-4.4429,-4.4186,-4.4088,-4.5015,-4.4944,-4.4818,-4.514,-4.5318,-4.5371,-4.5247,-4.5318,-4.5354,-4.5165,-4.4509,-4.3992,-4.3992,-4.3404,-4.2595,-4.1802,-4.1263,-4.1088,-4.1453,-4.1604,-4.1805,-4.2163,-4.2246,-4.2287,-4.2287,-4.2287,-4.2287,-4.2287,-4.2287,-4.2432,-4.2693,-4.3032,-4.3321,-4.3579,-4.386,-4.4005,-4.4005,-4.4005,-4.4005,-3.8391,-3.8391,-3.8391,-3.8391,-3.8391,-3.8391,-3.8391,-3.8391,-3.8602,-3.9331,-3.9719,0.0,0.0,0.0,0.0,0.0,0.0,0.0,-4.2585,-4.2634,-4.2634,0.0,-4.2634,0.0,-4.2634,-4.3281,-4.401,0.0,-4.5063,-4.5532,-4.6245,-4.6666,-4.6876,-4.6876,-4.6876,-4.6876,-4.6876,-4.6876,-4.6876,-4.6876,-4.6876,-4.6876,-4.6876,-4.6876,-4.6876,-4.6876,0.0,-4.6876,-4.6876,-4.6876,-4.6649,-4.6277,-4.6277,-4.605,-4.5678,-4.5354,-4.5241,-4.5192,-4.4901,-4.4269,-4.3524,-4.3201,-4.3103,-4.3102,-4.301,-4.3141,-4.3366,-4.3604,-4.3839,-4.4088,-4.4299,-4.4202,-4.4145,-4.4669,-4.4725,-4.4763,-4.5069,-4.5247,-4.5423,-4.5423,-4.5423,-4.5423,-4.5423,-4.5061,-4.4785,-4.4785,-4.4147,-4.3492,-4.3061,-4.2141,-4.158,-4.1595,-4.1692,-4.1892,-4.2287,-4.2287,-4.2287,-4.2287,-4.2287,-4.2287,-4.2287,-4.2287,-4.2351,-4.2534,-4.2844,-4.3142,-4.3426,-4.3697,-4.3892,-4.4005,-4.4005,-4.4005,-3.8391,-3.8391,-3.8391,-3.8391,-3.8391,-3.8391,-3.8391,-3.8391,-3.8634,-3.9444,0.0,0.0,-4.1565,0.0,-4.2634,-4.2634,0.0,-4.2634,-4.2634,-4.2634,-4.2634,-4.2634,-4.2634,-4.2634,-4.2634,-4.3379,-4.4107,-4.4739,-4.55,-4.6228,-4.686,-4.6876,-4.6876,-4.6876,-4.6876,-4.6876,-4.6876,-4.6876,-4.6876,-4.6876,-4.6876,-4.6876,-4.6876,-4.6876,-4.6876,-4.6876,0.0,0.0,-4.6876,-4.6876,-4.6876,-4.6876,-4.6876,-4.6876,-4.6811,-4.618,-4.5953,-4.5856,-4.5273,-4.5079,-4.4933,-4.4123,-4.3848,-4.3719,-4.299,-4.3059,-4.3317,-4.3339,-4.3663,-4.403,-4.4088,-4.4088,-4.4088,-4.4145,-4.4429,-4.4708,-4.4763,-4.5123,-4.5423,-4.5423,-4.5423,-4.5423,-4.5423,-4.5423,-4.5423,-4.5423,-4.4854,-4.4389,-4.4285,-4.3273,-4.2347,-4.1788,-4.1903,-4.2126,-4.2305,-4.2287,-4.2287,-4.2287,-4.2287,-4.2287,-4.2287,-4.2287,-4.2287,-4.2287,-4.2613,-4.292,-4.3214,-4.3495,-4.3763,-4.4005,-4.4005,-4.4005,-3.8391,-3.8391,-3.8391,-3.8391,-3.8391,-3.8391,-3.8391,-3.8391,0.0,0.0,0.0,-4.0885,-4.2213,-4.2553,0.0,-4.2634,0.0,0.0,0.0,0.0,-4.2634,0.0,0.0,0.0,0.0,0.0,0.0,0.0,0.0,-4.6747,-4.6876,-4.6876,-4.6876,-4.6876,-4.6876,-4.6876,-4.6876,-4.6876,-4.6876,-4.6876,-4.6876,-4.6876,-4.6876,-4.6876,-4.6876,-4.6876,-4.6876,0.0,-4.6876,-4.6876,-4.6876,-4.6876,-4.6876,-4.6876,-4.686,-4.6747,-4.6698,-4.6682,-4.6568,-4.652,-4.6309,-4.503,-4.4609,-4.4464,-4.3735,-4.3588,-4.3569,-4.3366,-4.3663,-4.4088,-4.4485,-4.4597,-4.4652,-4.5069,-4.4944,-4.4818,-4.5177,-4.5371,-4.5423,-4.5423,-4.5423,-4.5423,-4.5423,-4.5423,-4.5423,-4.5423,-4.5303,-4.4992,-4.4354,-4.3724,-4.3097,-4.2577,-4.2714,-4.2729,-4.2341,-4.2287,-4.2287,-4.2287,-4.2287,-4.2287,-4.2287,-4.2287,-4.2287,-4.2287,-4.2824,-4.3123,-4.3214,-4.3697,-4.3955,-4.4005,-4.4005,-4.4005,-3.8391,-3.8391,-3.8391,-3.8391,-3.8391,-3.8391,-3.8391,0.0,0.0,0.0,0.0,-4.0934,-4.2359,0.0,0.0,0.0,0.0,0.0,0.0,0.0,0.0,0.0,0.0,0.0,0.0,0.0,0.0,0.0,0.0,-4.6488,-4.686,-4.6876,-4.6876,-4.6876,-4.6876,-4.6876,-4.6876,-4.6876,-4.6876,-4.6876,-4.6876,-4.6876,-4.6876,-4.6876,-4.6876,-4.6876,-4.6876,0.0,-4.6876,-4.6876,-4.6876,-4.6876,-4.6876,-4.6876,-4.6876,-4.6876,-4.6876,-4.6876,-4.6876,-4.6876,-4.6779,-4.6099,-4.5629,-4.5192,-4.4496,-4.401,-4.3702,-4.3518,-4.3558,-4.3722,-4.4186,-4.4541,-4.4763,-4.4998,-4.4872,-4.4835,-4.53,-4.5423,-4.5423,-4.5423,-4.5423,-4.5423,-4.5423,-4.5423,-4.5423,-4.5423,-4.5423,-4.5285,-4.4923,-4.4782,-4.4335,-4.3419,-4.357,-4.3651,-4.3494,-4.3144,-4.2912,-4.2912,-4.2519,-4.2287,-4.2287,-4.2432,-4.2494,-4.2494,-4.2975,-4.3268,-4.3391,-4.3664,-4.386,-4.4005,-4.4005,-4.4005,-3.8391,-3.8391,-3.8391,-3.8391,-3.8391,-3.8391,-3.8391,-3.8521,0.0,0.0,-4.0626,-4.1112,-4.2391,0.0,0.0,0.0,0.0,0.0,0.0,0.0,0.0,0.0,0.0,0.0,0.0,0.0,0.0,0.0,0.0,0.0,-4.686,-4.6876,-4.6876,-4.6876,-4.6876,-4.6876,-4.6876,-4.6876,-4.6876,-4.6876,-4.6876,-4.6876,-4.6876,-4.6876,-4.6876,-4.6876,-4.6876,0.0,0.0,-4.6876,-4.6876,-4.6876,-4.6876,-4.6876,-4.6876,-4.6876,-4.6876,-4.6876,-4.6876,-4.6876,-4.6876,-4.6876,-4.6504,-4.5905,-4.5208,-4.4609,-4.4107,-4.38,-4.3644,-4.3564,-4.3772,-4.4243,-4.4708,-4.4835,-4.4818,-4.4944,-4.5318,-4.5423,-4.5423,-4.5423,-4.5423,-4.5423,-4.5423,-4.5423,-4.5423,-4.5423,-4.5423,-4.5423,-4.5459,-4.5701,-4.5516,-4.4566,-4.4516,-4.4538,-4.4599,-4.4089,-4.375,-4.375,-4.3144,-4.2787,-4.2787,-4.2835,-4.2904,-4.2964,-4.3123,-4.3321,-4.3579,-4.3664,-4.3795,-4.4005,-4.4005,-4.4005,-3.8391,-3.8391,-3.8391,-3.8391,-3.8391,-3.8391,-3.8391,0.0,0.0,0.0,-4.1015,-4.1711,-4.2488,-4.2634,0.0,0.0,0.0,0.0,0.0,0.0,0.0,0.0,0.0,0.0,0.0,0.0,0.0,0.0,0.0,0.0,-4.6876,-4.6876,-4.6876,-4.6876,-4.6876,-4.6876,-4.6876,-4.6876,-4.6876,-4.6876,-4.6876,-4.6876,-4.6876,-4.6876,-4.6876,-4.6876,-4.6876,0.0,0.0,-4.6876,-4.6876,-4.6876,-4.6876,-4.6876,-4.6876,-4.6876,-4.6876,-4.6876,-4.6876,-4.6876,-4.6876,-4.6876,-4.6828,-4.6649,-4.5937,-4.5662,-4.5338,-4.4075,-4.4019,-4.4146,-4.3548,-4.4013,-4.4818,-4.5247,-4.5318,-4.5371,-4.5371,-4.5423,-4.5423,-4.5423,-4.5423,-4.5423,-4.5423,-4.5423,-4.5423,-4.5423,-4.5423,-4.5459,-4.5735,-4.5988,-4.6231,-4.6348,-4.574,-4.5123,-4.4634,-4.4553,-4.4517,-4.4517,-4.4446,-4.441,-4.441,-4.375,-4.3524,-4.3794,-4.3413,-4.3321,-4.3579,-4.3828,-4.3974,-4.4005,-4.4005,-4.4005,-3.8391,-3.8391,-3.8391,-3.8391,-3.8391,-3.8391,-3.8391,0.0,0.0,-4.0254,-4.0723,-4.1274,-4.2423,-4.2634,-4.2634,0.0,0.0,0.0,0.0,0.0,0.0,0.0,0.0,0.0,0.0,0.0,0.0,0.0,0.0,0.0,-4.6876,-4.6876,-4.6876,-4.6876,-4.6876,-4.6876,-4.6876,-4.6876,-4.6876,-4.6876,-4.6876,-4.6876,-4.6876,-4.6876,-4.6876,-4.6876,-4.6876,0.0,0.0,-4.6876,-4.6876,-4.6876,-4.6876,-4.6876,-4.6876,-4.6876,-4.6876,-4.6876,-4.6876,-4.6876,-4.6876,-4.6876,-4.6876,-4.6828,-4.6536,-4.6147,-4.5597,-4.4625,-4.4172,-4.3889,-4.3443,-4.4013,-4.4818,-4.53,-4.5423,-4.5423,-4.5423,-4.5423,-4.5423,-4.5423,-4.5423,-4.5423,-4.5423,-4.5423,-4.5423,-4.5423,-4.5423,-4.5511,-4.5786,-4.5887,-4.6137,-4.6542,-4.6465,-4.63,-4.607,-4.5606,-4.532,-4.532,-4.4874,-4.4624,-4.4624,-4.4492,-4.452,-4.4624,-4.4783,-4.4929,-4.507,-4.536,-4.5491,-4.5491,-4.5491,-4.5491,-3.8391,-3.8391,-3.8391,-3.8391,-3.8391,-3.8391,0.0,0.0,0.0,-4.0254,-4.0658,-4.1177,-4.2407,-4.2634,-4.2634,-4.2634,0.0,0.0,0.0,0.0,0.0,0.0,0.0,0.0,0.0,0.0,0.0,0.0,0.0,0.0,0.0,-4.6876,-4.6876,-4.6876,-4.6876,-4.6876,-4.6876,-4.6876,-4.6876,-4.6876,-4.6876,-4.6876,-4.6876,-4.6876,-4.6876,-4.6876,0.0,0.0,0.0,-4.6876,-4.6876,-4.6876,-4.6876,-4.6876,-4.6876,-4.6876,-4.6876,-4.6876,-4.6876,-4.6876,-4.6876,-4.6876,-4.6876,-4.6876,-4.6876,-4.6536,-4.5937,-4.5046,-4.4107,-4.3392,-4.3515,-4.4013,-4.4652,-4.5247,-4.5423,-4.5423,-4.5423,-4.5423,-4.5423,-4.5423,-4.5423,-4.5423,-4.5423,-4.5423,-4.5423,-4.5423,-4.5423,-4.5511,-4.5887,-4.5938,-4.6137,-4.6637,-4.6888,-4.6998,-4.6998,-4.648,-4.6159,-4.6159,-4.5624,-4.532,-4.532,-4.5305,-4.533,-4.5472,-4.5656,-4.581,-4.5992,-4.6239,-4.6409,-4.6494,-4.6494,-4.6494,-3.8391,-3.8391,-3.8391,-3.8391,-3.8391,-3.8391,0.0,0.0,-3.9671,-4.0351,-4.1063,-4.1792,-4.2488,-4.2634,-4.2634,-4.2634,-4.2634,0.0,0.0,0.0,0.0,0.0,0.0,0.0,0.0,0.0,0.0,0.0,0.0,0.0,0.0,-4.6876,-4.6876,-4.6876,-4.6876,-4.6876,-4.6876,-4.6876,-4.6876,-4.6876,-4.6876,-4.6876,-4.6876,-4.6876,-4.6876,0.0,0.0,0.0,0.0,-4.6876,-4.6876,-4.6876,-4.6876,-4.6876,-4.6876,-4.6876,-4.6876,-4.6876,-4.6876,-4.6876,-4.6876,-4.6876,-4.6876,-4.6876,-4.6876,-4.6876,-4.6585,-4.5176,-4.3751,-4.2805,-4.3739,-4.403,-4.4259,-4.5194,-4.5423,-4.5423,-4.5423,-4.5423,-4.5423,-4.5423,-4.5423,-4.5423,-4.5423,-4.5423,-4.5423,-4.5423,-4.5423,-4.5615,-4.6137,-4.6186,-4.6381,-4.6934,-4.6998,-4.6998,-4.6998,-4.698,-4.698,-4.698,-4.6962,-4.6962,-4.6962,-4.6212,-4.5935,-4.6296,-4.5526,-4.5412,-4.5992,-4.5992,-4.6186,-4.6494,-4.6494,-4.6494,-3.8391,-3.8391,-3.8391,-3.8391,-3.8391,-3.8391,-3.8391,0.0,-3.9072,-4.0254,-4.0675,-4.1209,-4.2407,-4.2634,-4.2634,-4.2634,-4.2634,0.0,0.0,0.0,0.0,0.0,0.0,0.0,0.0,0.0,0.0,0.0,0.0,0.0,0.0,-4.6876,-4.6876,-4.6876,-4.6876,-4.6876,-4.6876,-4.6876,-4.6876,-4.6876,-4.6876,-4.6876,-4.6876,-4.6876,0.0,0.0,0.0,0.0,0.0,-4.6876,-4.6876,-4.6876,-4.6876,-4.6876,-4.6876,-4.6876,-4.6876,-4.6876,-4.6876,-4.6876,-4.6876,-4.6876,-4.6876,-4.6876,-4.6876,-4.6876,-4.6585,-4.5192,-4.4107,-4.3423,-4.3872,-4.403,-4.4259,-4.5194,-4.5423,-4.5423,-4.5423,-4.5423,-4.5423,-4.5423,-4.5423,-4.5423,-4.5423,-4.5423,-4.5423,-4.5423,-4.5423,-4.5615,-4.6137,-4.6186,-4.6398,-4.6934,-4.6998,-4.6998,-4.6998,-4.6998,-4.6998,-4.6998,-4.6998,-4.6998,-4.6998,-4.6748,-4.6668,-4.6802,-4.6751,-4.6819,-4.7025,-4.7265,-4.7535,-4.7775,-4.8025,-4.8147,0.0,-3.8391,-3.8391,-3.8391,-3.8391,0.0,0.0,0.0,-3.8796,-4.0205,-4.0496,-4.0934,-4.2359,-4.2634,-4.2634,-4.2634,-4.2634,0.0,0.0,0.0,0.0,0.0,0.0,0.0,0.0,0.0,0.0,0.0,0.0,0.0,0.0,-4.673,-4.6876,-4.6876,-4.6876,-4.6876,-4.6876,-4.6876,-4.6876,-4.6876,-4.6876,-4.6876,-4.6876,-4.6876,0.0,0.0,0.0,0.0,0.0,-4.6876,-4.6876,-4.6876,-4.6876,-4.6876,-4.6876,-4.6876,-4.6876,-4.6876,-4.6876,-4.6876,-4.6876,-4.6876,-4.6876,-4.6876,-4.6876,-4.6698,-4.6245,-4.5111,-4.4269,-4.3732,-4.3922,-4.403,-4.4259,-4.5194,-4.5423,-4.5423,-4.5423,-4.5423,-4.5423,-4.5423,-4.5423,-4.5423,-4.5423,-4.5423,-4.5423,-4.5423,-4.5476,-4.5701,-4.6137,-4.6284,-4.6542,-4.6934,-4.6998,-4.6998,-4.6998,-4.6998,-4.6998,-4.6998,-4.6998,-4.6998,-4.6998,-4.6998,-4.6998,-4.6998,-4.7205,-4.7381,-4.7511,-4.7829,-4.8132,-4.8421,-4.8623,-4.8785,0.0,0.0,0.0,0.0,0.0,0.0,0.0,0.0,0.0,-4.0205,-4.0496,-4.0934,-4.2359,-4.2634,-4.2634,-4.2634,0.0,0.0,0.0,0.0,0.0,0.0,0.0,0.0,0.0,0.0,0.0,0.0,0.0,0.0,0.0,-4.6423,-4.6811,-4.6811,-4.686,-4.6876,-4.6876,-4.6876,-4.6876,-4.6876,-4.6876,-4.6876,-4.6876,-4.6876,0.0,0.0,0.0,0.0,0.0,-4.6876,-4.6876,-4.6876,-4.6876,-4.6876,-4.6876,-4.6876,-4.6876,-4.6876,-4.6876,-4.6876,-4.6876,-4.6876,-4.6876,-4.6876,-4.6876,-4.6423,-4.5726,-4.4998,-4.4318,-4.3781,-4.3939,-4.403,-4.4259,-4.5194,-4.5423,-4.5423,-4.5423,-4.5423,-4.5423,-4.5423,-4.5423,-4.5423,-4.5423,-4.5423,-4.5423,-4.5423,-4.5649,-4.5887,-4.6186,-4.6429,-4.6684,-4.698,-4.6998,-4.6998,-4.6998,-4.6998,-4.6998,-4.6998,-4.6998,-4.6998,-4.6998,-4.6998,-4.6998,-4.6998,-4.6998,-4.716,-4.7468,-4.7788,-4.8093,-4.8345,-4.8345,-4.855,-3.8246,0.0,-3.8391,-3.8391,0.0,0.0,0.0,0.0,0.0,-4.0205,0.0,0.0,-4.2359,0.0,0.0,0.0,0.0,0.0,0.0,0.0,0.0,0.0,0.0,0.0,0.0,0.0,0.0,0.0,0.0,0.0,0.0,-4.5694,-4.605,-4.605,-4.6601,-4.6876,-4.6876,-4.6876,-4.6876,-4.6876,-4.6876,-4.6876,-4.6876,-4.6876,0.0,0.0,0.0,0.0,-4.6876,-4.6876,-4.6876,-4.6876,-4.6876,-4.6876,-4.6876,-4.6876,-4.6876,-4.6876,-4.6876,-4.6876,-4.6876,-4.6876,-4.6876,-4.6876,-4.6876,-4.6763,-4.6374,-4.5144,-4.4674,-4.4496,-4.4072,-4.403,-4.4259,-4.5194,-4.5423,-4.5423,-4.5423,-4.5423,-4.5423,-4.5423,-4.5423,-4.5423,-4.5423,-4.5423,-4.5423,-4.5423,-4.5649,-4.5887,-4.6186,-4.6429,-4.6684,-4.698,-4.6998,-4.6998,-4.6998,-4.6998,-4.6998,-4.6998,-4.6998,-4.6998,-4.6998,-4.6998,-4.6998,-4.6998,-4.6998,-4.7043,-4.7116,-4.745,-4.7663,-4.7705,-4.7974,-4.8151,-3.8197,-3.8391,-3.8391,-3.8391,-3.8391,-3.8391,0.0,0.0,0.0,0.0,0.0,0.0,0.0,0.0,0.0,0.0,0.0,0.0,0.0,0.0,0.0,0.0,0.0,0.0,0.0,0.0,0.0,0.0,0.0,0.0,0.0,-4.4949,-4.5338,-4.5338,-4.5726,-4.6228,-4.6876,-4.6876,-4.6876,-4.6876,-4.6876,-4.6876,-4.6876,-4.6876,-4.6876,0.0,0.0,0.0,-4.6876,-4.6876,-4.6876,-4.6876,-4.6876,-4.6876,-4.6876,-4.6876,-4.6876,-4.6876,-4.6876,-4.6876,-4.6876,-4.6876,-4.6876,-4.6876,-4.6876,-4.6649,-4.6164,-4.5095,-4.4787,-4.4707,-4.4121,-4.403,-4.4259,-4.5194,-4.5423,-4.5423,-4.5423,-4.5423,-4.5423,-4.5423,-4.5423,-4.5423,-4.5423,-4.5423,-4.5423,-4.5423,-4.5649,-4.5887,-4.6186,-4.6429,-4.6684,-4.698,-4.6998,-4.6998,-4.6998,-4.6998,-4.6998,-4.6998,-4.6998,-4.6998,-4.6998,-4.6998,-4.6998,-4.6998,-4.6998,-4.6998,-4.6998,-4.716,-4.7338,-4.7511,-4.7681,-4.787,-3.8035,-3.8311,-3.8391,-3.8391,-3.8391,-3.8391,-3.8391,0.0,0.0,0.0,0.0,0.0,0.0,0.0,0.0,0.0,0.0,0.0,0.0,0.0,0.0,0.0,0.0,0.0,0.0,0.0,0.0,0.0,0.0,0.0,0.0,-4.4237,-4.4625,-4.4625,-4.4739,-4.5354,-4.6552,-4.6568,-4.6617,-4.6714,-4.6714,-4.6779,-4.6876,-4.6876,-4.6876,0.0,0.0,0.0,-4.6876,-4.6876,-4.6876,-4.6876,-4.6876,-4.6876,-4.6876,-4.6876,-4.6876,-4.6876,-4.6876,-4.6876,-4.6876,-4.6876,-4.6876,-4.6876,-4.6876,-4.6374,-4.5662,-4.4982,-4.4706,-4.4561,-4.4088,-4.403,-4.4259,-4.5194,-4.5423,-4.5423,-4.5423,-4.5423,-4.5423,-4.5423,-4.5423,-4.5423,-4.5423,-4.5423,-4.5423,-4.5423,-4.5649,-4.5887,-4.6087,-4.6381,-4.6637,-4.6842,-4.6888,-4.6934,-4.6934,-4.6998,-4.6998,-4.6998,-4.6998,-4.6998,-4.6998,-4.6998,-4.6998,-4.6998,-4.6998,-4.6998,-4.6998,-4.6998,-4.716,-4.7425,-4.7425,-4.7597,-3.729,-3.7938,-3.8391,-3.8391,-3.8391,-3.8391,-3.8391,0.0,0.0,0.0,0.0,0.0,0.0,0.0,0.0,0.0,0.0,0.0,0.0,0.0,0.0,0.0,0.0,0.0,0.0,0.0,0.0,0.0,0.0,0.0,0.0,-4.3476,-4.3881,-4.3881,-4.4464,-4.4901,-4.5111,-4.5111,-4.5403,-4.5969,-4.5969,-4.6293,-4.6876,-4.6876,-4.6876,0.0,0.0,-4.6876,-4.6876,-4.6876,-4.6876,-4.6876,-4.6876,-4.6876,-4.6876,-4.6876,-4.6876,-4.6876,-4.6876,-4.6876,-4.6876,-4.6876,-4.6876,-4.6876,-4.6876,-4.6374,-4.5662,-4.4982,-4.435,-4.3862,-4.3955,-4.403,-4.4259,-4.5194,-4.5423,-4.5423,-4.5423,-4.5423,-4.5423,-4.5423,-4.5423,-4.5423,-4.5423,-4.5423,-4.5423,-4.5423,-4.5649,-4.5837,-4.5837,-4.6087,-4.6284,-4.6332,-4.6542,-4.6637,-4.6637,-4.6888,-4.6998,-4.6998,-4.6998,-4.6998,-4.6998,-4.6998,-4.6998,-4.6998,-4.6998,-4.6998,-4.6998,-4.6998,-4.7043,-4.7088,-4.7088,-4.7116,-3.7128,-3.7841,-3.8391,-3.8391,-3.8391,-3.8391,-3.8391,0.0,0.0,0.0,0.0,0.0,0.0,0.0,0.0,0.0,0.0,0.0,0.0,0.0,0.0,0.0,0.0,0.0,0.0,0.0,0.0,0.0,0.0,0.0,0.0,0.0,-4.3136,-4.3136,-4.3443,-4.3622,-4.3622,-4.3622,-4.4172,-4.5257,-4.5257,-4.5435,-4.5759,-4.6131,-4.6309,-4.6326,0.0,-4.6876,-4.6876,-4.6876,-4.6876,-4.6876,-4.6876,-4.6876,-4.6876,-4.6876,-4.6876,-4.6876,-4.6876,-4.6876,-4.6876,-4.6876,-4.6876,-4.6811,-4.6423,-4.5807,-4.5111,-4.4399,-4.4138,-4.4076,-4.3981,-4.4202,-4.4541,-4.5247,-4.5423,-4.5423,-4.5423,-4.5423,-4.5423,-4.5423,-4.5423,-4.5423,-4.5423,-4.5423,-4.5423,-4.5423,-4.5511,-4.5649,-4.5786,-4.5887,-4.6038,-4.6186,-4.6284,-4.6381,-4.6381,-4.6637,-4.6842,-4.6998,-4.6998,-4.6998,-4.6998,-4.6998,-4.6998,-4.6998,-4.6998,-4.6998,-4.6998,-4.6998,-4.6998,-4.6998,-4.6998,-4.6998,-3.695,-3.7728,-3.8391,-3.8391,0.0,-3.8391,-3.8391,0.0,0.0,0.0,0.0,0.0,0.0,0.0,0.0,0.0,0.0,0.0,0.0,0.0,0.0,0.0,0.0,0.0,0.0,0.0,0.0,0.0,0.0,0.0,0.0,0.0,-4.2634,-4.2634,-4.2634,-4.2634,-4.2634,-4.2634,-4.3265,-4.4544,-4.4544,-4.4625,-4.4804,-4.5322,-4.5662,-4.584,-4.639,-4.673,-4.6876,-4.6876,-4.6876,-4.6876,-4.6876,-4.6876,-4.6876,-4.6876,-4.6876,-4.6876,-4.6876,-4.6876,-4.6876,-4.6876,-4.6763,-4.6536,-4.5969,-4.5208,-4.4415,-4.3864,-4.3938,-4.4136,-4.3989,-4.4259,-4.4652,-4.5247,-4.5423,-4.5423,-4.5423,-4.5423,-4.5423,-4.5423,-4.5423,-4.5423,-4.5423,-4.5423,-4.5423,-4.5423,-4.5423,-4.5459,-4.5701,-4.5701,-4.5786,-4.5988,-4.6087,-4.6137,-4.6284,-4.6495,-4.6731,-4.698,-4.6998,-4.6998,-4.6998,-4.6998,-4.6998,-4.6998,-4.6998,-4.6998,-4.6998,-4.6998,-4.6998,-4.6998,-4.6998,-4.6998,-3.6367,-3.7371,-3.8391,-3.8391,-3.8391,0.0,-3.8391,-3.8926,0.0,0.0,0.0,0.0,0.0,0.0,0.0,0.0,0.0,0.0,0.0,0.0,0.0,0.0,0.0,0.0,0.0,0.0,0.0,0.0,0.0,0.0,0.0,0.0,0.0,-4.2634,-4.2634,-4.2634,-4.2634,-4.2634,-4.3022,-4.3783,-4.3783,-4.414,-4.4787,-4.4836,-4.5208,-4.5807,-4.5856,-4.6261,-4.6876,-4.6876,-4.6876,-4.6876,-4.6876,-4.6876,-4.6876,-4.6876,-4.6876,-4.6876,-4.6876,-4.6876,-4.6876,-4.6876,-4.6439,-4.5872,-4.5824,-4.4852,-4.3783,-4.3719,-4.3578,-4.3492,-4.3856,-4.403,-4.4259,-4.5194,-4.5423,-4.5423,-4.5423,-4.5423,-4.5423,-4.5423,-4.5423,-4.5423,-4.5423,-4.5423,-4.5423,-4.5423,-4.5423,-4.5423,-4.5423,-4.5423,-4.5423,-4.5476,-4.5701,-4.6038,-4.6542,-4.659,-4.6731,-4.698,-4.6998,-4.6998,-4.6998,-4.6998,-4.6998,-4.6998,-4.6998,-4.6998,-4.6998,-4.6998,-4.6998,-4.6998,-4.6998,-4.6998,-3.6821,-3.7663,-3.8391,-3.8391,-3.8391,0.0,0.0,-3.8618,0.0,0.0,0.0,0.0,0.0,0.0,0.0,0.0,0.0,0.0,0.0,0.0,0.0,0.0,0.0,0.0,0.0,0.0,0.0,0.0,0.0,0.0,0.0,0.0,0.0,-4.2634,-4.2634,-4.2634,-4.2634,-4.2634,-4.2763,-4.3039,-4.3039,-4.3184,-4.346,-4.3913,-4.4253,-4.4528,-4.4982,-4.5565,-4.6212,-4.6212,-4.6488,-4.6876,-4.6876,-4.6876,-4.6876,-4.6876,-4.6876,-4.6876,-4.6876,-4.6876,-4.6811,-4.6358,-4.6034,-4.5646,-4.4771,-4.4123,-4.3622,-4.3168,-4.3124,-4.3426,-4.3914,-4.4202,-4.4597,-4.5247,-4.5423,-4.5423,-4.5423,-4.5423,-4.5423,-4.5423,-4.5423,-4.5423,-4.5423,-4.5423,-4.5423,-4.5423,-4.5423,-4.5423,-4.5423,-4.5423,-4.5423,-4.5423,-4.5459,-4.5701,-4.6087,-4.6087,-4.6284,-4.6731,-4.6888,-4.6998,-4.6998,-4.6998,-4.6998,-4.6998,-4.6998,-4.6998,-4.6998,-4.6998,-4.6998,-4.6998,-4.6998,-4.6998,-3.7128,-3.7841,-3.8391,0.0,0.0,0.0,-3.8391,-3.8391,0.0,0.0,0.0,0.0,0.0,0.0,0.0,0.0,0.0,0.0,0.0,0.0,0.0,0.0,0.0,0.0,0.0,0.0,0.0,0.0,0.0,0.0,0.0,0.0,0.0,0.0,-4.2634,-4.2634,-4.2634,-4.2634,-4.2634,-4.2634,-4.2634,-4.2634,-4.265,-4.3136,-4.3492,-4.3735,-4.4237,-4.4852,-4.5484,-4.5484,-4.5905,-4.6568,-4.6795,-4.6876,-4.6876,-4.6876,-4.6876,-4.6876,-4.6876,-4.673,-4.6455,-4.5953,-4.55,-4.4965,-4.3994,-4.3557,-4.3265,-4.2763,-4.2912,-4.3426,-4.3914,-4.4373,-4.4818,-4.53,-4.5423,-4.5423,-4.5423,-4.5423,-4.5423,-4.5423,-4.5423,-4.5423,-4.5423,-4.5423,-4.5423,-4.5423,-4.5423,-4.5423,-4.5423,-4.5423,-4.5423,-4.5423,-4.5423,-4.5511,-4.5786,-4.5786,-4.5988,-4.6447,-4.6637,-4.6842,-4.698,-4.6998,-4.6998,-4.6998,-4.6998,-4.6934,-4.6888,-4.6934,-4.6952,-4.6888,-4.6934,-4.6998,-3.7145,-3.7857,0.0,0.0,0.0,0.0,0.0,0.0,0.0,0.0,0.0,0.0,0.0,0.0,0.0,0.0,0.0,0.0,0.0,0.0,0.0,0.0,0.0,0.0,0.0,0.0,0.0,0.0,0.0,0.0,0.0,0.0,0.0,0.0,-4.2634,-4.2634,-4.2634,-4.2634,-4.2634,-4.2634,-4.2634,-4.2634,-4.2634,-4.2634,-4.3022,-4.3702,-4.3702,-4.4107,-4.4787,-4.4787,-4.5192,-4.5856,-4.6585,-4.686,-4.686,-4.686,-4.686,-4.686,-4.686,-4.639,-4.5791,-4.5791,-4.4852,-4.3719,-4.3702,-4.3201,-4.2634,-4.2634,-4.2912,-4.3426,-4.3914,-4.4373,-4.4818,-4.53,-4.5423,-4.5423,-4.5423,-4.5423,-4.5423,-4.5423,-4.5423,-4.5423,-4.5423,-4.5423,-4.5423,-4.5423,-4.5423,-4.5423,-4.5423,-4.5423,-4.5423,-4.5423,-4.5423,-4.5511,-4.5786,-4.5786,-4.5887,-4.6186,-4.6186,-4.6447,-4.698,-4.6998,-4.6998,-4.6998,-4.6998,-4.6842,-4.659,-4.6888,-4.6842,-4.659,-4.6888,-4.698,-3.776,-3.823,0.0,0.0,0.0,0.0,0.0,0.0,0.0,0.0,0.0,0.0,0.0,0.0,0.0,0.0,0.0,0.0,0.0,0.0,0.0,0.0,0.0,0.0,0.0,0.0,0.0,0.0,0.0,0.0,0.0,0.0,0.0,0.0,-4.2634,-4.2634,-4.2634,-4.2634,-4.2634,-4.2634,-4.2634,-4.2634,-4.2634,-4.2634,-4.2747,-4.2958,-4.2958,-4.3362,-4.4075,-4.4577,-4.4917,-4.5111,-4.5322,-4.5419,-4.5419,-4.5419,-4.5419,-4.5419,-4.5419,-4.5273,-4.4998,-4.4496,-4.4059,-4.3622,-4.3103,-4.2796,-4.2634,-4.2634,-4.3157,-4.3839,-4.3972,-4.4597,-4.5247,-4.5371,-4.5423,-4.5423,-4.5423,-4.5423,-4.5423,-4.5423,-4.5423,-4.5423,-4.5423,-4.5423,-4.5423,-4.5423,-4.5423,-4.5423,-4.5423,-4.5423,-4.5423,-4.5423,-4.5423,-4.5423,-4.5511,-4.5511,-4.5649,-4.5887,-4.5938,-4.6087,-4.6429,-4.6447,-4.6447,-4.6447,-4.6447,-4.6381,-4.6332,-4.6381,-4.6398,-4.6332,-4.6381,-4.6542,-3.8019,0.0,0.0,0.0,0.0,0.0,0.0,0.0,0.0,0.0,0.0,0.0,0.0,0.0,0.0,0.0,0.0,0.0,0.0,0.0,0.0,0.0,0.0,0.0,0.0,0.0,0.0,0.0,0.0,0.0,0.0,0.0,0.0,0.0,-4.2634,-4.2634,-4.2634,-4.2634,-4.2634,-4.2634,-4.2634,-4.2634,-4.2634,-4.2634,-4.2634,-4.2634,-4.2634,-4.2877,-4.3346,-4.4059,-4.4366,-4.4383,-4.469,-4.4787,-4.4787,-4.4787,-4.4787,-4.4787,-4.4787,-4.4609,-4.4285,-4.3848,-4.3508,-4.3201,-4.27,-4.2634,-4.2634,-4.2634,-4.3279,-4.403,-4.403,-4.4669,-4.5423,-4.5423,-4.5423,-4.5423,-4.5423,-4.5423,-4.5423,-4.5423,-4.5423,-4.5423,-4.5423,-4.5423,-4.5423,-4.5423,-4.5423,-4.5423,-4.5423,-4.5423,-4.5423,-4.5423,-4.5423,-4.5423,-4.5423,-4.5423,-4.5459,-4.5649,-4.5649,-4.5701,-4.5854,-4.6087,-4.6186,-4.6186,-4.6186,-4.6137,-4.6038,-4.6137,-4.6137,-4.6038,-4.6137,-4.6284,0.0,0.0,0.0,0.0,0.0,0.0,0.0,0.0,0.0,0.0,0.0,0.0,0.0,0.0,0.0,0.0,0.0,0.0,0.0,0.0,0.0,0.0,0.0,0.0,0.0,0.0,0.0,0.0,0.0,0.0,0.0,0.0,0.0,-4.2634,-4.2634,-4.2634,-4.2634,-4.2634,-4.2634,0.0,-4.2634,-4.2634,-4.2634,-4.2634,-4.2634,-4.2634,-4.2634,-4.2634,-4.2682,-4.3346,-4.3622,-4.3686,-4.4334,-4.4593,-4.4593,-4.4593,-4.4593,-4.4593,-4.4593,-4.4156,-4.3622,-4.3622,-4.3168,-4.2634,-4.2634,-4.2634,-4.2634,-4.2634,-4.3279,-4.403,-4.403,-4.4669,-4.5423,-4.5423,-4.5423,-4.5423,-4.5423,-4.5423,-4.5423,-4.5423,-4.5423,-4.5423,-4.5423,-4.5423,-4.5423,-4.5423,-4.5423,-4.5423,-4.5423,-4.5423,-4.5423,-4.5423,-4.5423,-4.5423,-4.5423,-4.5423,-4.5423,-4.5423,-4.5423,-4.5423,-4.5423,-4.5854,-4.6137,-4.6137,-4.6137,-4.5988,-4.5735,-4.5988,-4.5988,-4.5786,-4.5988,-4.6137,0.0,0.0,0.0,0.0,0.0,0.0,0.0,0.0,0.0,0.0,0.0,0.0,0.0,0.0,0.0,0.0,0.0,0.0,0.0,0.0,0.0,0.0,0.0,0.0,0.0,0.0,0.0,0.0,0.0,0.0,0.0,0.0,0.0,-4.2634,-4.2634,-4.2634,-4.2634,-4.2634,-4.2634,0.0,-4.2634,-4.2634,-4.2634,-4.2634,-4.2634,-4.2634,-4.2634,-4.2634,-4.2587,-4.2796,-4.286,-4.2877,-4.3039,-4.3087,-4.3087,-4.3087,-4.3087,-4.3087,-4.3087,-4.299,-4.286,-4.286,-4.2763,-4.2634,-4.2634,-4.2634,-4.2634,-4.2634,-4.3279,-4.403,-4.403,-4.4669,-4.5423,-4.5423,-4.5423,-4.5423,-4.5423,-4.5423,-4.5423,-4.5423,-4.5423,-4.5423,-4.5423,-4.5423,-4.5423,-4.5423,-4.5423,-4.5423,-4.5423,-4.5423,-4.5423,-4.5423,-4.5423,-4.5423,-4.5423,-4.5423,-4.5423,-4.5423,-4.5423,-4.5423,-4.5423,-4.5511,-4.5563,-4.5563,-4.5563,-4.5563,-4.5476,-4.5563,-4.5563,-4.5459,-4.5563,-4.5701,0.0,0.0,0.0,0.0,0.0,0.0,0.0,0.0,0.0,0.0,0.0,0.0,0.0,0.0,0.0,0.0,0.0,0.0,0.0,0.0,0.0,0.0,0.0,0.0,0.0,0.0,0.0,0.0,0.0,0.0,0.0,-4.2634,-4.2634,-4.2634,-4.2634,-4.2634,-4.2634,-4.2634,-4.2634,-4.2634,-4.2634,-4.2634,-4.2634,-4.2634,-4.2634,-4.2634,-4.2634,-4.2634,-4.2634,-4.2634,-4.2634,-4.2634,-4.2634,-4.2634,-4.2634,-4.2634,-4.2634,-4.2634,-4.2634,-4.2634,-4.2634,-4.2634,-4.2634,-4.2634,-4.2634,-4.2634,-4.2634,-4.2634,-4.308,-4.3739,-4.3972,-4.4541,-4.5123,-4.5371,-4.5423,-4.5423,-4.5423,-4.5423,-4.5423,-4.5423,-4.5423,-4.5423,-4.5423,-4.5423,-4.5423,-4.5423,-4.5423,-4.5423,-4.5423,-4.5423,-4.5423,-4.5423,-4.5423,-4.5423,-4.5423,-4.5423,-4.5423,-4.5423,-4.5423,-4.5423,-4.5423,-4.5423,-4.5423,-4.5423,-4.5423,-4.5423,-4.5423,-4.5423,-4.5423,-4.5423,-4.5423,-4.5459,0.0,0.0,0.0,0.0,0.0,0.0,0.0,0.0,0.0,0.0,0.0,0.0,0.0,0.0,0.0,0.0,0.0,0.0,0.0,0.0,0.0,0.0,0.0,0.0,0.0,0.0,0.0,0.0,0.0,0.0,-4.2634,-4.2634,-4.2634,-4.2634,-4.2634,-4.2634,-4.2634,-4.2634,-4.2634,-4.2634,-4.2634,-4.2634,-4.2634,-4.2634,-4.2634,-4.2634,-4.2634,-4.2634,-4.2634,-4.2634,-4.2634,-4.2634,-4.2634,-4.2634,-4.2634,-4.2634,-4.2634,-4.2634,-4.2634,-4.2634,-4.2634,-4.2634,-4.2634,-4.2634,-4.2634,-4.2634,-4.2634,-4.2634,-4.2912,-4.3426,-4.3914,-4.4373,-4.4818,-4.53,-4.5423,-4.5423,-4.5423,-4.5423,-4.5423,-4.5423,-4.5423,-4.5423,-4.5423,-4.5423,-4.5423,-4.5423,-4.5423,-4.5423,-4.5423,-4.5423,-4.5423,-4.5423,-4.5423,-4.5423,-4.5423,-4.5423,-4.5423,-4.5423,-4.5423,-4.5423,-4.5423,-4.5423,-4.5423,-4.5423,-4.5423,-4.5423,-4.5423,-4.5423,-4.5423,-4.5423,-4.5423,-4.5423,0.0,0.0,0.0,0.0,0.0,0.0,0.0,0.0,0.0,0.0,0.0,0.0,0.0,0.0,0.0,0.0,0.0,0.0,0.0,0.0,0.0,0.0,0.0,0.0,0.0,0.0,0.0,0.0,0.0,0.0,-4.2634,-4.2634,-4.2634,-4.2634,-4.2634,-4.2634,-4.2634,-4.2634,-4.2634,-4.2634,-4.2634,-4.2634,-4.2634,-4.2634,-4.2634,-4.2634,-4.2634,-4.2634,-4.2634,-4.2634,-4.2634,-4.2634,-4.2634,-4.2634,-4.2634,-4.2634,-4.2634,-4.2634,-4.2634,-4.2634,-4.2634,-4.2634,-4.2634,-4.2634,-4.2634,-4.2634,-4.2634,-4.2634,-4.2912,-4.3426,-4.3914,-4.4373,-4.4818,-4.53,-4.5423,-4.5423,-4.5423,-4.5423,-4.5423,-4.5423,-4.5423,-4.5423,-4.5423,-4.5423,-4.5423,-4.5423,-4.5423,-4.5423,-4.5423,-4.5423,-4.5423,-4.5423,-4.5423,-4.5423,-4.5423,-4.5423,-4.5423,-4.5423,-4.5423,-4.5423,-4.5423,-4.5423,-4.5423,-4.5423,-4.5423,-4.5423,-4.5423,-4.5423,-4.5423,-4.5423,-4.5423,-4.5423,0.0,0.0,0.0,0.0,0.0,0.0,0.0,0.0,0.0,0.0,0.0,0.0,0.0,0.0,0.0,0.0,0.0,0.0,0.0,0.0,0.0,0.0,0.0,0.0,0.0,0.0,0.0,0.0,0.0,-4.2634,-4.2634,-4.2634,-4.2634,-4.2634,-4.2634,-4.2634,-4.2634,-4.2634,-4.2634,-4.2634,-4.2634,-4.2634,-4.2634,-4.2634,-4.2634,-4.2634,-4.2634,-4.2634,-4.2634,-4.2634,-4.2634,-4.2634,-4.2634,-4.2634,-4.2634,-4.2634,-4.2634,-4.2634,-4.2634,-4.2634,-4.2634,-4.2634,-4.2634,-4.2634,-4.2634,-4.2634,-4.2634,-4.2634,-4.2743,-4.3096,-4.3798,-4.4145,-4.4485,-4.5247,-4.5423,-4.5423,-4.5423,-4.5423,-4.5423,-4.5423,-4.5423,-4.5423,-4.5423,-4.5423,-4.5423,-4.5423,-4.5423,-4.5423,-4.5423,-4.5423,-4.5423,-4.5423,-4.5423,-4.5423,-4.5423,-4.5423,-4.5423,-4.5423,-4.5423,-4.5423,-4.5423,-4.5423,-4.5423,-4.5423,-4.5423,-4.5423,-4.5423,-4.5423,-4.5423,-4.5423,-4.5423,-4.5423,0.0,0.0,0.0,0.0,0.0,0.0,0.0,0.0,0.0,0.0,0.0,0.0,0.0,0.0,0.0,0.0,0.0,0.0,0.0,0.0,0.0,0.0,0.0,0.0,0.0,0.0,0.0,0.0,0.0,-4.2278,-4.2099,-4.2083,-4.2083,-4.2083,-4.2083,-4.2083,-4.2083,-4.2261,-4.2456,-4.2634,-4.2634,-4.2634,-4.2634,-4.2634,-4.2634,-4.2634,-4.2634,-4.2634,-4.2634,-4.2634,-4.2634,-4.2634,-4.2634,-4.2634,-4.2634,-4.2634,-4.2634,-4.2634,-4.2634,-4.2634,-4.2634,-4.2634,-4.2634,-4.2634,-4.2634,-4.2634,-4.2634,-4.2634,-4.2634,-4.2805,-4.3621,-4.3839,-4.403,-4.4835,-4.5015,-4.514,-4.5371,-4.5423,-4.5423,-4.5423,-4.5423,-4.5423,-4.5423,-4.5423,-4.5423,-4.5423,-4.5423,-4.5423,-4.5423,-4.5423,-4.5423,-4.5423,-4.5423,-4.5423,-4.5423,-4.5423,-4.5423,-4.5423,-4.5423,-4.5423,-4.5423,-4.5423,-4.5423,-4.5423,-4.5423,-4.5423,-4.5423,-4.5423,-4.5423,-4.5423,-4.5423,-4.5423,0.0,0.0,0.0,0.0,0.0,0.0,0.0,0.0,0.0,0.0,0.0,0.0,0.0,0.0,0.0,0.0,0.0,0.0,0.0,0.0,0.0,0.0,0.0,0.0,0.0,0.0,0.0,0.0,0.0,-4.1338,-4.0642,-4.061,-4.061,-4.061,-4.061,-4.061,-4.061,-4.129,-4.197,-4.2634,-4.2634,-4.2634,-4.2634,-4.2634,-4.2634,-4.2634,-4.2634,-4.2634,-4.2634,-4.2634,-4.2634,-4.2634,-4.2634,-4.2634,-4.2634,-4.2634,-4.2634,-4.2634,-4.2634,-4.2634,-4.2634,-4.2634,-4.2634,-4.2634,-4.2634,-4.2634,-4.2634,-4.2634,-4.2634,-4.268,-4.3202,-4.3366,-4.3486,-4.3972,-4.4088,-4.4316,-4.5194,-4.5423,-4.5423,-4.5423,-4.5423,-4.5423,-4.5423,-4.5423,-4.5423,-4.5423,-4.5423,-4.5423,-4.5423,-4.5423,-4.5423,-4.5423,-4.5423,-4.5423,-4.5423,-4.5423,-4.5423,-4.5423,-4.5423,-4.5423,-4.5423,-4.5423,-4.5423,-4.5423,-4.5423,-4.5423,-4.5423,-4.5423,-4.5423,-4.5423,-4.5423,-4.5423,0.0,0.0,0.0,0.0,0.0,0.0,0.0,0.0,0.0,0.0,0.0,0.0,0.0,0.0,0.0,0.0,0.0,0.0,0.0,0.0,0.0,0.0,0.0,0.0,0.0,0.0,0.0,0.0,0.0,0.0,-4.0496,-4.0496,-4.0496,-4.0496,-4.0496,-4.0496,-4.0496,-4.0756,-4.1241,-4.1954,-4.1954,-4.2197,-4.2634,-4.2634,-4.2634,-4.2634,-4.2634,-4.2634,-4.2634,-4.2634,-4.2634,-4.2634,-4.2634,-4.2634,-4.2634,-4.2634,-4.2634,-4.2634,-4.2634,-4.2634,-4.2634,-4.2634,-4.2634,-4.2634,-4.2634,-4.2634,-4.2634,-4.2634,-4.2634,-4.268,-4.3202,-4.3306,-4.3426,-4.3914,-4.403,-4.4202,-4.4835,-4.5194,-4.5423,-4.5423,-4.5423,-4.5423,-4.5423,-4.5423,-4.5423,-4.5423,-4.5423,-4.5423,-4.5423,-4.5423,-4.5423,-4.5423,-4.5423,-4.5423,-4.5423,-4.5423,-4.5423,-4.5423,-4.5423,-4.5423,-4.5423,-4.5423,-4.5423,-4.5423,-4.5423,-4.5423,-4.5423,-4.5423,-4.5423,-4.5423,-4.5423,-4.5423,0.0,0.0,0.0,0.0,0.0,0.0,0.0,0.0,0.0,0.0,0.0,0.0,0.0,0.0,0.0,0.0,0.0,0.0,0.0,0.0,0.0,0.0,0.0,0.0,0.0,0.0,0.0,0.0,0.0,0.0,-3.98,-3.98,-3.98,-3.98,-3.98,-3.9914,-4.014,-4.0156,-4.0513,-4.1209,-4.1209,-4.1581,-4.2278,-4.2278,-4.2407,-4.2634,-4.2634,-4.2634,-4.2634,-4.2634,-4.2634,-4.2634,-4.2634,-4.2634,-4.2634,-4.2634,-4.2634,-4.2634,-4.2634,-4.2634,-4.2634,-4.2634,-4.2634,-4.2634,-4.2634,-4.2634,-4.2634,-4.2634,-4.2634,-4.268,-4.2958,-4.308,-4.3141,-4.3443,-4.368,-4.3898,-4.4356,-4.4835,-4.5194,-4.5371,-4.5423,-4.5423,-4.5423,-4.5423,-4.5423,-4.5423,-4.5423,-4.5423,-4.5423,-4.5423,-4.5423,-4.5423,-4.5423,-4.5423,-4.5423,-4.5423,-4.5423,-4.5423,-4.5423,-4.5423,-4.5423,-4.5423,-4.5423,-4.5423,-4.5423,-4.5423,-4.5423,-4.5423,-4.5423,-4.5423,-4.5423,-4.5423,0.0,0.0,0.0,0.0,0.0,0.0,0.0,0.0,0.0,0.0,0.0,0.0,0.0,0.0,0.0,0.0,0.0,0.0,0.0,0.0,0.0,0.0,0.0,0.0,0.0,0.0,0.0,0.0,0.0,-3.9136,-3.844,-3.8391,-3.8391,-3.8391,-3.8391,-3.8732,-3.9444,-3.9444,-3.9784,-4.0464,-4.0464,-4.0853,-4.1549,-4.1565,-4.1954,-4.2601,-4.2618,-4.2634,-4.2634,-4.2634,-4.2634,-4.2634,-4.2634,-4.2634,-4.2634,-4.2571,-4.2571,-4.2634,-4.2571,-4.2571,-4.2634,-4.2634,-4.2634,-4.2634,-4.2634,-4.2634,-4.2634,-4.2634,-4.2634,-4.2634,-4.2634,-4.2634,-4.2634,-4.2634,-4.2974,-4.3426,-4.3914,-4.4373,-4.4818,-4.5318,-4.5423,-4.5423,-4.5423,-4.5423,-4.5423,-4.5423,-4.5423,-4.5423,-4.5423,-4.5423,-4.5423,-4.5423,-4.5423,-4.5423,-4.5423,-4.5423,-4.5423,-4.5423,-4.5423,-4.5423,-4.5423,-4.5423,-4.5423,-4.5423,-4.5423,-4.5423,-4.5423,-4.5423,-4.5423,-4.5423,-4.5423,-4.5423,-3.8278,0.0,0.0,0.0,0.0,0.0,0.0,0.0,0.0,0.0,0.0,0.0,0.0,0.0,0.0,0.0,0.0,0.0,0.0,0.0,0.0,0.0,0.0,0.0,0.0,0.0,0.0,0.0,-3.8699,-3.8618,-3.8408,-3.8391,-3.8391,-3.8391,-3.8391,-3.8489,-3.8699,-3.8699,-3.9055,-3.9768,-3.9768,-4.0124,-4.0804,-4.1338,-4.1678,-4.1889,-4.2407,-4.2634,-4.2634,-4.2634,-4.2634,-4.2634,-4.2634,-4.2634,-4.2571,-4.2302,-4.2365,-4.2571,-4.2302,-4.2365,-4.2634,-4.2634,-4.2634,-4.2634,-4.2634,-4.2634,-4.2634,-4.2634,-4.2634,-4.2634,-4.2634,-4.2634,-4.2634,-4.2634,-4.268,-4.3035,-4.3856,-4.4088,-4.4429,-4.5247,-4.5423,-4.5423,-4.5423,-4.5423,-4.5423,-4.5423,-4.5423,-4.5423,-4.5423,-4.5423,-4.5423,-4.5423,-4.5423,-4.5423,-4.5423,-4.5423,-4.5423,-4.5423,-4.5423,-4.5423,-4.5423,-4.5423,-4.5423,-4.5423,-4.5423,-4.5423,-4.5423,-4.5423,-4.5423,-4.5423,-4.5423,-4.5423,0.0,0.0,0.0,0.0,0.0,0.0,0.0,-3.7902,0.0,0.0,0.0,0.0,0.0,0.0,0.0,0.0,0.0,0.0,0.0,0.0,0.0,0.0,0.0,0.0,0.0,0.0,0.0,-3.8391,-3.8391,-3.8391,-3.8391,-3.8391,-3.8391,-3.8391,-3.8391,-3.8391,-3.8391,-3.8391,-3.8618,-3.9023,-3.9023,-3.9395,-4.0092,-4.0513,-4.0853,-4.116,-4.1873,-4.2197,-4.2213,-4.2316,-4.2365,-4.2445,-4.2571,-4.2492,-4.2365,-4.2302,-4.2429,-4.2571,-4.2365,-4.2445,-4.2634,-4.2634,-4.2634,-4.2634,-4.2634,-4.2634,-4.2634,-4.2634,-4.2634,-4.2634,-4.2634,-4.2634,-4.2634,-4.2634,-4.2634,-4.2805,-4.3562,-4.3722,-4.4013,-4.5194,-4.5423,-4.5423,-4.5423,-4.5423,-4.5423,-4.5423,-4.5423,-4.5423,-4.5423,-4.5423,-4.5423,-4.5423,-4.5423,-4.5423,-4.5423,-4.5423,-4.5423,-4.5423,-4.5423,-4.5423,-4.5423,-4.5423,-4.5423,-4.5423,-4.5423,-4.5423,-4.5423,-4.5423,-4.5423,-4.5423,-4.5423,-4.5423,0.0,0.0,0.0,0.0,0.0,0.0,-3.7342,-3.7786,-3.8205,0.0,0.0,0.0,0.0,0.0,0.0,0.0,0.0,0.0,0.0,0.0,0.0,0.0,0.0,0.0,0.0,-3.8391,-3.8391,-3.8391,-3.8391,-3.8391,-3.8391,-3.8391,-3.8391,-3.8391,-3.8391,-3.8391,-3.8391,-3.8391,-3.8391,-3.8391,-3.8391,-3.8732,-3.9363,-3.9444,-3.98,-4.0356,-4.1083,-4.1439,-4.1491,-4.1805,-4.1981,-4.2109,-4.2381,-4.2302,-4.2109,-4.2302,-4.2508,-4.2571,-4.2508,-4.2571,-4.2634,-4.2634,-4.2634,-4.2634,-4.2634,-4.2634,-4.2634,-4.2634,-4.2634,-4.2634,-4.2634,-4.2634,-4.2634,-4.2634,-4.2634,-4.2743,-4.3185,-4.3306,-4.3663,-4.5015,-4.5247,-4.5247,-4.5247,-4.5247,-4.5247,-4.5247,-4.53,-4.53,-4.53,-4.5371,-4.5423,-4.5423,-4.5423,-4.5423,-4.5423,-4.5423,-4.5423,-4.5423,-4.5423,-4.5423,-4.5423,-4.5423,-4.5423,-4.5423,-4.5423,-4.5423,-4.5423,-4.5423,-4.5423,-4.5423,-4.5423,-4.5423,0.0,0.0,0.0,0.0,0.0,0.0,-3.6951,-3.6951,-3.6951,0.0,0.0,0.0,0.0,0.0,0.0,0.0,0.0,0.0,0.0,0.0,0.0,0.0,0.0,0.0,0.0,-3.8391,-3.8391,-3.8391,-3.8391,-3.8391,-3.8391,-3.8391,-3.8391,-3.8391,-3.8391,-3.8391,-3.8391,-3.8391,-3.8391,-3.8391,-3.8391,-3.8472,-3.8634,-3.9217,-3.9424,-3.9349,-4.0039,-4.048,-4.0817,-4.0896,-4.1342,-4.2109,-4.1851,-4.1785,-4.1654,-4.1456,-4.172,-4.2174,-4.1916,-4.2174,-4.2634,-4.2634,-4.2634,-4.2634,-4.2634,-4.2634,-4.2634,-4.2634,-4.2634,-4.2634,-4.2634,-4.2634,-4.2634,-4.2634,-4.2634,-4.2743,-4.3185,-4.3306,-4.3486,-4.4145,-4.4259,-4.4259,-4.4259,-4.4259,-4.4259,-4.4259,-4.4597,-4.4835,-4.4835,-4.5194,-4.5423,-4.5423,-4.5423,-4.5423,-4.5423,-4.5423,-4.5423,-4.5423,-4.5423,-4.5423,-4.5423,-4.5423,-4.5423,-4.5423,-4.5423,-4.5423,-4.5423,-4.5423,-4.5423,-4.5423,-4.5423,-4.5423,0.0,0.0,0.0,-3.4861,0.0,0.0,0.0,-3.6182,0.0,0.0,0.0,0.0,0.0,0.0,0.0,0.0,0.0,0.0,0.0,0.0,0.0,0.0,0.0,0.0,0.0,-3.8391,-3.8391,-3.8391,-3.8391,-3.8391,-3.8391,-3.8391,-3.8391,-3.8391,-3.8391,-3.8391,-3.8391,-3.8391,-3.8391,-3.8391,-3.8205,-3.8148,-3.8164,-3.8344,-3.8387,-3.8241,-3.8941,-3.9372,-3.9534,-3.9755,-4.0322,-4.113,-4.1658,-4.172,-4.1588,-4.1785,-4.2045,-4.2302,-4.2174,-4.2302,-4.2634,-4.2634,-4.2634,-4.2634,-4.2634,-4.2634,-4.2634,-4.2634,-4.2634,-4.2634,-4.2634,-4.2634,-4.2634,-4.2634,-4.2634,-4.268,-4.2912,-4.2974,-4.3035,-4.3279,-4.3323,-4.3443,-4.3914,-4.403,-4.403,-4.403,-4.4429,-4.4708,-4.4708,-4.5123,-4.5423,-4.5423,-4.5423,-4.5423,-4.5423,-4.5423,-4.5423,-4.5423,-4.5423,-4.5423,-4.5423,-4.5423,-4.5423,-4.5423,-4.5423,-4.5423,-4.5423,-4.5423,-4.5423,-4.5423,-4.5423,-4.5423,0.0,0.0,0.0,0.0,0.0,-3.4824,0.0,0.0,0.0,0.0,0.0,0.0,0.0,0.0,0.0,0.0,0.0,0.0,0.0,0.0,0.0,0.0,0.0,0.0,0.0,-3.8391,-3.8391,-3.8391,-3.8391,-3.8391,-3.8391,-3.8391,-3.8391,-3.8391,-3.8391,-3.8391,-3.8391,-3.8391,-3.8391,-3.8391,-3.8075,-3.7886,-3.7886,-3.7535,-3.7358,-3.7345,-3.7973,-3.8227,-3.8323,-3.8575,-3.9116,-3.9882,-4.113,-4.1528,-4.1456,-4.2109,-4.2365,-4.2445,-4.2508,-4.2571,-4.2634,-4.2634,-4.2634,-4.2634,-4.2634,-4.2634,-4.2634,-4.2634,-4.2634,-4.2634,-4.2634,-4.2634,-4.2634,-4.2634,-4.2634,-4.2634,-4.2634,-4.2634,-4.2634,-4.2634,-4.2634,-4.2867,-4.3621,-4.3739,-4.3739,-4.3739,-4.4128,-4.4468,-4.4524,-4.4944,-4.53,-4.5371,-4.5423,-4.5423,-4.5423,-4.5423,-4.5423,-4.5423,-4.5423,-4.5423,-4.5423,-4.5423,-4.5423,-4.5423,-4.5423,-4.5423,-4.5423,-4.5423,-4.5423,-4.5423,-4.5423,-4.5423,0.0,0.0,0.0,0.0,-3.3922,0.0,0.0,0.0,0.0,0.0,0.0,0.0,0.0,0.0,0.0,0.0,0.0,0.0,0.0,0.0,0.0,0.0,0.0,0.0,0.0,0.0,-3.8391,-3.8391,-3.8391,-3.8391,-3.8391,-3.8391,-3.8391,-3.8391,-3.8391,-3.8391,-3.8391,-3.8391,-3.8391,-3.8391,-3.8075,-3.7886,-3.7886,-3.7535,-3.7254,-3.706,-3.7138,-3.7328,-3.7635,-3.7633,-3.808,-3.8758,-3.9504,-4.0137,-4.0662,-4.1138,-4.1456,-4.1785,-4.2045,-4.2365,-4.2634,-4.2634,-4.2634,-4.2634,-4.2634,-4.2634,-4.2634,-4.2634,-4.2634,-4.2634,-4.2634,-4.2634,-4.2634,-4.2634,-4.2634,-4.2634,-4.2634,-4.2634,-4.2634,-4.2634,-4.2634,-4.2618,-4.2743,-4.2743,-4.2743,-4.2743,-4.3141,-4.3604,-4.403,-4.4485,-4.4944,-4.5371,-4.5423,-4.5423,-4.5423,-4.5423,-4.5423,-4.5423,-4.5423,-4.5423,-4.5423,-4.5423,-4.5423,-4.5423,-4.5423,-4.5423,-4.5423,-4.5423,-4.5423,-4.5423,-4.5423,-4.5423,0.0,0.0,0.0,0.0,0.0,0.0,0.0,0.0,-3.4639,0.0,0.0,0.0,0.0,0.0,0.0,0.0,0.0,0.0,0.0,0.0,0.0,0.0,0.0,0.0,0.0,0.0,0.0,0.0,0.0,-3.8391,-3.8391,-3.8391,-3.8391,-3.8391,-3.8391,-3.8391,-3.8391,-3.8391,-3.8391,-3.8391,-3.7828,-3.7594,-3.7594,-3.7118,-3.6846,-3.6693,-3.6693,-3.6786,-3.6923,-3.6923,-3.7307,-3.7954,-3.8231,-3.9148,-4.0339,-4.1115,-4.1456,-4.1654,-4.198,-4.2174,-4.2365,-4.2571,-4.2634,-4.2634,-4.2634,-4.2634,-4.2571,-4.2365,-4.2302,-4.2238,-4.2045,-4.2174,-4.2238,-4.2045,-4.2174,-4.2238,-4.2045,-4.2174,-4.2302,-4.2302,-4.2445,-4.2634,-4.2634,-4.2634,-4.2634,-4.2634,-4.3202,-4.3798,-4.3972,-4.4669,-4.5177,-4.5371,-4.5423,-4.5423,-4.5423,-4.5423,-4.5423,-4.5423,-4.5423,-4.5423,-4.5423,-4.5423,-4.5423,-4.5423,-4.5423,-4.5423,-4.5423,-4.5423,-4.5423,-4.5423,-4.5423,-4.5423,-3.3452,0.0,0.0,0.0,0.0,0.0,0.0,0.0,0.0,0.0,0.0,0.0,0.0,0.0,0.0,0.0,0.0,0.0,0.0,0.0,0.0,0.0,0.0,0.0,0.0,0.0,0.0,-3.8391,-3.8391,-3.8391,-3.8391,-3.8391,-3.8391,-3.8391,-3.8391,-3.8391,-3.8391,-3.8391,-3.8391,-3.8391,-3.7727,-3.7417,-3.7358,-3.6785,-3.6492,-3.6492,-3.6492,-3.6492,-3.6492,-3.6492,-3.6784,-3.7246,-3.743,-3.8237,-3.9554,-4.0742,-4.1299,-4.1522,-4.198,-4.2174,-4.2238,-4.2302,-4.2381,-4.2445,-4.2365,-4.2302,-4.2302,-4.2045,-4.198,-4.1916,-4.1654,-4.1785,-4.1916,-4.1654,-4.1785,-4.1916,-4.1654,-4.1785,-4.198,-4.2109,-4.2302,-4.2492,-4.2571,-4.2634,-4.2634,-4.2634,-4.3262,-4.3839,-4.3972,-4.4725,-4.5247,-4.5371,-4.5423,-4.5423,-4.5423,-4.5423,-4.5423,-4.5423,-4.5423,-4.5423,-4.5423,-4.5423,-4.5423,-4.5423,-4.5423,-4.5423,-4.5423,-4.5423,-4.5423,-4.5423,-4.5423,-4.5423,0.0,0.0,0.0,-3.3536,0.0,0.0,0.0,0.0,-3.3896,0.0,0.0,0.0,0.0,0.0,0.0,-3.3321,0.0,0.0,0.0,0.0,0.0,0.0,0.0,0.0,0.0,0.0,0.0,-3.8391,-3.8391,-3.8391,-3.8391,-3.8391,-3.8391,-3.8391,-3.8391,-3.8391,-3.8391,-3.8391,-3.8391,-3.8391,-3.7727,-3.7417,-3.7358,-3.6785,-3.6492,-3.6492,-3.6492,-3.6492,-3.6492,-3.6492,-3.6507,-3.6599,-3.7246,-3.7523,-3.7787,-3.9474,-4.0591,-4.1205,-4.1851,-4.2302,-4.2508,-4.1851,-4.1851,-4.2045,-4.172,-4.1654,-4.1654,-4.1588,-4.1588,-4.1588,-4.1588,-4.1588,-4.1588,-4.1588,-4.1588,-4.1588,-4.1588,-4.1588,-4.172,-4.2045,-4.2109,-4.2238,-4.2571,-4.2634,-4.2634,-4.2634,-4.3019,-4.3486,-4.3972,-4.4429,-4.4889,-4.5371,-4.5423,-4.5423,-4.5423,-4.5423,-4.5423,-4.5423,-4.5423,-4.5423,-4.5423,-4.5423,-4.5423,-4.5423,-4.5423,-4.5423,-4.5423,-4.5423,-4.5423,-4.5423,-4.5423,-4.5423,0.0,0.0,-3.3326,-3.3536,0.0,0.0,0.0,0.0,0.0,0.0,0.0,0.0,0.0,0.0,-3.3673,-3.3459,-3.4037,0.0,0.0,0.0,0.0,0.0,0.0,0.0,0.0,0.0,0.0,-3.8391,-3.8391,-3.8391,-3.8391,-3.8391,-3.8391,-3.8391,-3.8391,-3.8391,-3.8391,-3.8391,-3.8278,-3.8075,-3.7594,-3.7314,-3.7105,-3.6677,-3.6492,-3.6492,-3.6492,-3.6492,-3.6492,-3.6492,-3.6492,-3.6507,-3.6738,-3.7107,-3.7615,-3.8654,-3.9493,-4.0194,-4.11,-4.1654,-4.1916,-4.1654,-4.1654,-4.172,-4.1654,-4.1588,-4.1522,-4.1323,-4.1256,-4.1189,-4.0919,-4.1055,-4.1189,-4.0935,-4.107,-4.1205,-4.0935,-4.1055,-4.1323,-4.139,-4.1588,-4.1851,-4.2238,-4.2238,-4.2365,-4.2571,-4.3262,-4.3839,-4.3972,-4.4669,-4.5247,-4.5371,-4.5123,-4.5069,-4.5371,-4.5423,-4.5247,-4.4944,-4.4944,-4.478,-4.4502,-4.478,-4.478,-4.4485,-4.478,-4.478,-4.4485,-4.4485,-4.4485,-4.4485,-4.4485,-4.4669,-3.3326,-3.3326,0.0,-3.3466,-3.3466,0.0,-3.3466,0.0,0.0,0.0,0.0,0.0,0.0,0.0,0.0,-3.3605,-3.3799,-3.3937,0.0,-3.4074,0.0,0.0,0.0,0.0,0.0,0.0,-3.7902,-3.8391,-3.8391,-3.8391,0.0,0.0,-3.8391,-3.8391,-3.8391,-3.8391,-3.8391,-3.8391,-3.8205,-3.7886,-3.7535,-3.727,-3.7015,-3.6616,-3.6492,-3.6492,-3.6492,-3.6492,-3.6492,-3.6492,-3.6492,-3.6492,-3.6492,-3.6753,-3.723,-3.7908,-3.8805,-3.9787,-4.0355,-4.0986,-4.1588,-4.1323,-4.1323,-4.139,-4.1256,-4.1189,-4.1189,-4.0935,-4.0867,-4.0799,-4.0593,-4.0662,-4.0799,-4.0524,-4.073,-4.0799,-4.0524,-4.073,-4.0935,-4.107,-4.139,-4.172,-4.2045,-4.2174,-4.2365,-4.2571,-4.3262,-4.3722,-4.3722,-4.4429,-4.4906,-4.4906,-4.4652,-4.4597,-4.4906,-4.4906,-4.478,-4.4485,-4.4429,-4.4316,-4.403,-4.4316,-4.4316,-4.403,-4.4316,-4.4299,-4.403,-4.403,-4.403,-4.403,-4.403,-4.4071]}]]